     2              OBSERVATION DATA    GPS                 RINEX VERSION / TYPE
ASRINEXO V2.4.4 UX USGS 23-APR-96 11:18                     PGM / RUN BY / DATE
                                                            COMMENT
Original Marker Name: ymr2                                  COMMENT
Campaign Name: usgs.cuyama.monit                            COMMENT
4-Character Station Name: YMR2                              COMMENT
6-Character Antenna Code: ASHGD3                            COMMENT
Vertical Measurement Point: EGP                             COMMENT
Vertical Offset to Rinex Ref. Point: 0.0594                 COMMENT
Radial Measurement Point: EGP                               COMMENT
Radial Offset to Rinex Ref. Point: 0.1837                   COMMENT
Antenna Height from Field Measurement: 1.2695 m             COMMENT
Additional Antenna Identification Info.:                    COMMENT
The Whopper                                                 COMMENT
Original XYZ: -2581844.7400 -4568246.5800 3616542.6900      COMMENT
New XYZ position is based on association with SCEC monument COMMENT
E1E9K6P5+0101. Position of that monument is believed to be  COMMENT
valid to within 1 m horizontally; vertical accuracy         COMMENT
should be no worse than 3-times this value.                 COMMENT
                                                            COMMENT
Revised Rinex header created by UCSD GPS archive for        COMMENT
GSAC on 12-Nov-1999 (1999:316) 16:48:41 GMT                 COMMENT
For assistance contact dagnew@ucsd.edu or hjohnson@ucsd.edu COMMENT
                                                            COMMENT
YMR2                                                        MARKER NAME
JMS US GEOLOGICAL SURVEY                                    OBSERVER / AGENCY
707 ASHTECH Z-XII3 1F00                                     REC # / TYPE / VERS
404 ASHTECH GEODETIC III                                    ANT # / TYPE
 -2582012.0000 -4568280.0000  3616489.0000                  APPROX POSITION XYZ
        1.1967        0.0000        0.0000                  ANTENNA: DELTA H/E/N
     1     1     0                                          WAVELENGTH FACT L1/2
     5    C1    L1    L2    P1    P2                        # / TYPES OF OBSERV
    30                                                      INTERVAL
  1996     4    20    15    54   30.000000                  TIME OF FIRST OBS
  1996     4    20    22    25   30.000000                  TIME OF LAST OBS
                                                            END OF HEADER
 96  4 20 15 54 30.0000000  0  7  2  3 27 19 31 18 29
  18855002.968      -33382.94219    -14252.87959                  18855008.6234
  20210934.772       29133.73119
  17777568.737      -16493.35519
  16704427.676        -592.61519
  18035513.977        2232.88319
  17165875.439       17933.92519
  20036194.217       30181.98119
 96  4 20 15 55  0.0000000  0  8 16  2  3 27 19 31 18 29
  20083100.547      -33500.55119    -21925.81559                  20083104.5494
  18842552.345      -98811.40559    -65236.09849  18842552.2904   18842558.2174
  20222677.331       90848.090 9     61465.75559                  20222682.7634
  17767355.227      -70152.983 9    -45007.73559                  17767359.9434
  16704100.042       -2306.14259     -1441.95659  16704101.2184   16704106.4904
  18037023.259       10161.51459      6637.90659  18037023.4504   18037027.9374
  17178531.590       84430.77559     55797.32359  17178531.4364   17178536.3054
  20055974.002      134117.508 9
 96  4 20 15 55 30.0000000  0  8 16  2  3 27 19 31 18 29
  23975505.863      -59221.31259    -41967.99149  23975507.0104   23975512.9264
  22727425.859     -164118.43249   -116124.68249  22727426.6234   22727432.3874
  24131769.681      152809.19859    109747.11049  24131770.0814   24131775.5764
  21654442.620     -123831.53059    -86835.17349  21654442.0554   21654447.4584
  20601092.364       -3940.13549     -2715.19849  20601091.9444   20601097.3234
  21935922.091       18549.28149     13173.81749  21935921.3494   21935926.4404
  21088538.163      151191.90849    107818.96549  21088537.5234   21088542.5734
  23973051.418      238041.42259    168163.28359  23973051.7004   23973056.3854
 96  4 20 15 56  0.0000000  0  8 16  2  3 27 19 31 18 29
  23970680.708      -84585.12259    -61732.00059  23970680.2984   23970684.5314
  22715005.879     -229394.96259   -166989.49759  22715004.8084   22715010.8284
  24143609.948      215042.21259    158240.35259  24143613.7054   24143618.6354
  21644210.428     -177598.93159   -128731.84459  21644210.5544   21644215.9814
  20600788.764       -5531.58859     -3955.28959  20600789.3864   20600794.1454
  21937599.105       27371.08659     20047.95459  21937599.9704   21937604.7854
  21101293.954      218229.80859    160056.27159  21101294.3454   21101299.4114
  23992835.981      342020.27959    249185.69959  23992837.9854   23992843.4934
 96  4 20 15 56 30.0000000  0  8 16  2  3 27 19 31 18 29
  23965917.760     -109615.36149    -81236.08349  23965917.1974   23965924.1584
  22702589.360     -294636.97649   -217827.41849  22702589.8114   22702595.4764
  24155495.170      277490.89849    206901.64949  24155496.8244   24155502.5754
  21633961.505     -231456.28849   -170698.61149  21633962.1954   21633967.0524
  20600485.612       -7124.05249     -5196.17049  20600486.2764   20600491.0454
  21939352.055       36578.85049     27222.83149  21939352.6494   21939357.1704
  21114088.790      285468.48549    212450.02649  21114089.4364   21114094.7434
  24012618.416      445971.53749    330186.62549  24012620.0514   24012624.2264
 96  4 20 15 57  0.0000000  0  8 16  2  3 27 19 31 18 29
  23961210.158     -134351.10849   -100510.68649  23961210.1454   23961216.3744
  22690177.384     -359864.07749   -268653.72749  22690177.3684   22690183.3784
  24167418.626      340142.99449    255721.44649  24167419.3074   24167424.5714
  21623690.567     -285434.59549   -212759.62549  21623690.5954   21623695.2414
  20600176.308       -8750.51649     -6463.55149  20600177.1204   20600181.7744
  21941172.470       46139.72149     34672.84849  21941171.9484   21941176.5264
  21126918.234      352885.83249    264983.00449  21126918.4144   21126923.7624
  24032389.022      549859.47149    411138.19849  24032390.0944   24032394.9094
 96  4 20 15 57 30.0000000  0  8 16  2  3 27 19 31 18 29
  23956551.419     -158830.10449   -119585.23949  23956552.0154   23956558.7534
  22677767.741     -425075.64549   -319467.92949  22677768.1614   22677773.7454
  24179375.808      402972.71549    304679.65449  24179375.3634   24179380.7054
  21613391.660     -339555.46449   -254931.73149  21613391.7694   21613396.5634
  20599857.567      -10425.16349     -7768.47349  20599858.2334   20599863.1444
  21943053.388       56029.01749     42378.77949  21943053.7044   21943058.3694
  21139776.464      420455.39949    317634.59049  21139776.5974   21139782.0824
  24052138.889      653650.71649    492014.43649  24052139.8434   24052144.8394
 96  4 20 15 58  0.0000000  0  8 16  2  3 27 19 31 18 29
  23951933.742     -183100.03849   -138496.87949  23951933.8594   23951938.5494
  22665358.430     -490285.95249   -370281.15749  22665359.0304   22665364.9004
  24191358.175      465947.81049    353751.14649  24191359.3974   24191364.3194
  21603062.808     -393831.03549   -297224.37749  21603062.9784   21603068.0234
  20599524.790      -12174.60549     -9131.68149  20599525.5964   20599530.3184
  21944991.384       66212.97949     50314.33249  21944991.5434   21944996.2714
  21152659.059      488150.64449    370384.10749  21152658.6544   21152664.0464
  24071867.493      757322.32949    572797.45249  24071867.3564   24071874.2744
 96  4 20 15 58 30.0000000  0  8 16  2  3 27 19 31 18 29
  23947350.813     -207181.32249   -157261.53049  23947350.6944   23947356.5714
  22652946.257     -555514.02149   -421108.23149  22652946.8494   22652952.5984
  24203367.045      529052.79349    402923.84149  24203367.9564   24203373.7684
  21592702.000     -448278.93649   -339651.29249  21592702.1534   21592706.9314
  20599175.152      -14011.20949    -10562.81249  20599176.0094   20599180.8414
  21946983.369       76682.23449     58472.15849  21946983.8664   21946988.5954
  21165562.927      555963.75549    423225.46749  21165563.2194   21165568.5764
  24091565.566      860847.74049    653466.50849  24091568.6474   24091574.2774
 96  4 20 15 59  0.0000000  0  8 16  2  3 27 19 31 18 29
  23942802.451     -231088.49849   -175890.49549  23942802.1184   23942806.7984
  22640526.882     -620774.76449   -471960.76049  22640527.9904   22640533.6154
  24215400.269      592287.65649    452197.72449  24215401.1724   24215407.8834
  21582308.041     -502901.92349   -382214.67149  21582307.9014   21582312.8534
  20598808.100      -15937.49349    -12063.81049  20598809.2344   20598814.0734
  21949030.830       87442.56149     66856.84249  21949031.7544   21949036.3224
  21178490.452      623899.26049    476162.20149  21178490.7504   21178496.1724
  24111239.377      964220.29049    734016.49349  24111239.8674   24111245.9134
 96  4 20 15 59 30.0000000  0  8 16  2  3 27 19 31 18 29
  23938291.406     -254787.15949   -194356.98149  23938291.4584   23938298.2114
  22628108.668     -686044.58249   -522820.35649  22628107.3624   22628113.4874
  24227462.890      655675.47749    501590.81549  24227464.2174   24227468.4784
  21571884.662     -557673.71349   -424893.98149  21571884.8874   21571890.1664
  20598430.230      -17925.99349    -13613.29949  20598430.8444   20598435.7694
  21951139.867       98522.06449     75490.21149  21951139.7334   21951144.3584
  21191446.732      691985.33249    529216.25749  21191447.3584   21191452.6374
  24130885.518     1067458.53449    814461.80949  24130885.8644   24130890.6454
 96  4 20 16  0  0.0000000  0  8 16  2  3 27 19 31 18 29
  23933822.152     -278275.83549   -212659.84349  23933822.4154   23933827.7974
  22615680.290     -751353.44849   -573710.37849  22615679.6964   22615685.7154
  24239554.226      719215.11849    551102.18849  24239554.6694   24239559.7424
  21561431.250     -612605.25449   -467697.77349  21561432.0564   21561437.0704
  20598036.271      -19993.52149    -15224.36549  20598037.4204   20598042.4714
  21953309.472      109923.76449     84374.64749  21953309.4954   21953314.3534
  21204431.550      760215.60549    582382.67949  21204431.3334   21204436.4854
  24150503.182     1170553.25349    894795.26649  24150503.3534   24150508.6894
 96  4 20 16  0 30.0000000  0  8 16  2  3 27 19 31 18 29
  23929396.572     -301536.87949   -230785.34349  23929395.9164   23929403.0384
  22603242.342     -816711.33949   -624638.59649  22603242.9134   22603248.3724
  24251672.672      782905.12449    600730.73649  24251674.4564   24251679.4524
  21550944.925     -667710.91849   -510637.24549  21550945.7234   21550950.7924
  20597627.794      -22140.87749    -16897.63949  20597628.8094   20597633.9974
  21955543.132      121655.36549     93516.14049  21955542.1544   21955546.6214
  21217439.141      828577.86849    635651.94149  21217439.9804   21217445.5474
  24170091.131     1273495.23349    975009.71149  24170093.4704   24170098.9814
 96  4 20 16  1  0.0000000  0  8 16  2  3 27 19 31 18 29
  23925019.918     -324529.19749   -248701.43849  23925020.8094   23925026.8494
  22590802.085     -882083.76949   -675578.15549  22590802.5384   22590808.5614
  24263828.829      846774.78549    650499.26949  24263829.2994   24263832.5964
  21540430.565     -722965.92149   -553693.09649  21540430.9804   21540435.9944
  20597206.674      -24353.97449    -18622.14049  20597207.7384   20597213.3704
  21957843.085      133744.71349    102936.39549  21957842.8224   21957847.3494
  21230479.237      897099.28449    689045.22349  21230479.3474   21230484.5724
  24189659.075     1376316.45049   1055130.06549  24189659.5074   24189666.2814
 96  4 20 16  1 30.0000000  0  8 16  2  3 27 19 31 18 29
  23920702.224     -347224.47249   -266386.06849  23920701.6884   23920709.6154
  22578363.825     -947445.31549   -726509.22549  22578364.2164   22578370.3034
  24276018.860      910841.65849    700421.53049  24276020.2414   24276024.9604
  21529890.566     -778356.22449   -596854.35349  21529890.4914   21529895.6164
  20596778.057      -26609.84249    -20379.97849  20596778.5774   20596783.5644
  21960214.615      146208.04449    112648.05749  21960214.1074   21960219.0474
  21243550.149      965789.94949    742570.39249  21243550.8374   21243556.0064
  24209205.542     1479033.06649   1135168.91949  24209204.5634   24209211.9284
 96  4 20 16  2  0.0000000  0  8 16  2  3 27 19 31 18 29
  23916443.815     -369599.90849   -283821.48549  23916443.6374   23916450.9124
  22565929.936    -1012788.13649   -777425.71149  22565930.0064   22565936.3484
  24288251.849      975122.48649    750510.38349  24288251.5144   24288257.0224
  21519326.628     -833869.78049   -640111.68249  21519326.8674   21519331.4264
  20596345.790      -28883.55549    -22151.70749  20596346.0904   20596351.0484
  21962660.737      159071.59049    122671.59549  21962662.0904   21962666.5804
  21256657.029     1034664.12349    796238.55249  21256657.1494   21256662.2384
  24228738.650     1581682.84049   1215155.66149  24228739.6404   24228745.3974
 96  4 20 16  2 30.0000000  0  8 16  2  3 27 19 31 18 29
  23912247.164     -391650.23349   -301003.55849  23912248.2024   23912255.4994
  22553500.112    -1078105.46749   -828322.32349  22553500.7694   22553506.7884
  24300523.737     1039610.96549    800761.13349  24300524.4594   24300528.8914
  21508739.099     -889506.94049   -683465.31649  21508739.5544   21508744.4114
  20595909.031      -31177.00149    -23938.81149  20595909.2804   20595914.4004
  21965183.587      172321.92049    132996.52249  21965183.2214   21965188.1794
  21269800.405     1103734.33549    850059.47349  21269800.8874   21269806.0224
  24248259.129     1684267.39049   1295091.58649  24248259.8254   24248266.8814
 96  4 20 16  3  0.0000000  0  8 16  2  3 27 19 31 18 29
  23908117.404     -413361.43049   -317921.38949  23908116.2344   23908123.2324
  22541084.193    -1143356.87149   -879167.56649  22541083.9714   22541089.7324
  24312841.212     1104334.71549    851195.19849  24312841.4114   24312845.0614
  21498137.049     -945224.08149   -726881.26949  21498136.8914   21498141.9374
  20595476.012      -33451.59549    -25711.22949  20595476.4354   20595481.2174
  21967783.044      185985.67949    143643.59549  21967783.3214   21967787.9014
  21282990.014     1173044.58449    904067.42949  21282990.2524   21282995.4394
  24267776.762     1786835.64349   1375014.81649  24267778.7094   24267784.6294
 96  4 20 16  3 30.0000000  0  8 16  2  3 27 19 31 18 29
  23904052.106     -434717.39149   -334562.41049  23904052.8204   23904059.1074
  22528682.850    -1208521.89349   -929945.50349  22528683.5034   22528689.6724
  24325201.153     1169294.84949    901813.44949  24325202.6724   24325206.7954
  21487525.526    -1000985.60249   -770331.80149  21487525.4674   21487530.7734
  20595054.280      -35664.48849    -27435.56949  20595055.3844   20595060.1874
  21970468.158      200093.32049    154636.54349  21970468.6464   21970472.4274
  21296229.804     1242617.10649    958279.75749  21296229.5184   21296234.4794
  24287299.389     1889415.47849   1454947.06749  24287299.1404   24287305.2374
 96  4 20 16  4  0.0000000  0  8 16  2  3 27 19 31 18 29
  23900051.843     -455742.54349   -350945.65349  23900051.2804   23900058.8794
  22516293.562    -1273631.09449   -980679.94349  22516293.3754   22516300.0304
  24337602.647     1234459.29649    952590.90549  24337601.6134   24337607.0644
  21476904.488    -1056798.51349   -813822.38049  21476904.6814   21476910.0084
  20594638.066      -37858.45949    -29145.16549  20594638.2214   20594643.1034
  21973233.221      214623.86149    165959.03049  21973233.5054   21973237.9294
  21309515.318     1312435.02349   1012683.29749  21309515.2124   21309521.0354
  24306814.347     1991969.00749   1534858.81349  24306814.7514   24306821.2064
 96  4 20 16  4 30.0000000  0  8 16  2  3 27 19 31 18 29
  23896113.576     -476438.26949   -367072.22849  23896113.8734   23896120.2324
  22503919.515    -1338655.20849  -1031348.08149  22503919.8074   22503926.5264
  24350041.467     1299840.20349   1003537.04249  24350043.3224   24350049.8974
  21466279.776    -1112632.01949   -857329.00549  21466280.0184   21466285.2494
  20594223.245      -40034.78649    -30841.00749  20594224.1484   20594229.2694
  21976077.054      229574.87949    177609.16049  21976078.4824   21976082.6424
  21322848.792     1382505.99849   1067284.03149  21322849.1354   21322855.1894
  24326322.818     2094485.05349   1614741.37349  24326322.7544   24326329.5614
 96  4 20 16  5  0.0000000  0  8 16  2  3 27 19 31 18 29
  23892241.647     -496782.28549   -382924.71749  23892242.3164   23892249.1624
  22491569.916    -1403556.89749  -1081920.81649  22491569.5094   22491576.0664
  24362530.716     1365464.20849   1054672.59049  24362531.4674   24362536.6654
  21455656.696    -1168458.75749   -900830.36049  21455656.7594   21455661.1974
  20593818.798      -42163.16249    -32499.49049  20593819.0724   20593824.2734
  21979008.263      244976.62549    189610.50949  21979009.4374   21979013.9754
  21336232.023     1452831.32549   1122082.95849  21336231.6144   21336237.3554
  24345826.456     2196983.06349   1694609.85349  24345828.0254   24345833.5094
 96  4 20 16  5 30.0000000  0  8 16  2  3 27 19 31 18 29
  23888441.583     -516754.09149   -398487.19149  23888442.1754   23888448.7964
  22479242.161    -1468334.60549  -1132396.94649  22479243.1074   22479249.0984
  24375069.469     1431348.92349   1106011.29449  24375068.9574   24375075.7444
  21445036.665    -1224268.89949   -944318.78049  21445036.6424   21445041.3494
  20593422.776      -44243.89549    -34120.84449  20593423.0074   20593428.1464
  21982027.300      260833.98149    201966.88449  21982027.0704   21982032.0634
  21349662.570     1523413.69849   1177082.18049  21349662.9744   21349668.7594
  24365322.400     2299438.31249   1774445.01649  24365324.2894   24365330.4814
 96  4 20 16  6  0.0000000  0  8 16  2  3 27 19 31 18 29
  23884717.744     -536326.66749   -413738.55249  23884717.6134   23884724.2034
  22466946.888    -1532953.36749  -1182749.22149  22466946.3844   22466952.4724
  24387665.682     1497543.26549   1157591.26249  24387665.2684   24387671.6154
  21434423.777    -1280037.96749   -987775.19749  21434423.9324   21434428.8574
  20593039.041      -46259.70049    -35691.60949  20593039.2724   20593044.4754
  21985134.492      277160.95149    214689.19049  21985133.9064   21985138.6844
  21363146.541     1594268.88049   1232293.98149  21363146.5984   21363151.8084
  24384812.994     2401862.62849   1854256.07349  24384814.7354   24384821.5224
 96  4 20 16  6 30.0000000  0  8 16  2  3 27 19 31 18 29
  23881068.296     -555497.58349   -428676.93349  23881069.3954   23881076.5324
  22454684.276    -1597389.45849  -1232959.15749  22454684.5054   22454690.4674
  24400322.770     1564054.28949   1209418.01649  24400322.3074   24400328.4254
  21423815.609    -1335782.66449  -1031212.62049  21423815.8004   21423821.0394
  20592672.884      -48184.00749    -37191.07949  20592673.3964   20592678.4054
  21988330.276      293958.57649    227778.24149  21988330.7064   21988335.2044
  21376679.850     1665389.81849   1287712.86549  21376680.3034   21376686.1454
  24404305.342     2504280.26549   1934061.92949  24404304.5974   24404310.8504
 96  4 20 16  7  0.0000000  0  8 16  2  3 27 19 31 18 29
  23877505.167     -574226.51549   -443270.92449  23877504.9344   23877510.4864
  22442464.617    -1661608.12349  -1282999.67249  22442464.2794   22442469.9694
  24413043.643     1630905.06649   1261509.50949  24413043.7804   24413050.2374
  21413217.487    -1391478.77149  -1074612.17749  21413217.1094   21413222.4744
  20592335.820      -49955.16849    -38571.21349  20592336.2764   20592340.9104
  21991626.186      311277.84049    241273.76649  21991625.6534   21991630.6814
  21390272.944     1736817.77649   1343370.98549  21390272.6794   21390278.3514
  24423802.386     2606745.10149   2013904.57149  24423802.6994   24423809.0484
 96  4 20 16  7 30.0000000  0  8 16  2  3 27 19 31 18 29
  23874021.662     -592526.58149   -457530.72949  23874021.4984   23874029.6864
  22430281.416    -1725627.57249  -1332884.95249  22430281.9994   22430287.2604
  24425825.238     1698080.59749   1313854.04849  24425826.7134   24425833.7034
  21402626.794    -1447131.23549  -1117977.73149  21402626.9974   21402632.5814
  20592028.018      -51573.41649    -39832.19249  20592028.3484   20592033.4504
  21995021.079      329119.75749    255176.54549  21995021.3404   21995026.2384
  21403922.945     1808549.38349   1399265.70849  21403922.9434   21403928.6564
  24443308.145     2709251.76249   2093779.78949  24443308.8734   24443315.1084
 96  4 20 16  8  0.0000000  0  8 16  2  3 27 19 31 18 29
  23870616.125     -610434.46649   -471484.91749  23870615.5254   23870621.0254
  22418133.942    -1789462.54749  -1382626.48549  22418134.2584   22418140.0004
  24438664.193     1765543.66649   1366422.66049  24438664.4314   24438671.4864
  21392037.035    -1502780.70449  -1161340.95549  21392037.3154   21392042.3554
  20591744.866      -53061.63749    -40991.85349  20591745.1064   20591750.0964
  21998510.814      347460.16349    269467.76949  21998511.2114   21998516.2814
  21417625.100     1880555.27949   1455374.16749  21417625.2494   21417630.8674
  24462822.284     2811798.12549   2173685.95049  24462823.6734   24462829.6944
 96  4 20 16  8 30.0000000  0  8 16  2  3 27 19 31 18 29
  23867277.093     -627976.63749   -485154.14349  23867276.7474   23867283.6544
  22406016.501    -1853145.50349  -1432249.56149  22406016.0594   22406021.8684
  24451551.515     1833259.99249   1419188.59649  24451550.4054   24451557.8134
  21381443.021    -1558455.05349  -1204723.56749  21381442.9354   21381447.9044
  20591483.139      -54439.17149    -42065.27049  20591482.9714   20591488.2334
  22002092.271      366276.91849    284130.17049  22002092.2754   22002097.1684
  21431380.085     1952835.23649   1511696.18149  21431379.7834   21431385.1384
  24482344.833     2914377.50149   2253617.83149  24482343.9894   24482350.4994
 96  4 20 16  9  0.0000000  0  8 16  2  3 27 19 31 18 29
  23864020.051     -645093.51149   -498491.97549  23864019.0494   23864025.7864
  22393931.565    -1916650.14049  -1481733.68749  22393931.4594   22393937.1864
  24464496.514     1901284.97349   1472195.05149  24464494.9764   24464502.0624
  21370857.042    -1614083.93949  -1248070.75749  21370856.8054   21370862.1214
  20591249.299      -55663.31449    -43019.15149  20591250.1934   20591255.2804
  22005771.950      385616.35049    299199.84349  22005772.2304   22005776.9154
  21445195.791     2025441.55249   1568272.50249  21445196.3154   21445201.7994
  24501876.138     3017024.31749   2333602.26649  24501877.4464   24501883.3154
 96  4 20 16  9 30.0000000  0  8 16  2  3 27 19 31 18 29
  23860847.440     -661764.76449   -511482.56849  23860846.5914   23860853.5634
  22381882.138    -1979972.75649  -1531075.97549  22381881.0644   22381887.2784
  24477502.776     1969635.14649   1525454.89549  24477502.1144   24477508.7304
  21360282.831    -1669651.97849  -1291370.53249  21360282.4434   21360287.9664
  20591044.812      -56742.77249    -43860.29249  20591044.4814   20591049.5294
  22009551.632      405473.77849    314673.15549  22009550.9954   22009555.9004
  21459076.103     2098382.31349   1625109.43149  21459076.4164   21459082.0764
  24521422.059     3119737.72049   2413638.58249  24521422.9574   24521428.5294
 96  4 20 16 10  0.0000000  0  8 16  2  3 27 19 31 18 29
  23857762.664     -677969.23249   -524109.44349  23857762.7614   23857769.4194
  22369868.560    -2043099.46649  -1580265.61349  22369868.7414   22369874.5154
  24490572.742     2038323.68649   1578978.38849  24490572.6884   24490580.1834
  21349721.072    -1725151.26049  -1334616.72149  21349721.3874   21349726.8124
  20590867.304      -57671.22649    -44583.76849  20590867.7584   20590873.0064
  22013428.286      425846.34149    330547.86949  22013427.8994   22013432.7314
  21473022.651     2171668.11849   1682215.22349  21473022.4444   21473027.7944
  24540984.277     3222532.85149   2493738.58449  24540984.5044   24540990.4314
 96  4 20 16 10 30.0000000  0  8 16  2  3 27 19 31 18 29
  23854769.677     -693699.03349   -536366.44049  23854770.2344   23854777.7464
  22357889.258    -2106051.14049  -1629318.85749  22357889.6184   22357895.1254
  24503704.195     2107325.19249   1632745.77149  24503703.6844   24503710.2224
  21339175.945    -1780566.99549  -1377797.81549  21339175.9954   21339181.7074
  20590720.273      -58446.08849    -45187.56749  20590720.6914   20590725.6894
  22017402.376      446729.28849    346820.28649  22017402.0964   22017406.6034
  21487029.543     2245279.74549   1739574.90449  21487030.1104   21487035.6314
  24560556.525     3325390.52949   2573887.31149  24560557.5794   24560564.0044
 96  4 20 16 11  0.0000000  0  8 16  2  3 27 19 31 18 29
  23851873.637     -708930.43449   -548235.07149  23851872.3794   23851879.5344
  22345947.679    -2168806.61249  -1678219.21549  22345947.6294   22345953.5054
  24516893.755     2176651.06449   1686765.89449  24516895.9204   24516902.6824
  21328651.972    -1835871.54249  -1420892.26349  21328652.1034   21328657.6934
  20590607.114      -59039.10849    -45649.66249  20590607.6044   20590613.1054
  22021477.673      468147.17549    363509.53649  22021477.6254   22021482.5594
  21501098.511     2319211.48449   1797184.02549  21501098.7964   21501104.6184
  24580143.202     3428315.20749   2654088.26149  24580144.6474   24580148.4504
 96  4 20 16 11 30.0000000  0  8 16  2  3 27 19 31 18 29
  23849069.321     -723659.37849   -559712.17349  23849069.4764   23849075.5734
  22334050.621    -2231325.42249  -1726935.16549  22334050.7304   22334056.2634
  24530153.139     2246305.01949   1741041.67449  24530151.2204   24530157.6784
  21318150.447    -1891058.14249  -1463894.80649  21318150.7064   21318155.9384
  20590533.765      -59428.81649    -45953.33949  20590533.6234   20590538.5614
  22025660.953      490128.57349    380637.88949  22025660.3524   22025665.2524
  21515232.821     2393489.65049   1855063.08549  21515233.4304   21515239.0534
  24599749.231     3531336.40749   2734364.40749  24599748.1034   24599753.5544
 96  4 20 16 12  0.0000000  0  8 16  2  3 27 19 31 18 29
  23846355.671     -737913.75049   -570819.47649  23846357.2134   23846364.2994
  22322196.402    -2293618.25249  -1775475.02949  22322196.7794   22322202.5124
  24543465.866     2316272.97649   1795562.12749  24543466.0624   24543471.8664
  21307669.209    -1946135.78949  -1506812.45549  21307669.8654   21307674.8394
  20590497.287      -59620.22649    -46102.49549  20590497.2984   20590502.1874
  22029951.695      512675.07349    398206.57549  22029951.2434   22029955.2944
  21529430.964     2468101.50449   1913202.16849  21529431.4204   21529437.6404
  24619365.795     3634428.07249   2814695.48149  24619366.6694   24619371.2604
 96  4 20 16 12 30.0000000  0  8 16  2  3 27 19 31 18 29
  23843730.941     -751713.45549   -581572.50749  23843730.8834   23843736.1034
  22310386.435    -2355681.74549  -1823836.17849  22310385.9734   22310392.0964
  24556841.115     2386562.78849   1850333.38349  24556841.4394   24556847.1574
  21297212.115    -2001094.98749  -1549637.80349  21297211.3924   21297216.3244
  20590497.228      -59617.41449    -46100.31249  20590497.6644   20590502.8224
  22034350.485      535796.16849    416222.99749  22034350.7794   22034355.0804
  21543693.925     2543052.04149   1971605.15049  21543694.1614   21543700.2374
  24638992.474     3737574.66149   2895069.34449  24638993.1124   24638999.0574
 96  4 20 16 13  0.0000000  0  8 16  2  3 27 19 31 18 29
  23841193.231     -765054.81449   -591968.38749  23841192.0874   23841199.1304
  22298625.098    -2417484.47149  -1871994.13349  22298625.5184   22298631.5374
  24570287.303     2457217.91949   1905389.29249  24570286.4704   24570291.9504
  21286775.357    -2055937.77849  -1592372.44049  21286775.1254   21286780.0364
  20590534.772      -59422.18849    -45948.19549  20590535.0714   20590540.2284
  22038862.225      559503.62449    434696.32549  22038862.1234   22038866.6334
  21558026.337     2618370.62449   2030294.93149  21558026.8154   21558032.5194
  24658633.188     3840789.49849   2975496.37549  24658635.0854   24658639.9714
 96  4 20 16 13 30.0000000  0  8 16  2  3 27 19 31 18 29
  23838738.655     -777946.24449   -602013.66649  23838738.7454   23838745.6074
  22286913.955    -2479029.22749  -1919951.07849  22286914.0924   22286919.7144
  24583798.899     2528239.71549   1960730.91749  24583801.0154   24583807.9784
  21276359.307    -2110670.26249  -1635021.13049  21276359.8144   21276364.9324
  20590604.028      -59058.25649    -45664.62049  20590604.3574   20590609.1774
  22043485.535      583794.42249    453624.21349  22043484.7414   22043488.9724
  21572429.254     2694053.69449   2089268.72149  21572429.0294   21572435.0644
  24678287.419     3944067.71349   3055972.80249  24678288.0974   24678294.2804
 96  4 20 16 14  0.0000000  0  8 16  2  3 27 19 31 18 29
  23836377.695     -790352.95349   -611681.23549  23836377.7104   23836384.8954
  22275253.351    -2540307.97449  -1967700.74449  22275252.9964   22275258.6984
  24597390.742     2599652.65049   2016377.31949  24597390.0074   24597396.2694
  21265971.200    -2165263.00149  -1677560.92749  21265971.1684   21265976.6884
  20590708.539      -58508.15949    -45235.98249  20590708.9634   20590713.8054
  22048221.384      608680.15049    473015.67749  22048220.0974   22048225.4224
  21586900.556     2770104.29749   2148528.90449  21586901.0534   21586906.4954
  24697956.810     4047421.39049   3136508.01949  24697955.8194   24697961.5564
 96  4 20 16 14 30.0000000  0  8 16  2  3 27 19 31 18 29
  23834108.779     -802277.90649   -620973.42449  23834109.0474   23834115.5724
  22263639.268    -2601346.65249  -2015263.35049  22263638.2254   22263643.5494
  24611047.210     2671423.80649   2072302.85949  24611048.2374   24611055.4914
  21255603.627    -2219743.46549  -1720013.23549  21255603.9124   21255609.0534
  20590844.543      -57793.58549    -44679.18149  20590844.8584   20590849.6674
  22053060.952      634116.84349    492836.46949  22053060.8854   22053065.5864
  21601436.437     2846485.08649   2208046.37949  21601435.8784   21601441.5974
  24717636.847     4150845.03949   3217097.76649  24717637.1094   24717642.4714
 96  4 20 16 15  0.0000000  0  7 16  2  3 27 19 31 18
  23831937.081     -813690.29849   -629866.21449  23831936.4704   23831943.8824
  22252069.046    -2662140.99649  -2062635.56349  22252069.5194   22252074.5634
  24624768.373     2743534.35249   2128492.87149  24624769.8184   24624775.2974
  21245259.391    -2274103.85649  -1762371.98149  21245259.3394   21245264.2974
  20591015.796      -56892.13249    -43976.75549  20591016.3004   20591021.0364
  22058005.566      660100.38849    513083.37649  22058005.1204   22058010.0834
  21616033.893     2923198.92049   2267823.36049  21616034.1024   21616039.8064
 96  4 20 16 15 30.0000000  0  7 16  2  3 27 19 31 18
  23829864.558     -824579.21349   -638351.10349  23829865.2124   23829871.2874
  22240543.943    -2722700.40149  -2109824.70949  22240545.0864   22240550.6974
  24638557.234     2815975.19449   2184940.25749  24638555.3464   24638562.1854
  21234942.175    -2328323.87849  -1804621.35349  21234941.6954   21234946.4744
  20591228.720      -55773.70749    -43105.26249  20591229.4454   20591234.4694
  22063053.902      686634.15849    533759.02749  22063054.6434   22063059.0824
  21630695.559     3000245.12149   2327859.33449  21630695.1634   21630701.0974
 96  4 20 16 16  0.0000000  0  7 16  2  3 27 19 31 18
  23827891.494     -834944.58149   -646428.03049  23827892.0284   23827898.5694
  22229063.946    -2783034.55549  -2156838.32549  22229063.7454   22229069.4934
  24652399.305     2888731.80549   2241633.69949  24652399.5234   24652405.8254
  21224648.629    -2382410.83949  -1846767.03249  21224649.2014   21224654.2524
  20591485.624      -54425.80849    -42054.95749  20591485.6804   20591490.6624
  22068204.735      713696.91149    554846.87349  22068204.1824   22068208.6854
  21645422.218     3077630.83249   2388159.85949  21645421.6084   21645427.4364
 96  4 20 16 16 30.0000000  0  7 16  2  3 27 19 31 18
  23826018.987     -844781.59649   -654093.24349  23826020.3694   23826027.7234
  22217628.792    -2843127.22349  -2203663.77349  22217628.4384   22217634.5144
  24666307.758     2961810.51749   2298578.12349  24666306.1104   24666311.4964
  21214382.664    -2436361.87349  -1888806.80249  21214382.7114   21214387.4724
  20591788.257      -52835.44749    -40815.71849  20591788.4134   20591793.4074
  22073458.446      741305.47949    576360.03249  22073458.0024   22073462.4774
  21660215.908     3155374.22349   2448739.09449  21660215.2914   21660221.5394
 96  4 20 16 17  0.0000000  0  7 16  2  3 27 19 31 18
  23824242.709     -854118.05749   -661368.41549  23824243.7044   23824250.9624
  22206239.016    -2902976.37749  -2250299.47149  22206239.6584   22206245.6734
  24680271.456     3035217.00649   2355777.94649  24680274.6814   24680281.1474
  21204140.708    -2490182.32249  -1930744.81349  21204140.7824   21204146.2184
  20592133.818      -51016.95649    -39398.71749  20592134.6524   20592139.4934
  22078817.887      769470.78449    598307.01749  22078818.1554   22078822.6824
  21675079.593     3233486.43549   2509605.72349  21675079.8934   21675085.6444
 96  4 20 16 17 30.0000000  0  7 16  2  3 27 19 31 18
  23822565.435     -862938.75349   -668241.69449  23822565.1114   23822572.8334
  22194903.155    -2962551.76449  -2296721.84249  22194902.7944   22194908.8574
  24694311.800     3108990.36349   2413263.65449  24694313.8934   24694319.8394
  21193926.931    -2543856.69449  -1972568.99949  21193927.0094   21193932.3434
  20592526.311      -48957.79249    -37794.17749  20592526.5194   20592531.3504
  22084291.403      798232.17449    620718.48249  22084291.1344   22084295.2534
  21690019.294     3311992.47249   2570779.22349  21690019.1204   21690024.7384
 96  4 20 16 18  0.0000000  0  7 16  2  3 27 19 31 18
  23820982.860     -871250.97849   -674718.75949  23820982.9174   23820990.3864
  22183618.652    -3021852.74149  -2342930.39149  22183618.0114   22183624.0984
  24708420.882     3183118.73549   2471025.99749  24708419.9334   24708426.0284
  21183739.187    -2597396.43949  -2014288.28149  21183738.9584   21183744.5344
  20592957.702      -46687.60949    -36025.21349  20592958.2554   20592963.3734
  22089878.297      827591.44349    643595.82249  22089877.5394   22089881.8644
  21705029.784     3390872.98649   2632244.53049  21705029.7024   21705035.3954
 96  4 20 16 18 30.0000000  0  7 16  2  3 27 19 31 18
  23819495.057     -879073.53349   -680814.27549  23819494.7164   23819500.9654
  22172385.666    -3080879.68449  -2388925.40449  22172385.8414   22172392.1054
  24722592.659     3257597.67449   2529061.51449  24722593.2434   24722599.7034
  21173573.651    -2650815.77449  -2055913.72949  21173573.4724   21173579.2374
  20593427.784      -44223.55149    -34105.17549  20593427.4684   20593432.0214
  22095578.221      857545.93449    666936.97549  22095578.0694   22095582.6204
  21720105.273     3470095.30549   2693976.17549  21720105.3904   21720111.2074
 96  4 20 16 19  0.0000000  0  7 16  2  3 27 19 31 18
  23818094.517     -886428.12149   -686545.13949  23818095.6294   23818102.0164
  22161199.362    -3139662.97949  -2434730.55249  22161199.7354   22161205.7454
  24736826.378     3332408.70349   2587355.78549  24736828.6724   24736835.6094
  21163431.026    -2704118.16449  -2097448.05349  21163430.5244   21163436.0124
  20593929.132      -41584.67949    -32048.91249  20593929.5244   20593934.2364
  22101385.435      888063.32049    690716.74349  22101385.1134   22101389.4884
  21735241.389     3549635.27149   2755955.34349  21735241.1264   21735247.0054
 96  4 20 16 19 30.0000000  0  7 16  2  3 27 19 31 18
  23816792.685     -893276.51549   -691881.55649  23816792.3404   23816798.9794
  22150062.645    -3198188.34349  -2480334.72049  22150062.5864   22150068.7074
  24751129.059     3407561.08949   2645916.07049  24751129.7934   24751135.9444
  21153313.446    -2757283.03449  -2138875.22249  21153313.4954   21153319.1684
  20594469.229      -38745.63149    -29836.67449  20594469.5534   20594474.3824
  22107302.727      919157.92649    714946.29749  22107302.1044   22107306.8554
  21750438.425     3629498.92449   2818186.73249  21750438.8014   21750444.1464
 96  4 20 16 20  0.0000000  0  6 16  2 27 19 31 18
  23815587.351     -899608.04449   -696815.22549  23815587.3634   23815594.4534
  22138977.033    -3256439.29449  -2525725.05849  22138977.6954   22138983.9854
  21143226.157    -2810291.04349  -2180180.16049  21143226.4424   21143232.2634
  20595054.019      -35677.35449    -27445.81449  20595053.7424   20595058.5354
  22113328.509      950823.90049    739621.07649  22113328.2694   22113332.5724
  21765699.712     3709697.79549   2880679.32549  21765700.2674   21765705.7274
 96  4 20 16 20 30.0000000  0  6 16  2 27 19 31 18
  23814480.749     -905428.85049   -701350.93449  23814479.5594   23814486.7424
  22127946.685    -3314409.30749  -2570896.49049  22127946.3364   22127952.4764
  21133172.603    -2863126.55349  -2221350.68349  21133172.1304   21133177.7824
  20595685.234      -32356.92649    -24858.47649  20595685.4054   20595690.2984
  22119459.329      983042.29449    764726.30649  22119459.0004   22119463.4454
  21781028.669     3790246.27549   2943444.33949  21781027.9154   21781033.7664
 96  4 20 16 21  0.0000000  0  6 16  2 27 19 31 18
  23813465.690     -910757.20549   -705502.90749  23813466.0634   23813472.5474
  22116964.489    -3372120.69849  -2615866.39449  22116964.1664   22116970.5224
  21123148.340    -2915802.26649  -2262396.69249  21123148.3564   21123153.7924
  20596361.018      -28802.48149    -22088.78749  20596361.8044   20596366.7914
  22125690.879     1015793.23449    790246.51649  22125691.4944   22125696.1084
  21796421.847     3871141.26349   3006479.36549  21796421.9404   21796427.4704
 96  4 20 16 21 30.0000000  0  6 16  2 27 19 31 18
  23812547.062     -915590.40149   -709269.05149  23812546.6274   23812552.3194
  22106035.862    -3429546.83549  -2660614.02549  22106036.2194   22106042.5434
  21113154.519    -2968318.94649  -2303318.77749  21113154.7234   21113159.8024
  20597085.398      -24999.82349    -19125.67949  20597085.4674   20597090.4074
  22132027.641     1049091.42549    816193.14949  22132027.9234   22132032.3924
  21811881.742     3952387.79549   3069788.32249  21811882.4994   21811888.2494
 96  4 20 16 22  0.0000000  0  6 16  2 27 19 31 18
  23811717.538     -919941.13149   -712659.25549  23811717.8884   23811725.2374
  22095163.461    -3486687.30549  -2705139.05649  22095163.0324   22095169.1484
  21103193.431    -3020663.76449  -2344106.94749  21103193.6864   21103199.1494
  20597855.191      -20952.08649    -15971.60649  20597855.5734   20597860.8514
  22138465.958     1082926.47249    842558.10949  22138466.5054   22138471.1674
  21827408.326     4033976.86749   3133364.18949  21827408.4794   21827414.5914
 96  4 20 16 22 30.0000000  0  6 16  2 27 19 31 18
  23810979.965     -923816.75249   -715679.24849  23810979.6484   23810987.1014
  22084340.195    -3543563.81049  -2749458.39849  22084339.8184   22084346.4364
  21093263.244    -3072845.33749  -2384767.91049  21093263.7714   21093269.3684
  20598666.542      -16689.30749    -12649.96349  20598666.7124   20598672.2144
  22145008.665     1117306.85649    869348.01449  22145009.1864   22145013.7104
  21842997.019     4115897.04649   3197198.06449  21842997.2604   21843002.8624
 96  4 20 16 23  0.0000000  0  6 16  2 27 19 31 18
  23810338.297     -927195.56449   -718312.10649  23810337.8724   23810344.7964
  22073569.302    -3600166.74749  -2793564.56749  22073568.4384   22073575.0294
  21083365.217    -3124861.17349  -2425299.72149  21083365.8024   21083370.9034
  20599519.798      -12206.61449     -9156.96049  20599519.9504   20599525.0704
  22151662.905     1152268.59049    896590.91649  22151662.1654   22151667.0824
  21858650.556     4198152.34749   3261293.06749  21858650.4104   21858656.0174
 96  4 20 16 23 30.0000000  0  6 16  2 27 19 31 18
  23809791.044     -930073.30249   -720554.52649  23809790.5424   23809797.8984
  22062847.683    -3656505.63749  -2837464.98749  22062847.5464   22062853.4454
  21073499.129    -3176711.46249  -2465702.54649  21073499.0184   21073503.9824
  20600414.082       -7508.84149     -5496.36049  20600414.1634   20600419.0284
  22158423.941     1187804.67349    924281.36349  22158424.0694   22158429.2234
  21874364.429     4280731.60249   3325640.50149  21874364.2824   21874370.1234
 96  4 20 16 24  0.0000000  0  6 16  2 27 19 31 18
  23809338.309     -932447.19849   -722404.34149  23809339.1594   23809344.5684
  22052172.320    -3712604.52049  -2881178.38849  22052172.3964   22052178.5074
  21063661.434    -3228407.21349  -2505984.94749  21063661.5974   21063666.6074
  20601346.629       -2609.03649     -1678.33349  20601346.5794   20601351.3144
  22165294.797     1223909.44349    952414.93849  22165294.6524   22165299.7844
  21890140.485     4363633.85249   3390239.62249  21890140.1794   21890145.9764
 96  4 20 16 24 30.0000000  0  6 16  2 27 19 31 18
  23808982.611     -934315.31849   -723860.01749  23808982.6894   23808990.4404
  22041542.373    -3768471.90749  -2924711.41049  22041541.3314   22041547.0784
  21053849.953    -3279967.69649  -2546161.94549  21053849.9114   21053854.7064
  20602316.424        2493.38449      2297.57049  20602317.2534   20602322.1474
  22172275.597     1260590.89949    980997.88249  22172274.6474   22172279.5424
  21905977.857     4446861.12049   3455091.99949  21905977.6674   21905983.3704
 96  4 20 16 25  0.0000000  0  6 16  2 27 19 31 18
  23808724.729     -935673.03149   -724917.98149  23808724.2514   23808730.5754
  22030957.775    -3824090.76649  -2968050.77049  22030957.3614   22030962.7724
  21044065.211    -3331383.59749  -2586226.27749  21044065.6364   21044070.8794
  20603330.758        7816.73349      6445.62749  20603330.5524   20603335.1804
  22179364.794     1297845.85249   1010027.71349  22179364.0324   22179368.9514
  21921879.267     4530418.34549   3520201.49549  21921877.9994   21921884.1734
 96  4 20 16 25 30.0000000  0  6 16  2 27 19 31 18
  23808563.166     -936520.12249   -725578.08649  23808562.7344   23808570.2024
  22020420.198    -3879462.55349  -3011197.61149  22020420.4984   22020426.2084
  21034309.551    -3382653.08349  -2626176.52449  21034309.4094   21034315.0114
  20604384.109       13355.94649     10761.88849  20604384.7084   20604389.5024
  22186559.980     1335658.60649   1039492.19149  22186559.7984   22186564.0124
  21937843.023     4614312.57349   3585573.58449  21937842.8744   21937848.5434
 96  4 20 16 26  0.0000000  0  6 16  2 27 19 31 18
  23808498.377     -936862.33149   -725844.77949  23808497.3474   23808504.7604
  22009932.461    -3934575.99949  -3054143.14449  22009932.6774   22009938.3064
  21024582.722    -3433768.05949  -2666006.36849  21024582.5534   21024587.8464
  20605482.649       19127.11849     15258.89849  20605482.7844   20605487.8214
  22193863.788     1374039.10549   1069399.06749  22193863.2514   22193867.5434
  21953872.028     4698546.81149   3651210.62549  21953872.3824   21953878.0034
 96  4 20 16 26 30.0000000  0  6 16  2 27 19 31 18
  23808528.337     -936704.48849   -725721.78749  23808528.4424   23808535.3294
  21999497.528    -3989414.08449  -3096874.11449  21999497.3454   21999502.9374
  21014887.694    -3484711.38749  -2705702.46449  21014888.1964   21014893.5584
  20606629.364       25148.56949     19950.93149  20606628.8534   20606633.8994
  22201276.255     1412991.92749   1099751.90749  22201275.5954   22201280.5314
  21969966.029     4783122.82449   3717113.97649  21969966.7094   21969972.4274
 96  4 20 16 27  0.0000000  0  6 16  2 27 19 31 18
  23808650.489     -936066.02549   -725224.31449  23808649.7164   23808656.3154
  21989114.843    -4043978.52949  -3139391.85749  21989114.0814   21989119.9664
  21005227.506    -3535479.99849  -2745262.42049  21005227.6084   21005232.9574
  20607821.085       31414.93849     24833.80549  20607821.1914   20607826.5174
  22208792.091     1452491.46049   1130530.75549  22208792.2154   22208797.1204
  21986123.486     4868028.02649   3783273.84249  21986123.7944   21986129.3804
 96  4 20 16 27 30.0000000  0  6 16  2 27 19 31 18
  23808863.573     -934943.54249   -724349.66849  23808863.6414   23808870.6624
  21978781.159    -4098274.29749  -3181700.23449  21978781.7224   21978787.6194
  20995600.222    -3586072.86449  -2784685.43349  20995600.1054   20995605.6324
  20609060.600       37929.34449     29909.96449  20609061.1924   20609066.4434
  22216413.048     1492539.61049   1161737.09749  22216413.3244   22216417.7874
  22002341.079     4953251.43849   3849681.66149  22002341.0334   22002346.9244
 96  4 20 16 28  0.0000000  0  6 16  2 27 19 31 18
  23809165.310     -933358.61149   -723114.67049  23809164.5634   23809171.8244
  21968501.596    -4152302.75249  -3223800.31849  21968500.6924   21968506.2614
  20986003.474    -3636505.57949  -2823983.65349  20986002.9814   20986008.3674
  20610346.000       44687.29249     35175.89349  20610347.0284   20610352.1924
  22224137.659     1533127.58649   1193364.08049  22224137.2814   22224141.9934
  22018613.716     5038763.83449   3916314.66849  22018613.1484   22018619.2044
 96  4 20 16 28 30.0000000  0  6 16  2 27 19 31 18
  23809556.254     -931303.55349   -721513.35549  23809556.0374   23809563.2454
  21958270.709    -4206060.93249  -3265689.79549  21958270.7644   21958276.4124
  20976435.450    -3686781.98449  -2863160.06649  20976435.6504   20976441.0884
  20611677.168       51678.31449     40623.43849  20611677.3774   20611682.7914
  22231962.668     1574249.15349   1225406.86349  22231961.9064   22231966.5354
  22034939.433     5124562.00349   3983170.35049  22034940.3334   22034946.4854
 96  4 20 16 29  0.0000000  0  6 16  2 27 19 31 18
  23810038.424     -928769.12049   -719538.50049  23810037.5724   23810047.3884
  21948090.490    -4259558.37849  -3307376.11249  21948090.6264   21948096.0944
  20966897.059    -3736907.47949  -2902218.89049  20966897.1274   20966902.4834
  20613049.987       58893.19849     46245.42149  20613050.2604   20613055.3844
  22239888.309     1615901.10349   1257862.92249  22239888.0444   22239893.0634
  22051320.211     5210647.63649   4050250.02549  22051321.6714   22051328.0884
 96  4 20 16 29 30.0000000  0  6 16  2 27 19 31 18
  23810617.501     -925723.24349   -717165.10149  23810617.9124   23810624.8704
  21937961.995    -4312785.55149  -3348851.81749  21937961.8344   21937967.3724
  20957391.583    -3786859.86849  -2941142.83049  20957391.4924   20957396.5074
  20614467.803       66344.97449     52051.99349  20614468.4174   20614473.1794
  22247918.600     1658109.30049   1290752.41849  22247919.8144   22247924.3924
  22067761.101     5297043.57749   4117571.50749  22067762.2964   22067768.5244
 96  4 20 16 30  0.0000000  0  6 16  2 27 19 31 18
  23811292.817     -922177.90849   -714402.52549  23811292.5484   23811299.9614
  21927881.625    -4365753.05449  -3390125.18649  21927882.3504   21927888.1064
  20947919.140    -3836633.60949  -2979927.55949  20947919.5954   20947925.1664
  20615930.547       74031.21949     58041.27049  20615930.8304   20615935.8934
  22256054.778     1700858.67749   1324063.62749  22256055.0194   22256058.9944
  22084264.808     5383761.02849   4185143.51649  22084264.0664   22084270.6004
 96  4 20 16 30 30.0000000  0  6 16  2 27 19 31 18
  23812064.704     -918126.64149   -711245.70349  23812063.8414   23812070.3344
  21917849.522    -4418476.29149  -3431208.21849  21917849.2124   21917855.2784
  20938483.389    -3886219.50549  -3018565.91949  20938483.6694   20938488.9694
  20617438.996       81958.66049     64218.49049  20617439.3004   20617444.7594
  22264292.911     1744149.80849   1357796.96649  22264292.9764   22264297.4154
  22100830.416     5470811.52649   4252975.03849  22100829.7564   22100836.0294
 96  4 20 16 31  0.0000000  0  6 16  2 27 19 31 18
  23812926.431     -913590.87049   -707711.34349  23812926.9434   23812934.3194
  21907860.277    -4470969.54749  -3472112.04449  21907860.0944   21907866.1484
  20929084.972    -3935610.99249  -3057052.78649  20929085.0784   20929089.8504
  20618992.848       90123.34749     70580.57749  20618993.0224   20618998.3594
  22272631.676     1787967.43449   1391940.56949  22272631.6744   22272636.0414
  22117454.788     5558175.98749   4321051.20349  22117454.5634   22117460.5054
 96  4 20 16 31 30.0000000  0  6 16  2 27 19 31 18
  23813878.537     -908591.99949   -703816.15749  23813878.0844   23813885.4824
  21897916.655    -4523224.78349  -3512830.39949  21897916.3214   21897922.2214
  20919722.276    -3984809.98149  -3095389.66049  20919722.5864   20919727.7634
  20620592.770       98533.63249     77134.04149  20620593.3364   20620598.5454
  22281066.246     1832302.58749   1426487.43449  22281068.0244   22281072.4274
  22134133.999     5645830.15649   4389353.10749  22134134.4714   22134140.8164
 96  4 20 16 32  0.0000000  0  6 16  2 27 19 31 18
  23814918.268     -903131.61549   -699561.32549  23814917.3844   23814924.7354
  21888023.812    -4575214.80149  -3553342.09449  21888023.2904   21888028.9864
  20910398.320    -4033809.53049  -3133571.12649  20910398.0654   20910403.6034
  20622243.824      107208.34249     83893.54949  20622244.2414   20622249.3274
  22289604.473     1877171.43149   1461450.16549  22289606.3384   22289610.2814
  22150869.512     5733772.10649   4457879.26549  22150869.4954   22150874.9624
 96  4 20 16 32 30.0000000  0  6 16  2 27 19 31 18
  23816042.440     -897222.04249   -694956.48049  23816041.8884   23816049.5244
  21878179.507    -4626943.31849  -3593650.02349  21878179.4034   21878185.2804
  20901107.184    -4082634.62849  -3171616.65549  20901107.1104   20901112.5344
  20623941.081      116126.13749     90842.47849  20623941.2194   20623946.3464
  22298245.082     1922565.12949   1496821.87449  22298244.1574   22298248.8714
  22167651.471     5821962.49649   4526599.01749  22167651.7724   22167657.8374
 96  4 20 16 33  0.0000000  0  6 16  2 27 19 31 18
  23817255.078     -890850.48449   -689991.64449  23817254.9134   23817260.7664
  21868390.812    -4678383.90249  -3633733.58949  21868390.8524   21868396.3444
  20891851.984    -4131269.13449  -3209513.66849  20891852.5124   20891857.6854
  20625687.153      125302.03449     97992.52049  20625687.1344   20625692.1304
  22306985.990     1968499.26649   1532614.70049  22306985.6794   22306989.8764
  22184481.137     5910404.05649   4595514.47749  22184481.4604   22184487.6784
 96  4 20 16 33 30.0000000  0  6 16  2 27 19 31 18
  23818561.923     -883983.61349   -684640.85849  23818561.2594   23818568.5774
  21858663.146    -4729504.14349  -3673567.53049  21858662.8824   21858669.0414
  20882633.285    -4179712.51649  -3247261.75249  20882633.8954   20882639.0794
  20627484.163      134750.47249    105354.93149  20627485.4074   20627490.0314
  22315836.774     2015011.67849   1568858.12349  22315836.3434   22315841.1034
  22201364.163     5999121.34649   4664644.79449  22201364.0284   22201369.9474
 96  4 20 16 34  0.0000000  0  6 16  2 27 19 31 18
  23819968.212     -876594.94249   -678883.46249  23819967.1584   23819973.7934
  21848998.408    -4780293.33949  -3713143.52549  21848998.1724   21849004.2274
  20873455.165    -4227949.03249  -3284848.64349  20873454.8134   20873460.1504
  20629333.159      144463.00849    112923.13549  20629333.7464   20629338.6914
  22324800.714     2062122.44649   1605567.80349  22324801.0354   22324805.4504
  22218306.604     6088152.26149   4734019.48749  22218306.1314   22218311.9524
 96  4 20 16 34 30.0000000  0  6 16  2 27 19 31 18
  23821469.457     -868700.32149   -672731.83349  23821469.3334   23821476.2404
  21839390.874    -4830782.64649  -3752485.83449  21839390.4434   21839396.3144
  20864310.610    -4276003.76949  -3322293.89049  20864310.5334   20864315.5684
  20631226.450      154413.29949    120676.60149  20631227.2504   20631231.8144
  22333872.923     2109794.42849   1642714.79549  22333872.9304   22333876.7414
  22235305.609     6177482.12449   4803627.13449  22235305.0184   22235310.7984
 96  4 20 16 35  0.0000000  0  6 16  2 27 19 31 18
  23823065.542     -860315.90449   -666198.54449  23823065.6924   23823072.2164
  21829835.858    -4880992.50049  -3791610.38849  21829835.9354   21829841.8214
  20855198.551    -4323888.88149  -3359606.95949  20855198.1794   20855203.3644
  20633161.717      164581.10749    128599.56249  20633161.9694   20633166.6464
  22343047.316     2158007.33649   1680283.28249  22343047.3514   22343051.5334
  22252362.593     6267113.17849   4873469.47849  22252361.0674   22252366.6294
 96  4 20 16 35 30.0000000  0  6 16  2 27 19 31 18
  23824754.363     -851443.04849   -659284.65849  23824753.3834   23824762.0054
  21820331.317    -4930937.22649  -3830528.34949  21820331.8364   21820337.5104
  20846119.750    -4371596.43849  -3396781.67349  20846119.7244   20846124.9674
  20635134.053      174950.35249    136679.48749  20635134.9154   20635139.9674
  22352321.692     2206742.68949   1718258.87349  22352321.2064   22352325.8774
  22269475.746     6357050.77549   4943550.68849  22269475.5484   22269481.5864
 96  4 20 16 36  0.0000000  0  6 16  2 27 19 31 18
  23826535.128     -842074.97849   -651984.88249  23826536.3084   23826543.2364
  21810874.455    -4980634.84549  -3869253.75649  21810874.5024   21810880.1644
  20837079.788    -4419101.73149  -3433798.77749  20837079.7084   20837085.1454
  20637151.350      185546.16549    144935.96249  20637151.7604   20637156.6524
  22361692.153     2255987.70849   1756631.60649  22361693.2654   22361697.0894
  22286650.039     6447304.62149   5013878.31949  22286650.5074   22286656.5164
 96  4 20 16 36 30.0000000  0  6 16  2 27 19 31 18
  23828408.743     -832236.44549   -644318.51749  23828408.3804   23828413.9184
  21801459.381    -5030114.13949  -3907809.04649  21801458.8174   21801464.5854
  20828077.190    -4466413.15849  -3470664.82049  20828077.0774   20828081.5614
  20639212.105      196374.56149    153373.66749  20639212.1414   20639216.6434
  22371155.913     2305721.53549   1795385.23149  22371156.8794   22371161.1924
  22303877.605     6537833.78549   5084420.48049  22303877.3734   22303883.7724
 96  4 20 16 37  0.0000000  0  6 16  2 27 19 31 18
  23830372.203     -821921.19449   -636280.68649  23830371.6594   23830377.9564
  21792088.407    -5079360.76449  -3946183.02949  21792087.3974   21792093.2194
  20819116.331    -4513501.43549  -3507356.98149  20819116.1374   20819121.0994
  20641321.016      207460.21949    162011.83949  20641321.7804   20641326.4524
  22380719.502     2355965.66049   1834536.49249  22380717.9384   22380722.7174
  22321158.374     6628651.69849   5155187.64849  22321159.7484   22321166.0354
 96  4 20 16 37 30.0000000  0  6 16  2 27 19 31 18
  23832424.267     -811136.94449   -627877.40749  23832423.2874   23832430.5184
  21782758.647    -5128381.21249  -3984380.77149  21782758.8554   21782765.0974
  20810193.886    -4560387.11449  -3543891.27149  20810194.3034   20810199.1674
  20643480.002      218801.88349    170849.49549  20643479.6384   20643484.8924
  22390374.881     2406708.60949   1874076.45049  22390374.2044   22390378.5944
  22338492.943     6719743.25749   5226168.03849  22338493.6694   22338500.0704
 96  4 20 16 38  0.0000000  0  6 16  2 27 19 31 18
  23834558.139     -799918.82249   -619136.02749  23834558.4934   23834565.4374
  21773470.937    -5177188.76449  -4022412.62349  21773471.0794   21773476.9874
  20801303.240    -4607109.04949  -3580297.97249  20801303.2674   20801308.4934
  20645683.235      230382.66549    179873.47249  20645683.4264   20645688.7434
  22400123.661     2457937.45249   1913995.02149  22400122.4834   22400126.8604
  22355874.792     6811081.18049   5297340.40249  22355875.1734   22355881.2684
 96  4 20 16 38 30.0000000  0  6 16  2 27 19 31 18
  23836781.592     -788238.18549   -610034.27049  23836780.7244   23836787.4954
  21764237.496    -5225714.80249  -4060225.11049  21764236.8254   21764243.2774
  20792452.316    -4653622.18349  -3616541.97049  20792451.9274   20792457.2994
  20647938.238      242234.68449    189108.80449  20647938.7494   20647943.8294
  22409970.370     2509696.08249   1954326.41449  22409972.3204   22409976.5834
  22373309.894     6902704.89649   5368735.45649  22373310.5764   22373317.0344
 96  4 20 16 39  0.0000000  0  6 16  2 27 19 31 18
  23839091.691     -776094.80449   -600571.90649  23839092.0204   23839097.9524
  21755057.330    -5273954.27049  -4097814.29449  21755057.1204   21755063.2554
  20783637.288    -4699943.15549  -3652636.23749  20783637.1844   20783642.3834
  20650243.304      254346.93449    198546.91449  20650243.7114   20650248.7374
  22419921.510     2561982.69449   1995069.21949  22419921.5754   22419926.3704
  22390802.209     6994624.73249   5440361.25949  22390801.8734   22390808.5264
 96  4 20 16 39 30.0000000  0  7 16  2 27 19 31 18  7
  23841494.014     -763478.24849   -590740.86049  23841492.7584   23841500.8784
  21745931.840    -5321907.33849  -4135180.30849  21745932.0484   21745938.1234
  20774857.847    -4746074.63649  -3688582.84349  20774858.6674   20774864.0134
  20652595.423      266710.40749    208180.78349  20652596.4924   20652601.2514
  22429972.296     2614802.55349   2036227.54049  22429973.0244   22429978.1114
  22408348.370     7086831.72749   5512210.82249  22408348.4154   22408355.4374
  24586463.292    -3692148.47059  -2864342.48459  24586463.8064   24586471.0844
 96  4 20 16 40  0.0000000  0  7 16  2 27 19 31 18  7
  23843980.627     -750408.14349   -580556.39449  23843980.2464   23843985.9754
  21736858.245    -5369590.84149  -4172336.26949  21736858.3634   21736864.0884
  20766119.461    -4791999.22549  -3724368.23249  20766119.5474   20766124.5984
  20654997.668      279328.37049    218012.95649  20654997.8324   20655002.7654
  22440124.831     2668144.58949   2077792.75849  22440123.3124   22440128.5734
  22425945.492     7179305.67749   5584268.41049  22425946.0154   22425952.3464
  24564896.633    -3805482.51749  -2952654.66949  24564896.0064   24564903.7164
 96  4 20 16 40 30.0000000  0  7 16  2 27 19 31 18  7
  23846557.360     -736872.13549   -570008.88349  23846555.9554   23846562.4064
  21727836.437    -5417001.82549  -4209279.88349  21727836.3834   21727842.2004
  20757420.114    -4837713.58949  -3759989.81449  20757420.3374   20757425.5604
  20657449.110      292212.09049    228052.20849  20657449.4044   20657454.6494
  22450373.879     2722014.31549   2119769.15549  22450374.7744   22450379.9844
  22443595.467     7272055.24949   5656540.76349  22443595.6194   22443602.0054
  24543319.478    -3918870.69349  -3041009.04449  24543319.0614   24543326.8004
 96  4 20 16 41  0.0000000  0  7 16  2 27 19 31 18  7
  23849221.375     -722863.33049   -559092.96849  23849220.7344   23849228.9724
  21718861.717    -5464164.54049  -4246030.04049  21718861.5484   21718867.1784
  20748757.076    -4883238.54149  -3795463.79449  20748757.3424   20748762.6374
  20659949.173      305350.90849    238290.24249  20659949.8034   20659955.2384
  22460723.305     2776396.05649   2162144.52249  22460723.1324   22460728.4814
  22461294.944     7365070.19349   5729019.90149  22461295.6014   22461301.8674
  24521731.756    -4032313.39549  -3129405.90249  24521731.8764   24521739.1204
 96  4 20 16 41 30.0000000  0  7 16  2 27 19 31 18  7
  23851973.809     -708401.41249   -547823.96149  23851973.8574   23851981.3534
  21709931.289    -5511092.38649  -4282597.17949  21709931.4604   21709937.4814
  20740128.521    -4928583.00949  -3830797.14649  20740128.3164   20740133.7314
  20662494.420      318723.01049    248710.05449  20662494.3444   20662499.8274
  22471162.049     2831253.79249   2204890.80549  22471162.1844   22471167.4764
  22479039.629     7458317.30349   5801679.94249  22479039.5334   22479046.3634
  24500137.130    -4145790.65749  -3217829.70249  24500137.9834   24500145.1764
 96  4 20 16 42  0.0000000  0  7 16  2 27 19 31 18  7
  23854813.802     -693477.00549   -536194.57049  23854812.8244   23854820.2964
  21701052.729    -5557751.79649  -4318955.14849  21701052.2574   21701058.1714
  20731536.325    -4973733.25849  -3865979.16049  20731536.7364   20731541.9064
  20665088.168      332356.49749    259333.54449  20665088.4604   20665093.9794
  22481693.141     2886590.44249   2248010.25849  22481692.6654   22481697.4984
  22496832.675     7551820.46349   5874539.50549  22496833.1174   22496839.4574
  24478543.906    -4259268.39649  -3306253.87049  24478543.9814   24478551.3414
 96  4 20 16 42 30.0000000  0  7 16  2 27 19 31 18  7
  23857743.585     -678076.09349   -524193.89249  23857744.2654   23857751.9434
  21692226.960    -5604128.24049  -4355092.63249  21692227.0924   21692232.8894
  20722980.625    -5018695.57649  -3901014.72749  20722980.6194   20722985.9744
  20667733.325      346255.49349    270163.92349  20667733.6584   20667738.7614
  22492316.396     2942418.64349   2291512.73249  22492316.5204   22492321.3644
  22514677.021     7645591.18749   5947607.56049  22514677.1924   22514683.8894
  24456955.067    -4372725.11349  -3394661.66449  24456954.0624   24456961.6224
 96  4 20 16 43  0.0000000  0  7 16  2 27 19 31 18  7
  23860762.870     -662214.75549   -511834.42549  23860761.9794   23860769.6614
  21683454.756    -5650226.50849  -4391013.34949  21683455.1294   21683460.8764
  20714461.578    -5063465.15449  -3935900.10949  20714461.3124   20714466.8644
  20670426.098      360408.43049    281192.17749  20670426.7604   20670431.7584
  22503030.489     2998718.76849   2335382.94449  22503030.3744   22503034.6034
  22532565.029     7739599.51749   6020860.76249  22532566.0364   22532572.3654
  24435366.632    -4486166.19449  -3483057.28249  24435366.5594   24435374.1704
 96  4 20 16 43 30.0000000  0  7 16  2 27 19 31 18  7
  23863867.924     -645900.67949   -499122.17149  23863867.2534   23863873.0514
  21674740.911    -5696020.92449  -4426697.29849  21674740.7034   21674746.4814
  20705984.325    -5108010.30749  -3970610.60949  20705984.6694   20705990.1604
  20673172.059      374838.77649    292436.58949  20673172.5274   20673177.8804
  22513838.056     3055513.68849   2379638.71049  22513837.7534   22513841.6614
  22550500.840     7833849.68349   6094302.40749  22550501.1094   22550508.4874
  24413784.594    -4599577.05949  -3571429.34149  24413785.5754   24413792.8564
 96  4 20 16 44  0.0000000  0  7 16  2 27 19 31 18  7
  23867056.068     -629136.45349   -486059.16049  23867057.2004   23867065.0004
  21666083.965    -5741512.29849  -4462145.11549  21666084.0064   21666090.0204
  20697553.589    -5152316.60549  -4005134.99149  20697553.5784   20697558.5884
  20675975.732      389570.04449    303915.49149  20675976.0934   20675981.1304
  22524743.487     3112827.84249   2424299.07549  22524744.1834   22524748.5924
  22568486.248     7928358.35449   6167945.48749  22568485.5364   22568492.4214
  24392204.574    -4712981.35549  -3659796.29449  24392204.5414   24392212.6524
 96  4 20 16 44 30.0000000  0  7 16  2 27 19 31 18  7
  23870328.543     -611952.02849   -472668.73549  23870326.9114   23870334.2794
  21657474.520    -5786757.36749  -4497401.00749  21657474.1814   21657480.0394
  20689163.113    -5196410.08449  -4039493.54249  20689162.7714   20689167.5594
  20678827.165      404555.61749    315592.55449  20678827.7454   20678832.8974
  22535743.468     3170632.53849   2469341.68449  22535744.2874   22535748.6164
  22586511.113     8023082.29349   6241756.30649  22586511.1294   22586517.9044
  24370617.339    -4826419.71849  -3748189.78449  24370618.5964   24370626.3774
 96  4 20 16 45  0.0000000  0  7 16  2 27 19 31 18  7
  23873682.034     -594319.84049   -458929.40549  23873682.5484   23873689.3644
  21648914.585    -5831738.34949  -4532451.11649  21648914.7114   21648920.6544
  20680818.763    -5240257.53749  -4073660.38749  20680818.9294   20680823.9644
  20681730.109      419811.71749    327480.41649  20681731.0854   20681736.1984
  22546839.425     3228940.76349   2514776.65749  22546839.7204   22546844.5854
  22604581.096     8118039.25249   6315748.69149  22604580.8474   22604587.4394
  24349030.258    -4939867.54549  -3836590.65449  24349029.3494   24349037.1634
 96  4 20 16 45 30.0000000  0  7 16  2 27 19 31 18  7
  23877121.625     -576248.93349   -444848.19349  23877121.9414   23877128.4014
  21640399.771    -5876481.13249  -4567315.61849  21640400.1424   21640405.9004
  20672519.228    -5283873.62249  -4107646.94549  20672519.2914   20672524.1914
  20684682.269      435319.04249    339564.04149  20684681.9864   20684686.8144
  22558029.379     3287747.39349   2560599.99249  22558031.0204   22558035.1814
  22622695.754     8213233.37749   6389925.89049  22622695.7684   22622702.3804
  24327436.749    -5053333.17749  -3925005.40549  24327437.9714   24327445.9174
 96  4 20 16 46  0.0000000  0  7 16  2 27 19 31 18  7
  23880645.219     -557734.03349   -430421.03749  23880645.7324   23880651.0094
  21631927.443    -5921003.18249  -4602008.12249  21631927.8564   21631933.6074
  20664261.248    -5327268.47449  -4141461.11049  20664261.5064   20664266.1604
  20687675.768      451057.38349    351827.67349  20687676.7874   20687681.8524
  22569313.525     3347039.77549   2606801.83149  22569313.1994   22569317.8584
  22640855.296     8308661.04449   6464285.06749  22640855.0854   22640861.6594
  24305840.453    -5166825.00249  -4013440.56149  24305840.9224   24305849.0174
 96  4 20 16 46 30.0000000  0  7 16  2 27 19 31 18  7
  23884255.866     -538763.01649   -415638.44149  23884254.7234   23884261.7444
  21623498.901    -5965298.82149  -4636524.20149  21623498.8824   21623504.5134
  20656044.758    -5370444.61049  -4175104.85449  20656045.1644   20656049.9534
  20690713.394      467015.48249    364262.54649  20690713.1524   20690718.8974
  22580687.126     3406810.73549   2653376.59049  22580687.1834   22580691.8504
  22659057.814     8404318.30049   6538823.14349  22659058.1234   22659065.1254
  24284241.759    -5280327.08449  -4101883.72449  24284242.3004   24284250.2014
 96  4 20 16 47  0.0000000  0  7 16  2 27 19 31 18  7
  23887951.521     -519333.68449   -400498.72549  23887951.7164   23887959.0384
  21615118.030    -6009341.55649  -4670843.20649  21615117.7854   21615123.6864
  20647870.696    -5413398.41449  -4208575.35049  20647871.0604   20647875.9264
  20693794.898      483209.14249    376880.97749  20693794.8214   20693800.4634
  22592154.374     3467069.42949   2700331.40449  22592154.0754   22592158.2804
  22677306.995     8500217.72849   6613549.92549  22677307.2324   22677313.8974
  24262643.766    -5393820.62749  -4190320.22649  24262645.3354   24262652.5384
 96  4 20 16 47 30.0000000  0  7 16  2 27 19 31 18  7
  23891733.781     -499468.02449   -385019.02849  23891732.7284   23891739.2764
  21606781.854    -6053143.62849  -4704974.68549  21606782.1714   21606788.2524
  20639736.119    -5456147.91349  -4241886.65149  20639736.2624   20639741.0804
  20696920.388      499635.49049    389680.71849  20696920.6934   20696926.1354
  22603713.698     3527804.76249   2747657.62749  22603711.6924   22603717.2544
  22695599.483     8596346.51049   6688455.42249  22695599.8714   22695606.6504
  24241047.496    -5507315.66149  -4278757.89549  24241047.1734   24241055.3904
 96  4 20 16 48  0.0000000  0  7 16  2 27 19 31 18  7
  23895600.034     -479145.00149   -369182.94549  23895599.9014   23895605.8934
  21598499.454    -6096670.82849  -4738891.97749  21598499.3974   21598505.2484
  20631644.412    -5498669.59249  -4275020.42649  20631644.8664   20631649.8894
  20700098.521      516339.22249    402696.60949  20700099.4924   20700104.4744
  22615360.754     3589027.16649   2795363.37549  22615361.8914   22615367.2544
  22713938.728     8692719.40649   6763551.14049  22713939.5034   22713946.0254
  24219453.523    -5620790.43949  -4367179.78349  24219454.4254   24219462.5254
 96  4 20 16 48 30.0000000  0  7 16  2 27 19 31 18  7
  23899556.451     -458354.93149   -352982.91449  23899556.3674   23899562.2544
  21590272.279    -6139906.19749  -4772581.86549  21590272.0844   21590277.9804
  20623597.588    -5540956.76849  -4307971.46649  20623597.8804   20623602.8324
  20703333.984      533340.07349    415944.01549  20703334.5194   20703339.5684
  22627107.612     3650743.76349   2843454.21649  22627105.9944   22627111.1674
  22732325.441     8789343.04149   6838842.23649  22732326.0734   22732333.1634
  24197870.680    -5734212.38949  -4455560.49949  24197870.6384   24197878.4474
 96  4 20 16 49  0.0000000  0  7 16  2 27 19 31 18  7
  23903596.284     -437123.60449   -336439.05849  23903595.8384   23903603.2804
  21582096.441    -6182870.37849  -4806060.43649  21582096.2344   21582102.1504
  20615592.564    -5583023.61649  -4340750.82649  20615592.6034   20615597.4534
  20706623.688      550627.11349    429414.43249  20706624.1254   20706628.9354
  22638938.531     3712925.70949   2891907.66449  22638938.9324   22638944.0884
  22750754.758     8886190.40249   6914307.66449  22750755.4034   22750761.9894
  24176294.249    -5847596.83849  -4543911.99149  24176294.1804   24176301.8704
 96  4 20 16 49 30.0000000  0  7 16  2 27 19 31 18  7
  23907721.055     -415447.86349   -319548.90949  23907722.2584   23907727.9364
  21573972.240    -6225558.11049  -4839323.59449  21573973.1814   21573978.9524
  20607634.204    -5624842.98449  -4373337.34249  20607634.6284   20607639.4904
  20709967.261      568203.19949    443110.07749  20709968.7334   20709973.4924
  22650862.157     3775576.56249   2940726.49949  22650861.0714   22650866.9494
  22769228.761     8983270.06149   6989954.10449  22769229.5014   22769235.9114
  24154725.617    -5960942.85949  -4632233.54749  24154725.2534   24154732.0864
 96  4 20 16 50  0.0000000  0  7 16  2 27 19 31 18  7
  23911929.470     -393334.69349   -302317.89749  23911929.6014   23911936.1274
  21565901.402    -6267977.52049  -4872377.67249  21565901.0004   21565906.3814
  20599723.365    -5666417.18149  -4405732.82349  20599723.4254   20599728.2234
  20713362.327      586043.64249    457011.71349  20713363.6474   20713368.6974
  22662870.233     3838681.27049   2989898.98749  22662869.7094   22662874.9224
  22787745.304     9080570.23549   7065772.38349  22787744.8414   22787751.2164
  24133161.581    -6074262.66549  -4720534.68349  24133160.8754   24133168.1834
 96  4 20 16 50 30.0000000  0  7 16  2 27 19 31 18  7
  23916222.533     -370772.08849   -284736.66749  23916223.2334   23916229.1914
  21557880.719    -6310126.58749  -4905221.09049  21557880.5034   21557885.8674
  20591860.982    -5707733.25549  -4437927.16449  20591861.4744   20591866.2254
  20716808.646      604149.65249    471120.28549  20716809.1374   20716814.2464
  22674969.057     3902255.64649   3039437.45249  22674967.6054   22674972.6014
  22806303.181     9178090.33649   7141762.02149  22806302.4114   22806308.9564
  24111606.738    -6187535.29149  -4808799.06749  24111606.6584   24111614.1324
 96  4 20 16 51  0.0000000  0  7 16  2 27 19 31 18  7
  23920597.344     -347777.70649   -266818.98249  23920597.9624   23920605.2304
  21549908.699    -6352014.10549  -4937860.71149  21549909.3444   21549915.1134
  20584046.923    -5748794.22349  -4469922.71849  20584047.6414   20584052.7414
  20720304.805      622522.22049    485436.56649  20720305.6874   20720310.5614
  22687154.027     3966296.43649   3089339.34849  22687154.4614   22687159.3344
  22824901.919     9275829.66749   7217922.48849  22824901.6364   22824907.9044
  24090056.132    -6300782.36849  -4897043.51949  24090056.1974   24090063.4484
 96  4 20 16 51 30.0000000  0  7 16  2 27 19 31 18  7
  23925056.364     -324348.37349   -248562.38449  23925057.5994   23925063.8784
  21541988.157    -6393639.57149  -4970296.12949  21541988.0274   21541993.7964
  20576282.317    -5789598.99749  -4501718.64249  20576282.7414   20576288.0934
  20723854.102      641169.25349    499966.71949  20723853.7374   20723858.8894
  22699431.704     4030809.35149   3139609.13549  22699430.4234   22699435.9354
  22843542.679     9373787.60549   7294253.30649  22843542.4814   22843548.7214
  24068512.439    -6413992.97949  -4985259.57549  24068512.6724   24068520.1534
 96  4 20 16 52  0.0000000  0  7 16  2 27 19 31 18  7
  23929600.421     -300471.85849   -229957.34449  23929599.3214   23929607.7844
  21534116.841    -6435002.01249  -5002526.59049  21534117.0724   21534123.2284
  20568564.998    -5830157.85549  -4533322.95149  20568564.8944   20568569.7974
  20727460.250      660120.18849    514733.67249  20727460.0894   20727465.2974
  22711796.708     4095794.98049   3190247.27949  22711796.1124   22711802.1594
  22862225.682     9471967.09349   7370756.74749  22862225.4344   22862232.4474
  24046982.960    -6527133.74849  -5073421.20049  24046982.4844   24046990.9364
 96  4 20 16 52 30.0000000  0  7 16  2 27 19 31 18  7
  23934229.929     -276141.58449   -210998.71749  23934229.7844   23934236.7924
  21526301.316    -6476075.09449  -5034531.58349  21526301.5514   21526307.1194
  20560896.392    -5870452.65249  -4564721.49649  20560896.9644   20560902.1584
  20731129.062      679405.79349    529761.41049  20731130.0874   20731135.2884
  22724255.360     4161272.72049   3241268.87749  22724256.6334   22724262.2424
  22880952.388     9570382.58949   7447444.09549  22880953.2314   22880959.3884
  24025471.755    -6640171.47949  -5161502.53049  24025472.3454   24025480.1914
 96  4 20 16 53  0.0000000  0  7 16  2 27 19 31 18  7
  23938938.732     -251394.88349   -191715.60849  23938938.9884   23938947.0874
  21518538.790    -6516868.33549  -5066318.52049  21518538.9944   21518544.3174
  20553275.521    -5910503.07149  -4595929.61449  20553275.7424   20553280.8434
  20734858.645      698999.75049    545029.42449  20734858.5414   20734863.7844
  22736804.789     4227219.51949   3292655.98249  22736805.4834   22736811.0414
  22899724.826     9669029.03049   7524311.40549  22899724.9034   22899731.6094
  24003977.868    -6753126.47049  -5249519.37849  24003978.0404   24003985.7774
 96  4 20 16 53 30.0000000  0  7 16  2 27 19 31 18  7
  23943731.356     -226213.62149   -172093.86849  23943731.6074   23943738.8014
  21510832.667    -6557364.52249  -5097873.98449  21510832.4184   21510837.8524
  20545703.423    -5950294.64949  -4626936.03349  20545703.5974   20545708.7284
  20738645.413      718901.45449    560537.23849  20738646.2624   20738650.9884
  22749445.152     4293643.39649   3344414.83649  22749446.0544   22749450.2854
  22918541.689     9767913.49549   7601364.19249  22918541.9974   22918548.5414
  23982504.295    -6865971.39949  -5337450.47749  23982504.5354   23982512.2344
 96  4 20 16 54  0.0000000  0  7 16  2 27 19 31 18  7
  23948599.637     -200630.57649   -152159.04449  23948599.3984   23948607.9074
  21503179.522    -6597578.78849  -5129209.76549  21503179.6494   21503185.2984
  20538175.371    -5989851.78349  -4657759.77449  20538175.6974   20538181.1814
  20742482.744      739065.44549    576249.43149  20742483.0894   20742488.3304
  22762173.251     4360527.72149   3396532.46249  22762174.2014   22762178.4704
  22937400.829     9867019.13149   7678589.31449  22937401.3364   22937407.5654
  23961043.696    -6978746.56949  -5425327.19249  23961043.9914   23961051.1524
 96  4 20 16 54 30.0000000  0  7 16  2 27 19 31 18  7
  23953547.146     -174632.84149   -131901.09849  23953547.6274   23953554.9634
  21495584.237    -6637491.62249  -5160310.66349  21495584.5704   21495590.4534
  20530696.831    -6029152.79149  -4688383.93349  20530697.2764   20530702.6894
  20746369.088      759488.30549    592163.33749  20746369.4704   20746374.7424
  22774995.714     4427902.42749   3449032.21749  22774994.2434   22774999.0214
  22956302.828     9966348.44149   7755988.72849  22956303.2714   22956309.5664
  23939594.235    -7091462.72349  -5513157.93749  23939594.6564   23939601.0154
 96  4 20 16 55  0.0000000  0  7 16  2 27 19 31 18  7
  23958576.613     -148201.85749   -111305.54949  23958576.1124   23958584.1564
  21488046.389    -6677106.73249  -5191179.57549  21488046.1994   21488052.3784
  20523270.193    -6068181.80549  -4718796.15149  20523270.4324   20523275.6434
  20750304.898      780171.34049    608279.97349  20750305.2224   20750310.6864
  22787910.551     4495775.49649   3501920.29649  22787910.0874   22787915.4664
  22975247.529    10065904.20449   7833564.60349  22975248.2564   22975254.8144
  23918156.434    -7204119.30549  -5600942.26449  23918157.2844   23918164.4874
 96  4 20 16 55 30.0000000  0  7 16  2 27 19 31 18  7
  23963691.766     -121320.95749    -90359.41949  23963692.4124   23963699.3234
  21480562.611    -6716433.68449  -5221823.94149  21480562.6314   21480568.3944
  20515895.121    -6106936.95549  -4748994.97049  20515895.1274   20515901.0464
  20754290.969      801118.85949    624602.71249  20754291.4534   20754296.5454
  22800917.726     4564134.72249   3555187.21249  22800919.0454   22800923.5234
  22994231.542    10165666.34049   7911301.28949  22994232.4604   22994238.9054
  23896729.340    -7316724.17549  -5688686.28849  23896728.9634   23896735.2594
 96  4 20 16 56  0.0000000  0  7 16  2 27 19 31 18  7
  23968894.044      -93986.24149    -69059.68549  23968892.9134   23968900.4874
  21473131.390    -6755482.09949  -5252251.26949  21473131.9064   21473137.7304
  20508573.843    -6145408.74349  -4778972.98849  20508574.3514   20508579.7774
  20758331.526      822352.82849    641148.65449  20758332.3764   20758337.0614
  22814017.350     4632979.34449   3608832.34949  22814018.9234   22814024.3494
  23013253.342    10265625.82749   7989191.74449  23013254.0604   23013260.6034
  23875309.560    -7429281.21149  -5776393.03749  23875310.3084   23875316.0164
 96  4 20 16 56 30.0000000  0  7 16  2 27 19 31 18  7
  23974187.446      -66165.40449    -47381.15349  23974187.8894   23974193.9914
  21465756.943    -6794239.97349  -5282452.20149  21465756.6314   21465762.2044
  20501313.094    -6183566.69749  -4808706.46149  20501313.2844   20501318.3784
  20762434.428      843913.78749    657949.39249  20762435.2644   20762440.2554
  22827213.017     4702316.86849   3662861.56549  22827213.3434   22827218.6244
  23032314.797    10365794.21649   8067244.99049  23032315.4394   23032321.8234
  23853908.879    -7541747.76249  -5864029.27949  23853908.7834   23853914.8554
 96  4 20 16 57  0.0000000  0  7 16  2 27 19 31 18  7
  23979571.831      -37876.10149    -25337.57549  23979571.2214   23979577.4074
  21458434.445    -6832720.15549  -5312436.75249  21458434.0164   21458439.2544
  20494110.373    -6221414.42349  -4838198.19849  20494110.8374   20494116.0904
  20766600.326      865805.80849    675008.09649  20766600.8834   20766606.0934
  22840496.519     4772115.27249   3717249.90849  22840495.9994   22840501.1924
  23051417.385    10466177.39049   8145465.59449  23051418.1624   23051423.5974
  23832524.983    -7654122.03949  -5951593.61549  23832524.5844   23832530.6354
 96  4 20 16 57 30.0000000  0  7 16  2 27 19 31 18  7
  23985041.745       -9127.23749     -2935.88649  23985042.2344   23985048.8094
  21451163.672    -6870924.82549  -5342206.62049  21451164.0454   21451169.3914
  20486963.327    -6258973.23049  -4867464.80049  20486963.9654   20486969.1224
  20770831.737      888039.26049    692332.85249  20770832.0724   20770837.4474
  22853863.814     4842366.56149   3771991.14649  22853865.0574   22853869.8294
  23070560.606    10566773.39349   8223852.04049  23070560.7884   23070566.6874
  23811155.958    -7766412.08449  -6039092.30649  23811156.6134   23811163.8214
 96  4 20 16 58  0.0000000  0  7 16  2 27 19 31 18  7
  23990596.173       20060.53649     19807.79049  23990596.5094   23990603.5884
  21443944.306    -6908862.58049  -5371768.49149  21443944.3864   21443950.0674
  20479869.907    -6296248.96349  -4896510.82549  20479870.8114   20479875.6024
  20775127.124      910611.53849    709921.62649  20775127.3964   20775132.3894
  22867319.970     4913072.93049   3827087.00449  22867319.8214   22867325.0374
  23089745.933    10667591.00149   8302411.17449  23089745.9694   23089752.2934
  23789804.313    -7878614.20449  -6126522.47449  23789805.6234   23789812.4814
 96  4 20 16 58 30.0000000  0  7 16  2 27 19 31 18  7
  23996233.123       49682.36849     42889.69449  23996232.9484   23996240.4894
  21436780.225    -6946508.45949  -5401102.93449  21436780.5584   21436786.4794
  20472833.730    -6333227.27049  -4925325.08449  20472833.8164   20472838.8004
  20779486.440      933523.46549    727775.06349  20779487.2044   20779492.6884
  22880862.956     4984246.13549   3882546.61649  22880863.0884   22880868.6494
  23108978.168    10768654.86149   8381162.17749  23108977.5654   23108984.0294
  23768474.170    -7990704.08949  -6213865.18049  23768474.3614   23768482.0464
 96  4 20 16 59  0.0000000  0  7 16  2 27 19 31 18  7
  24001950.450       79726.96549     66301.01849  24001949.7324   24001957.2814
  21429672.657    -6983860.51449  -5430208.42249  21429672.8604   21429678.7784
  20465852.203    -6369912.92449  -4953911.31049  20465852.8144   20465858.0424
  20783910.575      956773.22549    745891.74749  20783911.9154   20783916.6254
  22894493.505     5055874.66049   3938361.01849  22894494.2284   22894499.1274
  23128257.683    10869966.18449   8460106.01349  23128256.7994   23128263.4414
  23747164.976    -8102685.02749  -6301123.00949  23747166.4364   23747172.5314
 96  4 20 16 59 30.0000000  0  7 16  2 27 19 31 18  7
  24007750.252      110200.11549     90046.29249  24007748.7234   24007756.7194
  21422621.292    -7020917.85149  -5459084.26249  21422621.2864   21422627.0394
  20458924.674    -6406308.65649  -4982271.61649  20458926.9044   20458931.7774
  20788400.759      980355.14749    764267.25749  20788399.0124   20788403.9314
  22908211.763     5127968.40549   3994537.94549  22908212.9954   22908217.9964
  23147582.189    10971517.92149   8539237.18949  23147582.2824   23147588.1744
  23725879.348    -8214542.47549  -6388284.59949  23725879.8264   23725886.6484
 96  4 20 17  0  0.0000000  0  7 16  2 27 19 31 18  7
  24013629.140      141098.67449    114123.04849  24013629.3414   24013635.7934
  21415625.006    -7057681.23549  -5487731.04449  21415625.1604   21415631.1584
  20452060.448    -6442388.51649  -5010385.79149  20452061.0664   20452065.9624
  20792946.475     1004256.55249    782891.72149  20792947.0164   20792952.3704
  22922018.898     5200516.78249   4051069.13549  22922019.0524   22922023.0674
  23166951.006    11073303.89649   8618550.88649  23166950.8804   23166957.3304
  23704622.466    -8326248.32349  -6475328.07949  23704621.6604   23704629.3974
 96  4 20 17  0 30.0000000  0  7 16  2 27 19 31 18  7
  24019591.198      172433.63449    138539.86449  24019591.1474   24019599.2004
  21408688.294    -7094134.37249  -5516136.07649  21408688.5724   21408694.2034
  20445252.990    -6478148.53249  -5038250.73749  20445256.1274   20445261.4224
  20797559.164     1028480.28749    801767.34549  20797557.0194   20797562.3884
  22935907.536     5273516.61349   4107952.09349  22935909.9924   22935914.7664
  23186363.541    11175320.82849   8698044.53849  23186363.8774   23186370.6214
  23683396.291    -8437794.00749  -6562246.73549  23683396.7054   23683402.7254
 96  4 20 17  1  0.0000000  0  7 16  2 27 19 31 18  7
  24025639.447      204214.50549    163304.13549  24025639.9614   24025646.8234
  21401807.035    -7130295.94549  -5544313.91649  21401807.2504   21401812.9324
  20438507.135    -6513610.44749  -5065883.40549  20438508.1694   20438513.2304
  20802227.378     1053024.21149    820892.47349  20802227.6964   20802233.0164
  22949884.811     5346954.98649   4165176.78349  22949884.2644   22949889.5924
  23205818.175    11277552.02749   8777705.15749  23205817.4364   23205824.7914
  23662195.205    -8549204.91849  -6649060.38449  23662195.7694   23662201.7304
 96  4 20 17  1 30.0000000  0  7 16  2 27 19 31 18  7
  24031770.598      236438.40949    188413.64949  24031771.6544   24031779.6714
  21394980.904    -7166164.59249  -5572263.50249  21394981.3264   21394987.0734
  20431816.998    -6548774.02449  -5093283.59049  20431816.6884   20431821.8374
  20806958.990     1077891.45949    840269.53749  20806959.3534   20806965.0124
  22963946.221     5420845.62549   4222753.88449  22963945.3304   22963950.7914
  23225310.484    11379988.07849   8857525.40149  23225310.7214   23225317.3604
  23641019.150    -8660482.05749  -6735769.79749  23641019.7574   23641026.6254
 96  4 20 17  2  0.0000000  0  7 16  2 27 19 31 18  7
  24037989.703      269110.05249    213872.03649  24037988.5404   24037997.0754
  21388217.101    -7201709.23149  -5599960.61849  21388217.3274   21388223.2904
  20425185.996    -6583614.71949  -5120432.17949  20425186.6744   20425191.7494
  20811755.879     1103097.53149    859910.62249  20811755.9854   20811761.4314
  22978095.024     5495203.63549   4280695.16449  22978095.1224   22978101.2814
  23244846.294    11482647.83949   8937519.96449  23244845.6794   23244852.3344
  23619872.055    -8771612.74349  -6822365.08649  23619872.3264   23619880.1144
 96  4 20 17  2 30.0000000  0  7 16  2 27 19 31 18  7
  24044287.159      302211.78649    239665.54349  24044286.9694   24044295.8454
  21381512.180    -7236944.33349  -5627416.54349  21381512.2744   21381518.0944
  20418612.531    -6618162.58249  -5147352.59449  20418612.5344   20418617.6354
  20816614.938     1128635.97449    879810.69849  20816615.7734   20816621.2154
  22992332.490     5570022.81849   4338995.80649  22992333.5294   22992337.4874
  23264421.126    11585515.95849   9017676.88349  23264421.3634   23264427.6644
  23598746.122    -8882632.12649  -6908873.64749  23598745.9714   23598753.3164
 96  4 20 17  3  0.0000000  0  7 16  2 27 19 31 18  7
  24050664.245      335722.67249    265777.89649  24050665.7204   24050671.3844
  21374862.278    -7271889.49449  -5654646.53649  21374862.6074   21374868.4454
  20412092.610    -6652421.71849  -5174048.02249  20412093.1434   20412098.1164
  20821536.071     1154498.41749    899963.24549  20821537.4074   20821542.7354
  23006657.817     5645297.46949   4397651.35349  23006657.0414   23006662.8794
  23284031.845    11688574.88449   9097982.48749  23284032.1534   23284039.2024
  23577640.001    -8993542.50349  -6995297.27049  23577640.3774   23577647.4354
 96  4 20 17  3 30.0000000  0  7 16  2 27 19 31 18  7
  24057122.589      369662.43149    292224.42549  24057124.3334   24057130.2894
  21368274.703    -7306508.97849  -5681622.75249  21368274.8394   21368280.9914
  20405637.643    -6686341.87449  -5200479.30649  20405638.5304   20405643.3114
  20826525.449     1180711.67149    920389.14449  20826525.5174   20826530.9964
  23021074.513     5721062.03549   4456688.66149  23021074.9494   23021079.5304
  23303684.435    11791849.31749   9178456.01249  23303685.7204   23303692.3934
  23556567.720    -9104280.44549  -7081586.52949  23556567.6674   23556574.9314
 96  4 20 17  4  0.0000000  0  7 16  2 27 19 31 18  7
  24063658.729      404012.29649    318990.51449  24063659.6014   24063667.7844
  21361743.887    -7340829.04149  -5708365.64849  21361744.0654   21361749.9554
  20399245.691    -6719937.90749  -5226658.03549  20399245.5654   20399250.4984
  20831574.604     1207246.85849    941065.90049  20831575.0814   20831580.7844
  23035580.820     5797287.49549   4516085.09449  23035580.5004   23035585.3774
  23323373.216    11895317.95449   9259080.87149  23323374.8574   23323381.1004
  23535523.102    -9214867.95049  -7167758.57149  23535523.3274   23535530.8354
 96  4 20 17  4 30.0000000  0  7 16  2 27 19 31 18  7
  24070280.526      438801.17349    346098.65549  24070280.3964   24070287.5774
  21355270.435    -7374849.36349  -5734874.98449  21355270.2624   21355276.0434
  20392915.851    -6753198.55949  -5252575.43349  20392916.1814   20392920.9384
  20836687.753     1234117.46749    962004.02549  20836688.3634   20836693.9554
  23050173.254     5873974.52649   4575841.19449  23050173.8414   23050179.3314
  23343100.066    11998976.73149   9339853.89049  23343100.8294   23343107.1174
  23514510.904    -9325288.82549  -7253800.76849  23514511.4734   23514518.2714
 96  4 20 17  5  0.0000000  0  7 16  2 27 19 31 18  7
  24076981.660      474019.34549    373541.35149  24076982.6784   24076988.5914
  21348851.810    -7408580.79349  -5761159.21149  21348851.5374   21348857.0834
  20386651.196    -6786120.53649  -5278228.92349  20386650.9654   20386655.7134
  20841860.570     1261301.58549    983186.44149  20841861.4334   20841867.1164
  23064852.964     5951115.24149   4635950.82549  23064852.8074   23064858.6094
  23362859.799    12102817.78449   9420768.94449  23362860.9824   23362866.9644
  23493528.835    -9435544.77049  -7339714.44749  23493529.8694   23493536.8624
 96  4 20 17  5 30.0000000  0  7 16  2 27 19 31 18  7
  24083767.896      509681.40549    401329.92749  24083768.4174   24083776.3454
  21342489.071    -7442013.03749  -5787210.30349  21342489.4524   21342495.1424
  20380452.548    -6818692.54249  -5303609.70849  20380453.1004   20380457.7014
  20847092.893     1288793.06149   1004608.36349  20847092.8594   20847098.2984
  23079618.071     6028708.26749   4696412.90149  23079618.4924   23079623.8034
  23382656.263    12206847.73549   9501831.18049  23382656.5744   23382663.2084
  23472579.954    -9545635.25949  -7425499.18549  23472580.1394   23472586.6484
 96  4 20 17  6  0.0000000  0  7 16  2 27 19 31 18  7
  24090640.452      545795.18149    429470.47249  24090640.3474   24090648.6954
  21336186.575    -7475133.87249  -5813018.74249  21336186.6844   21336192.4454
  20374322.403    -6850902.36849  -5328708.27549  20374323.6904   20374328.5434
  20852384.258     1316600.19449   1026276.24549  20852384.5284   20852389.8274
  23094471.188     6106755.54949   4757228.94049  23094469.9734   23094475.5754
  23402492.048    12311085.31649   9583055.20149  23402492.7934   23402499.3354
  23451661.923    -9655562.09149  -7511156.40649  23451661.8504   23451668.6524
 96  4 20 17  6 30.0000000  0  7 16  2 27 19 31 18  7
  24097594.686      582338.78049    457945.95949  24097594.6034   24097601.4004
  21329938.973    -7507962.16449  -5838599.22749  21329939.6734   21329945.3064
  20368260.262    -6882765.23249  -5353536.48049  20368260.4654   20368265.2664
  20857734.224     1344714.96749   1048183.84949  20857734.4184   20857739.4524
  23109406.506     6185249.78049   4818393.26049  23109406.9624   23109413.3434
  23422365.455    12415521.53749   9664434.00449  23422366.2714   23422372.9164
  23430774.720    -9765326.61449  -7596687.15249  23430774.3314   23430781.9644
 96  4 20 17  7  0.0000000  0  7 16  2 27 19 31 18  7
  24104624.825      619283.35149    486733.91849  24104625.0594   24104632.6574
  21323746.281    -7540510.22649  -5863961.34449  21323746.1444   21323751.7194
  20362259.555    -6914297.75949  -5378107.27949  20362260.0314   20362264.6044
  20863142.549     1373138.37649   1070331.95049  20863142.8024   20863148.3084
  23124425.629     6264182.25449   4879899.06649  23124427.5014   23124433.1044
  23442277.740    12520158.94249   9745969.58949  23442278.2394   23442284.6304
  23409914.263    -9874943.54349  -7682102.90049  23409915.3894   23409921.7504
 96  4 20 17  7 30.0000000  0  7 16  2 27 19 31 18  7
  24111732.168      656634.95149    515839.02149  24111733.2444   24111740.9074
  21317609.436    -7572757.10549  -5889088.77349  21317609.6224   21317615.3124
  20356322.859    -6945493.52449  -5402415.66849  20356323.4454   20356328.4754
  20868616.349     1401904.94349   1092747.44849  20868617.0964   20868622.5604
  23139528.902     6343540.72349   4941736.81849  23139529.1604   23139534.7584
  23462228.868    12625001.19949   9827664.80049  23462228.7934   23462234.7474
  23389087.378    -9984390.13749  -7767385.92249  23389088.1064   23389094.4004
 96  4 20 17  8  0.0000000  0  7 16  2 27 19 31 18  7
  24118914.478      694378.81949    545249.79749  24118914.7234   24118922.5794
  21311528.960    -7604709.73049  -5913986.91249  21311529.3324   21311534.6184
  20350448.553    -6976365.31249  -5426471.60649  20350448.6434   20350453.8244
  20874161.118     1431040.95049   1115450.81649  20874161.6934   20874166.8394
  23154709.050     6423315.31149   5003898.82149  23154710.6574   23154715.6564
  23482218.101    12730046.87849   9909518.51849  23482219.2004   23482224.5614
  23368294.243   -10093659.36249  -7852530.72249  23368294.0194   23368301.9054
 96  4 20 17  8 30.0000000  0  7 16  2 27 19 31 18  7
  24126173.724      732525.41849    574974.38549  24126173.8304   24126180.8184
  21305507.017    -7636354.16549  -5938644.90649  21305507.3744   21305513.1174
  20344634.615    -7006912.86149  -5450274.89149  20344635.6404   20344640.9584
  20879779.817     1460569.56749   1138460.11949  20879780.8804   20879786.1694
  23169971.584     6503515.33449   5066392.31549  23169971.5404   23169977.3314
  23502247.545    12835299.72249   9991533.66649  23502247.5094   23502254.0404
  23347538.424   -10202729.85249  -7937520.68149  23347539.0134   23347546.5074
 96  4 20 17  9  0.0000000  0  7 16  2 27 19 31 18  7
  24133505.564      771055.83849    604998.03649  24133506.4214   24133513.8564
  21299540.709    -7667708.65149  -5963076.96649  21299540.8874   21299546.3814
  20338880.669    -7037154.37149  -5473839.70749  20338881.2724   20338886.3054
  20885469.686     1490467.07949   1161756.86749  20885470.4094   20885475.7504
  23185305.557     6584101.15849   5129186.43949  23185306.6134   23185311.7964
  23522310.632    12940733.39249  10073689.70849  23522311.2624   23522317.4024
  23326818.060   -10311616.77249  -8022367.59349  23326817.8954   23326825.7254
 96  4 20 17  9 30.0000000  0  7 16  2 27 19 31 18  7
  24140911.379      809964.90549    635316.72349  24140910.3944   24140917.7274
  21293627.936    -7698781.71549  -5987289.73749  21293627.8854   21293633.5524
  20333186.280    -7067081.13849  -5497159.26849  20333186.2894   20333191.2224
  20891226.856     1520722.91749   1185332.82949  20891227.8134   20891232.9304
  23200714.642     6665075.27049   5192283.12449  23200714.9314   23200719.8244
  23542403.470    13046323.28749  10155967.48249  23542405.0074   23542410.8154
  23306133.624   -10420314.59849  -8107067.16049  23306133.9414   23306140.0334
 96  4 20 17 10  0.0000000  0  7 16  2 27 19 31 18  7
  24148385.532      849251.88249    665929.90949  24148386.0984   24148394.2834
  21287764.348    -7729592.14549  -6011297.85549  21287764.8954   21287770.4704
  20327549.527    -7096699.14049  -5520238.23149  20327550.0514   20327555.2194
  20897048.477     1551312.51249   1209168.86749  20897049.0764   20897054.0524
  23216199.363     6746451.00749   5255692.76149  23216199.8434   23216204.8904
  23562525.481    13152065.92949  10238364.27749  23562527.3934   23562533.5904
  23285480.512   -10528847.31449  -8191638.07549  23285481.0004   23285487.2694
 96  4 20 17 10 30.0000000  0  7 16  2 27 19 31 18  7
  24155937.621      888932.92449    696850.15549  24155937.6994   24155944.8854
  21281954.544    -7760123.99349  -6035088.89749  21281954.8904   21281960.5034
  20321978.385    -7125976.72949  -5543051.94049  20321979.0084   20321983.8944
  20902932.279     1582230.88849   1233261.09649  20902932.5524   20902937.5454
  23231766.879     6828252.09349   5319433.84749  23231766.1974   23231771.5424
  23582678.991    13257972.18249  10320888.57149  23582680.0294   23582686.6904
  23264861.504   -10637202.12949  -8276070.37349  23264862.3604   23264868.7384
 96  4 20 17 11  0.0000000  0  7 16  2 27 19 31 18  7
  24163559.830      928989.86249    728063.32849  24163560.5384   24163567.4814
  21276193.573    -7790398.38249  -6058679.32649  21276193.9014   21276199.1594
  20316472.565    -7154911.30449  -5565598.35749  20316472.9194   20316477.8704
  20908873.429     1613453.18049   1257590.14449  20908873.7194   20908878.7794
  23247411.631     6910467.77549   5383497.98849  23247411.2314   23247416.7024
  23602858.305    13364012.55949  10403517.36949  23602858.4914   23602865.9864
  23244270.707   -10745405.22149  -8360384.43549  23244270.7274   23244278.0924
 96  4 20 17 11 30.0000000  0  7 16  2 27 19 31 18  7
  24171257.166      969435.21549    759579.16749  24171256.3844   24171264.5144
  21270487.201    -7820383.89949  -6082044.66049  21270487.6624   21270493.0974
  20311035.315    -7183483.39449  -5587862.32049  20311035.6574   20311040.9194
  20914875.219     1644995.37349   1282168.46649  20914876.1444   20914881.2274
  23263138.836     6993117.67549   5447900.48249  23263138.8264   23263144.1844
  23623064.904    13470195.61349  10486257.35249  23623065.2974   23623071.5914
  23223709.990   -10853456.04249  -8444579.85549  23223710.5684   23223716.9634
 96  4 20 17 12  0.0000000  0  7 16  2 27 19 31 18  7
  24179025.446     1010260.05449    791390.68949  24179026.0564   24179032.6764
  21264834.732    -7850088.71949  -6105191.27049  21264834.9464   21264840.4414
  20305662.577    -7211711.68749  -5609858.39649  20305663.9314   20305669.2204
  20920935.884     1676841.89549   1306983.92449  20920936.2604   20920941.4344
  23278941.976     7076170.62749   5512617.04249  23278943.4184   23278948.9454
  23643297.221    13576517.74049  10569105.70249  23643297.7844   23643303.7014
  23203175.819   -10961362.16849  -8528662.52249  23203175.8454   23203182.9534
 96  4 20 17 12 30.0000000  0  7 16  2 27 19 31 18  7
  24186867.591     1051472.40349    823504.15949  24186868.8674   24186875.9884
  21259237.841    -7879500.77249  -6128109.74749  21259237.8574   21259243.3374
  20300360.781    -7239573.27249  -5631568.72049  20300362.0734   20300367.4274
  20927058.761     1709014.45549   1332053.43749  20927058.2814   20927063.7504
  23294823.278     7159622.30949   5577644.30049  23294823.9044   23294829.7624
  23663555.298    13682974.15949  10652058.69349  23663556.2434   23663562.0264
  23182678.169   -11069080.47549  -8612598.82849  23182677.9404   23182684.6274
 96  4 20 17 13  0.0000000  0  7 16  2 27 19 31 18  7
  24194781.719     1093053.12049    855904.65049  24194781.1384   24194787.9924
  21253693.056    -7908637.51749  -6150813.69649  21253693.4274   21253698.9494
  20295125.250    -7267091.89549  -5653011.80249  20295125.3424   20295130.7414
  20933238.247     1741494.90749   1357362.86649  20933239.4754   20933244.6594
  23310772.419     7243440.72449   5642957.33149  23310774.2654   23310779.3124
  23683836.047    13789549.83349  10735104.60449  23683836.4854   23683843.1744
  23162212.111   -11176630.80649  -8696404.24649  23162212.1324   23162219.3454
 96  4 20 17 13 30.0000000  0  7 16  2 27 19 31 18  7
  24202766.973     1135020.60949    888606.53749  24202767.6524   24202774.7864
  21248205.331    -7937480.40049  -6173288.66049  21248204.9534   21248210.7014
  20289953.115    -7294269.77349  -5674189.37249  20289953.7064   20289958.9744
  20939482.645     1774312.68149   1382935.14649  20939484.5244   20939489.5644
  23326795.855     7327631.76549   5708560.71149  23326795.7564   23326800.9104
  23704144.192    13896270.59949  10818263.58449  23704145.1014   23704150.1134
  23141782.049   -11283984.83149  -8780056.68249  23141783.4984   23141790.3474
 96  4 20 17 14  0.0000000  0  7 16  2 27 19 31 18  7
  24210824.503     1177359.42449    921597.78049  24210823.0534   24210830.6354
  21242765.670    -7966062.54849  -6195560.45149  21242765.9474   21242771.6354
  20284845.272    -7321114.31749  -5695107.19149  20284845.1674   20284850.3484
  20945791.742     1807458.93749   1408763.38649  20945792.3254   20945796.9524
  23342887.884     7412197.44649   5774456.01949  23342887.6644   23342893.5024
  23724479.743    14003132.27449  10901532.36549  23724480.1434   23724486.2594
  23121391.936   -11391133.90749  -8863549.43249  23121392.8864   23121399.9434
 96  4 20 17 14 30.0000000  0  7 16  2 27 19 31 18  7
  24218949.773     1220059.39149    954870.43449  24218949.4484   24218957.4594
  21237378.652    -7994373.59249  -6217621.00249  21237378.4494   21237384.4434
  20279798.885    -7347626.90149  -5715766.35049  20279799.9934   20279805.0544
  20952162.625     1840937.98949   1434850.94849  20952162.8924   20952167.8284
  23359055.257     7497162.13749   5840662.24649  23359056.9014   23359062.0384
  23744843.346    14110143.66649  10984917.78249  23744842.7544   23744848.8974
  23101040.429   -11498082.53749  -8946885.97249  23101041.4564   23101048.1014
 96  4 20 17 15  0.0000000  0  7 16  2 27 19 31 18  7
  24227140.838     1263102.79749    988410.70149  24227140.2634   24227147.1474
  21232042.635    -8022411.64049  -6239468.82349  21232043.0134   21232048.9034
  20274811.741    -7373839.61349  -5736191.84249  20274811.6194   20274816.7914
  20958593.767     1874738.47549   1461188.97749  20958594.9234   20958600.1024
  23375299.781     7582526.20049   5907179.67449  23375300.6904   23375305.8224
  23765237.101    14217313.59749  11068426.74949  23765236.1104   23765242.8564
  23080721.821   -11604855.22549  -9030085.43549  23080723.8054   23080730.4234
 96  4 20 17 15 30.0000000  0  8 16  2 27 19 31 18 26  7
  24235394.700     1306481.24849   1022212.04249  24235395.0834   24235400.9724
  21226756.346    -8050191.71749  -6261115.63249  21226756.5434   21226762.6424
  20269879.571    -7399758.25449  -5756388.18849  20269879.7794   20269884.7604
  20965088.589     1908865.06149   1487781.10649  20965089.0324   20965094.0444
  23391620.820     7668289.27449   5974008.01549  23391620.4374   23391625.8444
  23785655.890    14324618.42649  11152040.83149  23785656.6444   23785662.4204
  24876572.960    -5007922.51859  -3887353.64059  24876574.4074   24876581.7034
  23060438.887   -11711446.71149  -9113143.68349  23060439.6454   23060447.0574
 96  4 20 17 16  0.0000000  0  8 16  2 27 19 31 18 26  7
  24243711.236     1350183.66949   1056265.83049  24243711.4014   24243717.5744
  21221516.790    -8077724.25149  -6282569.54749  21221517.2304   21221523.1964
  20265005.731    -7425369.67249  -5776345.13449  20265006.1254   20265011.0774
  20971641.741     1943302.40449   1514615.38449  20971642.1254   20971647.4344
  23408013.288     7754433.45249   6041133.32149  23408012.5124   23408018.9534
  23806099.978    14432054.15649  11235756.92949  23806100.9584   23806107.4274
  24858049.023    -5105277.69949  -3963214.80649  24858047.5454   24858055.1534
  23040188.283   -11817865.66649  -9196067.49649  23040188.9584   23040195.6164
 96  4 20 17 16 30.0000000  0  8 16  2 27 19 31 18 26  7
  24252089.500     1394214.14849   1090575.24849  24252089.2924   24252097.0934
  21216326.337    -8105001.84649  -6303824.81149  21216326.5814   21216332.4584
  20260189.757    -7450675.66949  -5796064.09649  20260190.6474   20260195.4554
  20978253.978     1978052.28549   1541693.20449  20978254.8104   20978259.9584
  23424473.009     7840934.14649   6108536.43749  23424474.1404   23424479.2214
  23826568.783    14539613.28149  11319569.15549  23826568.4794   23826574.9424
  24839562.891    -5202421.14649  -4038910.97549  24839562.6194   24839569.3944
  23019969.806   -11924112.45349  -9278857.15449  23019970.5444   23019977.9694
 96  4 20 17 17  0.0000000  0  8 16  2 27 19 31 18 26  7
  24260535.335     1438597.35449   1125159.52149  24260536.3684   24260543.7464
  21211184.376    -8132024.34849  -6324881.30049  21211184.4724   21211190.1014
  20255439.438    -7475641.08949  -5815517.66449  20255439.9104   20255444.8654
  20984929.457     2013136.55949   1569031.58549  20984931.2244   20984936.3804
  23440998.285     7927771.18649   6176201.62949  23440998.4654   23441003.3894
  23847059.061    14647292.15949  11403474.71149  23847059.9434   23847065.4184
  24821117.993    -5299349.38849  -4114439.45349  24821118.0454   24821125.0604
  22999790.168   -12030160.61249  -9361492.05349  22999790.9474   22999797.9394
 96  4 20 17 17 30.0000000  0  8 16  2 27 19 31 18 26  7
  24269049.538     1483333.80749   1160019.05549  24269048.5054   24269057.4704
  21206088.363    -8158803.58349  -6345748.22749  21206088.4304   21206094.1084
  20250758.201    -7500239.58149  -5834685.32349  20250759.0574   20250763.9294
  20991671.126     2048556.89949   1596631.84349  20991670.9624   20991676.7084
  23457582.299     8014928.63849   6244116.49749  23457583.7054   23457589.1294
  23867570.387    14755074.83149  11487461.14749  23867570.4444   23867576.5484
  24802715.708    -5396048.20849  -4189789.17249  24802716.6474   24802722.9064
  22979648.441   -12136006.11349  -9443969.01049  22979648.8454   22979655.7754
 96  4 20 17 18  0.0000000  0  8 16  2 27 19 31 18 26  7
  24277625.714     1528404.31449   1195138.88649  24277626.1774   24277633.1394
  21201037.468    -8185343.42049  -6366428.60649  21201037.9584   21201043.8954
  20246144.606    -7524487.78749  -5853580.02849  20246144.8034   20246149.6534
  20998470.061     2084288.26949   1624474.45049  20998470.9514   20998476.3544
  23474225.675     8102387.17749   6312265.97349  23474226.2214   23474231.4244
  23888099.228    14862959.43549  11571527.00149  23888099.8704   23888105.8694
  24784355.819    -5492523.83149  -4264964.96449  24784358.3614   24784364.1994
  22959542.295   -12241665.60849  -9526301.05849  22959542.1184   22959550.0504
 96  4 20 17 18 29.9990000  0  8 16  2 27 19 31 18 26  7
  24286261.649     1573791.09749   1230505.14649  24286262.6374   24286270.6594
  21196032.286    -8211647.89849  -6386925.59349  21196032.7154   21196038.5854
  20241593.723    -7548402.55649  -5872214.91749  20241594.2074   20241598.6374
  21005326.062     2120316.10649   1652548.08049  21005326.5074   21005332.2694
  23490926.115     8190144.92449   6380648.59549  23490926.2044   23490931.8984
  23908644.343    14970920.51249  11655652.44849  23908644.6744   23908650.7824
  24766040.912    -5588780.42149  -4339970.08249  24766040.8174   24766046.8344
  22939471.580   -12347136.22949  -9608485.93449  22939472.0174   22939478.8974
 96  4 20 17 18 59.9990000  0  8 16  2 27 19 31 18 26  7
  24294962.068     1619507.97849   1266128.65849  24294961.2984   24294970.4314
  21191077.014    -8237687.14649  -6407215.90749  21191077.3534   21191083.3374
  20237109.980    -7571959.22949  -5890570.76349  20237111.0514   20237115.8274
  21012242.789     2156665.19849   1680872.03849  21012243.6994   21012249.7364
  23507689.308     8278236.82949   6449291.61049  23507689.0734   23507695.0624
  23929207.896    15078985.29649  11739858.70049  23929207.8454   23929214.1764
  24747768.429    -5684801.83049  -4414791.93949  24747769.1454   24747774.6284
  22919439.957   -12452401.81349  -9690511.03249  22919440.9844   22919448.0804
 96  4 20 17 19 29.9990000  0  8 16  2 27 19 31 18 26  7
  24303721.050     1665539.29949   1301997.16849  24303721.9104   24303730.0554
  21186174.755    -8263452.49249  -6427292.79749  21186174.4654   21186180.2894
  20232693.650    -7595168.76449  -5908656.11349  20232694.1874   20232699.0924
  21019217.655     2193321.37049   1709435.27949  21019218.7744   21019224.6894
  23524519.539     8366673.67649   6518203.40649  23524518.5594   23524523.4934
  23949791.393    15187150.96649  11824143.56349  23949790.5474   23949797.9234
  24729538.813    -5780596.68049  -4489437.24749  24729539.6614   24729545.4194
  22899448.121   -12557457.71149  -9772372.74649  22899449.6394   22899455.9544
 96  4 20 17 19 59.9990000  0  8 16  2 27 19 31 18 26  7
  24312535.857     1711861.97749   1338092.72249  24312536.0944   24312544.7084
  21181320.745    -8288955.55949  -6447165.30949  21181321.1864   21181327.1434
  20228338.264    -7618055.78149  -5926490.15249  20228339.1344   20228343.9864
  21026248.724     2230266.27249   1738223.50249  21026249.2094   21026255.3724
  23541411.636     8455442.96449   6587374.25149  23541411.2894   23541415.8444
  23970391.440    15295407.25849  11908499.03149  23970391.8304   23970397.3364
  24711345.808    -5876203.56549  -4563936.09349  24711346.1764   24711352.7444
  22879492.796   -12662323.87049  -9854086.61449  22879493.8684   22879500.9454
 96  4 20 17 20 29.9990000  0  8 16  2 27 19 31 18 26  7
  24321410.827     1758499.13749   1374433.33349  24321411.4564   24321418.8134
  21176522.604    -8314171.59749  -6466814.16549  21176522.3914   21176528.8174
  20224051.832    -7640585.15149  -5944045.50249  20224052.1374   20224056.6744
  21033340.948     2267536.57749   1767265.28349  21033341.7764   21033347.9284
  23558371.549     8544565.91049   6656820.68549  23558370.8604   23558376.2624
  23991011.517    15403769.41349  11992936.99549  23991012.8394   23991019.4224
  24693193.888    -5971595.37149  -4638267.33949  24693193.8524   24693199.5534
  22859579.282   -12766973.05249  -9935631.40749  22859579.9974   22859587.2684
 96  4 20 17 20 59.9990000  0  8 16  2 27 19 31 18 26  7
  24330344.963     1805444.52449   1411014.12549  24330344.7164   24330351.9664
  21171776.184    -8339112.94249  -6486248.97749  21171776.3004   21171782.4544
  20219831.441    -7662762.04849  -5961326.20149  20219832.0024   20219836.7204
  21040496.536     2305134.86849   1796562.63349  21040496.4274   21040502.5424
  23575394.450     8634033.29149   6726535.48649  23575395.2114   23575400.3414
  24011650.552    15512228.40049  12077450.42149  24011652.1944   24011658.5224
  24675082.759    -6066760.31449  -4712421.82149  24675084.5654   24675089.5124
  22839704.267   -12871416.05349 -10017015.55649  22839704.6174   22839711.4904
 96  4 20 17 21 29.9990000  0  8 16  2 27 19 31 18 26  7
  24339335.220     1852697.50849   1447834.58649  24339337.5534   24339343.6414
  21167076.971    -8363805.77549  -6505490.14049  21167077.6314   21167083.3584
  20215676.899    -7684598.17949  -5978341.36949  20215676.8464   20215681.1844
  21047709.685     2343041.49549   1826100.24849  21047709.7834   21047715.9164
  23592484.800     8723837.66949   6796512.90149  23592485.1634   23592490.3604
  24032305.148    15620772.12849  12162029.88349  24032306.8834   24032313.8914
  24657017.919    -6161694.93949  -4786396.82149  24657019.0334   24657024.1914
  22819866.329   -12975668.17249 -10098250.95649  22819866.6284   22819873.1864
 96  4 20 17 21 59.9990000  0  8 16  2 27 19 31 18 26  7
  24348389.230     1900265.58549   1484900.57749  24348389.4424   24348395.7814
  21162423.863    -8388262.21549  -6524547.10349  21162423.7954   21162429.4104
  20211586.636    -7706088.46549  -5995087.04749  20211587.4604   20211591.6414
  21054983.096     2381264.16749   1855884.13249  21054983.3194   21054989.0664
  23609637.907     8813977.89749   6866752.01449  23609638.6484   23609643.5934
  24052976.576    15729400.29149  12246675.13849  24052979.8494   24052985.1114
  24639000.149    -6256379.04649  -4860176.61749  24639001.7854   24639007.2784
  22800062.905   -13079733.94349 -10179341.15149  22800063.1354   22800069.8294
 96  4 20 17 22 29.9990000  0  8 16  2 27 19 31 18 26  7
  24357502.062     1948156.33849   1522218.01149  24357502.4494   24357510.4994
  21157813.825    -8412486.81949  -6543423.41649  21157814.1344   21157819.8654
  20207564.624    -7727226.90749  -6011558.56049  20207564.7244   20207569.4894
  21062317.366     2419807.89149   1885918.18549  21062317.9074   21062323.9344
  23626856.384     8904455.90049   6937254.32949  23626855.9124   23626860.1174
  24073663.754    15838106.29049  12331381.04349  24073664.3484   24073671.0334
  24621032.660    -6350794.71949  -4933747.24249  24621033.5584   24621039.5154
  22780298.941   -13183593.76749 -10260270.87549  22780299.2894   22780305.7914
 96  4 20 17 22 59.9990000  0  8 16  2 27 19 31 18 26  7
  24366676.879     1996369.61949   1559786.76249  24366677.3164   24366684.8644
  21153246.342    -8436486.50349  -6562124.46249  21153246.9704   21153253.0294
  20203608.527    -7748014.27549  -6027756.50349  20203608.9484   20203613.4194
  21069709.860     2458661.68749   1916193.85949  21069711.7944   21069717.5784
  23644137.453     8995270.79449   7008019.14549  23644137.0904   23644141.6784
  24094365.121    15946891.76949  12416148.88049  24094365.1374   24094372.0934
  24603118.179    -6444940.59049  -5007107.63449  24603119.6994   24603125.3814
  22760575.733   -13287241.29149 -10341035.15649  22760576.8004   22760583.1304
 96  4 20 17 23 29.9990000  0  8 16  2 27 19 31 18 26  7
  24375908.215     2044878.61749   1597585.94849  24375907.5454   24375915.8104
  21148720.968    -8460270.37349  -6580657.34349  21148720.9074   21148726.9864
  20199718.125    -7768460.03949  -6043688.27349  20199718.2434   20199723.3164
  21077160.968     2497808.05049   1946697.50149  21077161.1524   21077166.8284
  23661477.364     9086394.43149   7079024.54349  23661477.0704   23661482.0984
  24115077.588    16055738.76349  12500964.64449  24115077.8094   24115085.6694
  24585248.723    -6538849.39649  -5080283.29349  24585249.2684   24585255.2134
  22740889.838   -13390690.75549 -10421645.11049  22740890.2014   22740897.4254
 96  4 20 17 23 59.9990000  0  8 16  2 27 19 31 18 26  7
  24385192.056     2093669.15349   1635604.52549  24385192.5924   24385200.2754
  21144240.348    -8483813.91049  -6599002.95449  21144240.6964   21144246.5274
  20195894.865    -7788551.92949  -6059344.28949  20195895.0844   20195899.9074
  21084670.684     2537274.38249   1977450.47149  21084671.5294   21084676.9894
  23678875.934     9177818.40649   7150263.97449  23678875.2014   23678879.9084
  24135804.333    16164656.19849  12585835.28849  24135804.7104   24135811.2154
  24567420.542    -6632522.21049  -5153275.05449  24567423.5454   24567429.9654
  22721244.492   -13493925.49849 -10502087.73149  22721244.8634   22721251.6564
 96  4 20 17 24 29.9990000  0  8 16  2 27 19 31 18 26  7
  24394528.358     2142735.96249   1673838.36249  24394530.2884   24394537.4714
  21139809.396    -8507099.83949  -6617147.83249  21139809.5174   21139815.4164
  20192138.973    -7808288.50449  -6074723.43949  20192139.3774   20192144.1314
  21092242.491     2577059.68449   2008451.98949  21092242.4384   21092248.2814
  23696325.591     9269531.24749   7221728.48249  23696327.3184   23696331.8384
  24156542.881    16273638.84149  12670756.74649  24156543.9204   24156551.0444
  24549639.878    -6725969.60349  -5226091.17949  24549641.6774   24549647.1804
  22701642.160   -13596937.03249 -10582356.43149  22701643.1264   22701649.3844
 96  4 20 17 24 59.9990000  0  8 16  2 27 19 31 18 26  7
  24403916.079     2192066.64149   1712277.81249  24403916.5094   24403924.8934
  21135426.855    -8530128.78249  -6635092.46349  21135427.2884   21135433.1394
  20188450.485    -7827674.62749  -6089829.51249  20188450.3524   20188455.0644
  21099872.205     2617160.57149   2039699.41749  21099873.3804   21099879.1304
  23713832.652     9361519.83349   7293407.87849  23713832.0664   23713836.7084
  24177292.199    16382678.46049  12755722.59849  24177293.4884   24177299.5664
  24531897.816    -6819204.26249  -5298741.52449  24531899.6064   24531905.5634
  22682079.800   -13699733.40149 -10662457.46149  22682081.1674   22682088.7374
 96  4 20 17 25 29.9990000  0  8 16  2 27 19 31 18 26  7
  24413351.504     2241651.76249   1750915.51949  24413352.8554   24413360.8194
  21131094.879    -8552896.63049  -6652833.64649  21131094.8244   21131100.9604
  20184825.024    -7846721.78049  -6104671.44649  20184825.9024   20184830.7194
  21107565.081     2657590.98449   2071203.61749  21107567.0094   21107572.6264
  23731387.456     9453779.63449   7365298.60849  23731388.1774   23731393.9114
  24198051.677    16491775.35149  12840733.08249  24198054.0854   24198060.7944
  24514193.941    -6912238.96049  -5371236.06949  24514194.9864   24514200.9754
  22662558.910   -13802316.63249 -10742392.40849  22662560.2284   22662567.0264
 96  4 20 17 25 59.9990000  0  8 16  2 27 19 31 18 26  7
  24422837.322     2291495.96849   1789755.13249  24422838.2984   24422845.7844
  21126808.457    -8575420.74249  -6670384.90049  21126808.4524   21126814.7494
  20181262.719    -7865440.96349  -6119257.82149  20181263.2964   20181268.4914
  21115322.689     2698352.53949   2102965.84849  21115323.2104   21115328.9524
  23748995.918     9546311.88049   7437401.62749  23748996.0404   23749001.3714
  24218824.186    16600931.75849  12925789.93549  24218825.3674   24218832.4344
  24496530.272    -7005061.65549  -5443565.40649  24496531.4624   24496537.8224
  22643080.394   -13904679.78649 -10822155.87349  22643081.7714   22643087.8654
 96  4 20 17 26 29.9990000  0  8 16  2 27 19 31 18 26  7
  24432376.603     2341621.83949   1828814.22149  24432376.8644   24432383.2484
  21122566.166    -8597711.19549  -6687754.07649  21122566.6604   21122572.7574
  20177762.788    -7883835.95049  -6133591.57849  20177763.0524   20177767.8824
  21123141.035     2739438.66049   2134980.99649  21123142.0924   21123147.7584
  23766658.515     9639128.04649   7509725.88449  23766660.1354   23766663.6324
  24239607.366    16710144.28749  13010890.52649  24239608.3754   24239615.5674
  24478910.428    -7097651.91349  -5515713.63449  24478912.5594   24478917.9984
  22623646.617   -14006805.19449 -10901734.07949  22623647.2824   22623653.9814
 96  4 20 17 26 59.9990000  0  8 16  2 27 19 31 18 26  7
  24441969.492     2392033.41749   1868095.93349  24441968.9674   24441977.1164
  21118370.596    -8619760.90849  -6704935.66949  21118371.1674   21118376.9444
  20174326.313    -7901889.33549  -6147659.15349  20174327.3714   20174332.6044
  21131025.133     2780869.14149   2167264.47549  21131026.1194   21131031.7624
  23784379.385     9732252.31149   7582290.22749  23784380.1694   23784384.5134
  24260405.599    16819437.15849  13096053.73049  24260406.2584   24260413.3404
  24461342.857    -7189969.51049  -5587649.39749  24461345.0114   24461350.9824
  22604261.369   -14108675.37849 -10981113.40549  22604262.2224   22604268.5974
 96  4 20 17 27 29.9990000  0  8 16  2 27 19 31 18 26  7
  24451612.763     2442711.41149   1907585.23549  24451612.4134   24451619.7214
  21114215.213    -8641598.11349  -6721951.67149  21114215.6524   21114221.2964
  20170952.236    -7919620.92249  -6161475.97149  20170953.1344   20170958.2204
  21138968.483     2822607.68649   2199788.00149  21138968.6434   21138974.2474
  23802155.299     9825660.36249   7655075.68649  23802155.1924   23802160.3304
  24281215.135    16928787.14949  13181261.43549  24281214.9364   24281222.0874
  24443827.524    -7282020.29649  -5659377.25449  24443828.9324   24443834.2004
  22584920.179   -14210311.64949 -11060310.46249  22584921.2184   22584927.6404
 96  4 20 17 27 59.9990000  0  8 16  2 27 19 31 18 26  7
  24461311.729     2493679.25849   1947300.39949  24461311.8924   24461320.1254
  21110100.861    -8663222.31549  -6738801.69649  21110100.9204   21110106.3774
  20167645.072    -7937002.19149  -6175019.81649  20167645.7224   20167650.9554
  21146968.744     2864646.44549   2232545.46149  21146968.4084   21146973.8244
  23819980.460     9919350.99849   7728081.33849  23819984.9224   23819988.7504
  24302031.952    17038183.45749  13266505.22749  24302032.5224   24302039.3794
  24426366.306    -7373772.66849  -5730872.57149  24426367.8354   24426374.9144
  22565627.486   -14311697.70549 -11139312.54349  22565628.3014   22565634.6494
 96  4 20 17 28 29.9990000  0  8 16  2 27 19 31 18 26  7
  24471065.901     2544935.72049   1987240.46649  24471066.4074   24471071.8934
  21106026.962    -8684629.12549  -6755482.32749  21106027.4784   21106032.7764
  20164408.923    -7954011.42349  -6188273.76149  20164408.8264   20164414.2374
  21155021.991     2906973.24449   2265527.37049  21155022.9624   21155028.9034
  23837865.386    10013318.08549   7801302.40649  23837865.1574   23837870.6114
  24322855.782    17147613.80149  13351775.54149  24322856.4374   24322863.5554
  24408961.631    -7465233.03849  -5802140.36249  24408964.1744   24408970.1724
  22546380.560   -14412841.91449 -11218126.17749  22546380.9514   22546387.8724
 96  4 20 17 28 59.9990000  0  8 16  2 27 19 31 18 26  7
  24480871.279     2596467.82249   2027395.30849  24480871.5594   24480880.2264
  21101995.185    -8705815.26649  -6771991.00749  21101995.5994   21102001.3554
  20161245.823    -7970631.36549  -6201224.36449  20161246.3254   20161251.6954
  21163132.169     2949593.21149   2298737.72149  21163133.3364   21163139.0574
  23855798.234    10107562.39849   7874739.48549  23855799.9384   23855804.4024
  24343686.912    17257084.28949  13437077.12949  24343687.7014   24343694.5204
  24391615.406    -7556396.15749  -5873176.53049  24391616.7864   24391621.9954
  22527178.193   -14513752.21949 -11296757.54849  22527178.4764   22527185.2634
 96  4 20 17 29 29.9990000  0  8 16  2 27 19 31 18 26  7
  24490729.099     2648268.64449   2067759.53549  24490729.3254   24490736.9244
  21098002.691    -8726795.50449  -6788339.23749  21098003.0574   21098008.9244
  20158154.857    -7986876.10649  -6213882.61049  20158155.2484   20158160.3574
  21171297.013     2992496.68249   2332168.97849  21171297.6124   21171303.4014
  23873785.776    10202068.86049   7948380.84949  23873784.0124   23873788.8114
  24364522.921    17366574.80149  13522394.32249  24364524.1644   24364531.0634
  24374319.202    -7647286.62149  -5944000.24149  24374320.3064   24374326.4404
  22508017.401   -14614441.99249 -11375217.07549  22508017.9234   22508024.4884
 96  4 20 17 29 59.9990000  0  8 16  2 27 19 31 18 26  7
  24500634.585     2700321.44449   2108320.11049  24500633.4684   24500641.3824
  21094050.379    -8747566.19849  -6804524.19049  21094050.7214   21094056.4244
  20155135.231    -8002742.51049  -6226246.04249  20155135.9004   20155141.2434
  21179516.782     3035696.12549   2365830.86849  21179518.0814   21179523.5664
  23891817.342    10296838.75949   8022227.49249  23891818.1194   23891822.3174
  24385361.362    17476088.69949  13607729.74649  24385363.3324   24385370.9124
  24357076.182    -7737903.06249  -6014610.42249  24357075.9634   24357082.8504
  22488898.230   -14714911.86249 -11453505.24949  22488898.8084   22488905.6944
 96  4 20 17 30 29.9990000  0  8 16  2 27 19 31 18 26  7
  24510583.556     2752612.08349   2149066.00949  24510584.6064   24510592.7894
  21090140.271    -8768113.33649  -6820534.95149  21090140.5094   21090146.3734
  20152187.341    -8018234.19549  -6238317.49049  20152187.7154   20152193.2554
  21187796.717     3079205.00849   2399733.87749  21187797.4974   21187803.3894
  23909907.950    10391896.37749   8096298.33149  23909906.9934   23909910.8584
  24406212.582    17585656.10249  13693106.85249  24406213.2114   24406220.5114
  24339885.074    -7828245.71249  -6085007.27149  24339884.9034   24339890.1334
  22469822.109   -14815158.23349 -11531619.27349  22469823.0754   22469829.6394
 96  4 20 17 30 59.9990000  0  9 16  2 15 27 19 31 18 26  7
  24520578.683     2805123.45849   2189983.91449  24520577.5484   24520585.5174
  21086273.896    -8788429.26749  -6836365.54549  21086274.4024   21086280.1154
  24573170.763    -2565369.73159  -1990932.40759  24573170.0684   24573177.7614
  20149306.204    -8033374.61449  -6250115.22349  20149306.7044   20149312.2174
  21196133.958     3123020.80049   2433876.03849  21196135.3714   21196140.9684
  23928049.358    10487236.41649   8170589.23949  23928049.1494   23928055.0044
  24427072.993    17695275.01849  13778524.09349  24427072.2884   24427080.0614
  24322744.725    -7918320.25949  -6155195.21349  24322744.5064   24322749.8434
  22450788.895   -14915178.86949 -11609557.39749  22450789.6234   22450796.3484
 96  4 20 17 31 29.9990000  0  9 16  2 15 27 19 31 18 26  7
  24530615.449     2857869.69249   2231084.82549  24530616.0804   24530622.2114
  21082455.086    -8808502.91249  -6852007.34649  21082454.9204   21082460.5754
  24560516.776    -2631842.59149  -2042729.38849  24560520.9064   24560528.6324
  20146493.846    -8048153.74649  -6261631.43449  20146494.6044   20146499.8324
  21204531.402     3167141.91149   2468256.10949  21204531.4994   21204536.8874
  23946242.875    10582850.78549   8245093.91149  23946244.5924   23946249.5364
  24447941.386    17804941.75149  13863978.60749  24447941.9154   24447949.8874
  24305650.785    -8008139.91049  -6225184.51549  24305652.6694   24305657.2674
  22431801.069   -15014961.40949 -11687309.99749  22431801.6214   22431808.2154
 96  4 20 17 31 59.9990000  0  9 16  2 15 27 19 31 18 26  7
  24540697.974     2910851.22849   2272369.09649  24540697.0764   24540705.6274
  21078684.060    -8828319.28449  -6867448.68049  21078684.0044   21078689.4784
  24547915.658    -2698068.72349  -2094334.10749  24547918.8664   24547924.9084
  20143752.826    -8062558.83949  -6272856.18049  20143753.1764   20143758.1794
  21212984.909     3211569.26049   2502874.80549  21212985.5094   21212991.0514
  23964492.661    10678732.97349   8319807.26449  23964490.2454   23964494.6234
  24468820.690    17914662.89149  13949475.50049  24468820.9804   24468828.7064
  24288608.094    -8097701.71149  -6294972.91149  24288609.1904   24288616.2534
  22412860.839   -15114493.42949 -11764867.38649  22412861.3424   22412867.8074
 96  4 20 17 32 29.9990000  0  9 16  2 15 27 19 31 18 26  7
  24550823.846     2964068.04049   2313836.70949  24550823.3384   24550831.9714
  21074963.820    -8847865.87249  -6882679.78249  21074964.0894   21074969.7374
  24535359.644    -2764040.07949  -2145740.30849  24535364.7854   24535371.4924
  20141081.771    -8076594.84549  -6283793.33049  20141082.3584   20141087.1254
  21221497.842     3256303.35049   2537732.52449  21221498.1624   21221503.4214
  23982783.496    10774875.45249   8394723.44449  23982785.7804   23982791.1224
  24489706.120    18024422.85649  14035002.64949  24489708.2824   24489714.5364
  24271613.267    -8187013.53349  -6364566.51149  24271613.5494   24271619.4174
  22393969.159   -15213768.10249 -11842224.24349  22393969.6894   22393976.4864
 96  4 20 17 32 59.9990000  0  9 16  2 15 27 19 31 18 26  7
  24560991.907     3017503.41549   2355474.63049  24560991.6414   24560999.4894
  21071292.621    -8867155.72749  -6897710.83749  21071293.4344   21071299.1354
  24522856.602    -2829762.99949  -2196952.90349  24522857.6484   24522866.5474
  20138479.307    -8090271.50949  -6294450.47349  20138479.7204   20138484.3764
  21230066.823     3301334.99649   2572822.09849  21230067.5584   21230073.3264
  24001124.871    10871244.67349   8469816.28849  24001124.3024   24001129.0684
  24510594.398    18134187.75249  14120533.64149  24510596.1534   24510603.2394
  24254663.208    -8276085.55549  -6433973.24649  24254663.8414   24254668.6104
  22375126.921   -15312783.47049 -11919379.04949  22375127.8914   22375134.3794
 96  4 20 17 33 29.9990000  0  9 16  2 15 27 19 31 18 26  7
  24571203.079     3071162.81049   2397287.12549  24571203.6944   24571212.3194
  21067670.141    -8886197.10049  -6912548.26649  21067670.1414   21067675.8144
  24510403.186    -2895224.93649  -2247962.14349  24510401.0994   24510408.4054
  20135946.996    -8103582.13149  -6304822.38749  20135946.8474   20135951.3014
  21238694.884     3346675.81249   2608152.58749  21238695.6604   21238701.4184
  24019503.688    10967838.23549   8545083.95549  24019505.1694   24019509.6854
  24531483.584    18243959.00349  14206069.58749  24531484.3104   24531492.4454
  24237762.302    -8364895.37049  -6503175.68049  24237763.9724   24237768.9814
  22356335.642   -15411533.60549 -11996327.17549  22356336.5104   22356342.6374
 96  4 20 17 33 59.9990000  0  9 16  2 15 27 19 31 18 26  7
  24581455.130     3125029.82649   2439261.39449  24581454.2374   24581462.0234
  21064091.020    -8905003.68649  -6927202.74649  21064091.3894   21064097.1814
  24497996.571    -2960423.26949  -2298766.00549  24497994.4744   24498000.5424
  20133479.671    -8116547.13949  -6314924.99749  20133479.7644   20133484.6824
  21247381.651     3392325.08749   2643723.43349  21247382.5634   21247388.0154
  24037929.950    11064657.33949   8620527.37149  24037928.3084   24037933.1774
  24552373.739    18353729.12549  14291604.63649  24552373.1664   24552380.4614
  24220917.133    -8453423.16149  -6572158.35249  24220917.3724   24220921.9044
  22337593.841   -15510021.53849 -12073070.98949  22337594.3404   22337601.2214
 96  4 20 17 34 29.9990000  0  9 16  2 15 27 19 31 18 26  7
  24591745.789     3179116.18949   2481406.56649  24591747.2124   24591754.5124
  21060555.128    -8923585.92749  -6941682.41949  21060555.2674   21060560.9494
  24485642.476    -3025351.22549  -2349359.18849  24485638.7154   24485645.1264
  20131078.610    -8129162.41549  -6324755.08949  20131079.3174   20131084.2534
  21256128.839     3438290.30249   2679540.45449  21256129.3374   21256134.8284
  24056396.715    11161704.50949   8696148.51449  24056396.6614   24056401.7184
  24573259.775    18463488.12849  14377131.02549  24573260.2494   24573267.2234
  24204127.087    -8541653.11149  -6640908.94549  24204127.2904   24204132.2474
  22318904.099   -15608235.58649 -12149601.39049  22318904.7744   22318911.4544
 96  4 20 17 34 59.9990000  0  9 16  2 15 27 19 31 18 26  7
  24602080.609     3233422.81049   2523723.37949  24602080.3104   24602089.3344
  21057053.403    -8941985.47749  -6956019.73049  21057053.9064   21057060.0094
  24473334.113    -3090024.32949  -2399753.77149  24473331.9814   24473338.2624
  20128741.977    -8141441.24949  -6334323.01849  20128742.6754   20128747.7734
  21264932.254     3484553.04049   2715589.31949  21264933.1164   21264938.6384
  24074904.046    11258960.76849   8771932.56549  24074904.5214   24074909.1924
  24594142.764    18573230.16249  14462644.18849  24594143.2094   24594151.0034
  24187393.204    -8629595.17249  -6709435.20549  24187392.9844   24187397.8284
  22300262.703   -15706196.18749 -12225934.29649  22300263.2484   22300269.7364
 96  4 20 17 35 29.9990000  0  9 16  2 15 27 19 31 18 26  7
  24612466.270     3287998.67249   2566249.97949  24612466.4474   24612473.7914
  21053588.999    -8960189.09049  -6970204.36449  21053589.7234   21053595.7154
  24461076.546    -3154413.82049  -2449927.36149  24461078.3634   24461085.7994
  20126477.478    -8153339.11549  -6343594.08749  20126478.5264   20126483.4484
  21273800.164     3531150.94549   2751899.34349  21273800.5654   21273805.4934
  24093457.736    11356468.35749   8847912.46349  24093458.4994   24093464.8394
  24615027.839    18682987.36549  14548169.18349  24615028.5594   24615036.7124
  24170717.226    -8717215.03049  -6777710.38449  24170718.9554   24170724.1394
  22281673.157   -15803886.09949 -12302056.27849  22281673.5694   22281679.8204
 96  4 20 17 35 59.9990000  0  9 16  2 15 27 19 31 18 26  7
  24622902.633     3342842.67449   2608985.53449  24622903.6074   24622910.8924
  21050162.898    -8978196.68349  -6984236.25549  21050163.1324   21050169.1174
  24448875.113    -3218522.34749  -2499882.00449  24448879.3114   24448886.8194
  20124286.570    -8164853.87949  -6352566.63549  20124287.2754   20124291.9854
  21282732.918     3578091.55449   2788476.41349  21282733.0794   21282738.4654
  24112064.448    11454239.41849   8924097.65949  24112063.9144   24112069.2784
  24635916.791    18792755.00949  14633702.30349  24635917.3884   24635924.0604
  24154104.453    -8804524.61549  -6845743.79849  24154104.4664   24154109.8754
  22263136.606   -15901296.74949 -12377960.65849  22263136.7914   22263143.4994
 96  4 20 17 36 29.9990000  0  9 16  2 15 27 19 31 18 26  7
  24633386.825     3397934.13749   2651913.93349  24633386.1054   24633394.7344
  21046771.642    -8996014.40949  -6998120.20249  21046772.3524   21046778.2324
  24436727.617    -3282358.74549  -2549624.60749  24436731.9384   24436738.9674
  20122169.282    -8175982.78549  -6361238.51649  20122169.5354   20122174.2964
  21291730.634     3625378.52149   2825323.37349  21291731.5124   21291736.8064
  24130716.023    11552263.17749   9000479.75549  24130717.2174   24130723.1104
  24656805.940    18902526.65049  14719238.53949  24656806.2064   24656813.5244
  24137543.773    -8891548.63249  -6913554.69149  24137544.3204   24137550.1244
  22244652.118   -15998434.16249 -12453652.12649  22244652.4324   22244658.7674
 96  4 20 17 36 59.9990000  0  9 16  2 15 27 19 31 18 26  7
  24643913.619     3453255.12149   2695021.16049  24643914.1904   24643922.6024
  21043417.405    -9013642.98649  -7011856.75349  21043417.5974   21043423.6984
  24424628.476    -3345922.91949  -2599155.08949  24424635.3594   24424642.6364
  20120125.929    -8186717.09649  -6369602.92049  20120126.7074   20120131.5054
  21300793.936     3673007.80349   2862437.07249  21300794.7724   21300800.0504
  24149416.967    11650544.82549   9077062.81849  24149419.2564   24149425.7704
  24677694.998    19012301.51249  14804777.27349  24677696.0774   24677703.4054
  24121037.370    -8978290.02549  -6981145.37049  24121038.0284   24121044.8764
  22226218.917   -16095302.05949 -12529133.57749  22226219.2244   22226225.5934
 96  4 20 17 37 29.9990000  0  9 16  2 15 27 19 31 18 26  7
  24654480.443     3508784.96249   2738291.14449  24654480.9474   24654489.1294
  21040102.309    -9031063.55449  -7025431.21949  21040102.5004   21040108.3874
  24412585.700    -3409207.33649  -2648467.57249  24412592.5964   24412600.0654
  20118159.796    -8197052.60149  -6377656.56149  20118159.9474   20118164.6354
  21309923.454     3720982.96049   2899820.29149  21309924.0674   21309929.3194
  24168170.574    11749083.16749   9153845.89049  24168169.9964   24168176.2524
  24698581.777    19122078.09449  14890317.35249  24698585.6194   24698594.2684
  24104586.607    -9064733.78649  -7048504.12349  24104588.2824   24104594.7874
  22207839.742   -16191885.07849 -12604393.04649  22207839.6574   22207846.8174
 96  4 20 17 37 59.9990000  0  9 16  2 15 27 19 31 18 26  7
  24665080.490     3564482.92749   2781692.11849  24665079.7674   24665088.7354
  21036828.233    -9048267.48349  -7038836.87849  21036828.7614   21036834.6894
  24400595.494    -3472218.73549  -2697567.32249  24400602.3174   24400609.6844
  20116264.480    -8207010.50249  -6385415.96849  20116265.0544   20116270.0544
  21319114.246     3769280.66649   2937454.84549  21319114.9884   21319120.5864
  24186963.718    11847842.32349   9230801.02949  24186963.4144   24186970.0394
  24719471.800    19231848.48849  14975852.60649  24719475.5034   24719481.9734
  24088191.850    -9150891.94249  -7115640.32449  24088193.1654   24088199.4824
  22189516.006   -16288174.93849 -12679424.08049  22189516.5464   22189523.2774
 96  4 20 17 38 29.9990000  0  9 16  2 15 27 19 31 18 26  7
  24675712.544     3620360.33449   2825232.93449  24675713.0624   24675722.1804
  21033599.077    -9065235.82249  -7052058.95849  21033600.0134   21033605.9674
  24388666.643    -3534935.91249  -2746437.82349  24388666.8124   24388675.1074
  20114446.817    -8216562.32549  -6392858.94549  20114447.0784   20114452.7284
  21328363.814     3817890.04749   2975332.27049  21328364.8084   21328370.5224
  24205799.037    11946818.03849   9307924.92349  24205797.1864   24205804.3264
  24740364.674    19341632.33449  15061398.33849  24740365.3974   24740374.1034
  24071856.033    -9236740.69749  -7182535.44949  24071856.9484   24071862.7844
  22171249.745   -16384161.73649 -12754218.95749  22171250.9864   22171257.3384
 96  4 20 17 38 59.9990000  0  9 16  2 15 27 19 31 18 26  7
  24686382.935     3676437.05249   2868929.07149  24686383.6914   24686391.3574
  21030416.651    -9081960.54349  -7065091.20849  21030417.2764   21030423.2234
  24376794.990    -3597347.32049  -2795070.06449  24376791.2404   24376798.4344
  20112704.910    -8225712.16949  -6399988.70649  20112705.8324   20112711.4194
  21337671.701     3866800.74349   3013444.47949  21337672.5004   21337677.7424
  24224672.146    12046004.12649   9385212.73249  24224672.6764   24224677.9744
  24761261.311    19451444.69549  15146966.28349  24761261.5964   24761268.8774
  24055582.567    -9322251.48749  -7249167.22549  24055585.2734   24055590.7754
  22153042.168   -16479846.98549 -12828778.86849  22153042.4024   22153049.0054
 96  4 20 17 39 29.9990000  0  8 16  2 15 27 19 31 26  7
  24697087.543     3732684.53249   2912758.25249  24697087.8284   24697095.3654
  21027277.997    -9098455.08249  -7077944.09749  21027278.5754   21027284.2834
  24364970.588    -3659473.80249  -2843480.27649  24364968.6194   24364975.9464
  20111033.939    -8234496.22749  -6406833.43549  20111034.4464   20111039.7484
  21347032.637     3915996.12849   3051778.51949  21347034.2834   21347039.4224
  24243577.071    12145362.29549   9462634.62949  24243579.3894   24243585.7374
  24039373.531    -9407442.31049  -7315549.68149  24039373.1014   24039379.5514
  22134884.410   -16575265.37449 -12903130.83149  22134884.9984   22134891.3004
 96  4 20 17 39 59.9990000  0  7  2 15 27 19 31 26  7
  21024181.168    -9114728.36349  -7090624.57549  21024182.0514   21024187.4624
  24353200.441    -3721318.96049  -2891671.27949  24353200.3674   24353207.2844
  20109432.818    -8242908.53949  -6413388.48849  20109433.6924   20109439.1864
  21356448.572     3965467.89749   3090327.93049  21356448.0764   21356453.3394
  24262516.654    12244888.41149   9540187.39349  24262518.3994   24262525.3794
  24023217.265    -9492333.31749  -7381698.48349  24023219.6694   24023225.6924
  22116773.986   -16670434.37149 -12977288.45849  22116774.9504   22116781.5504
 96  4 20 17 40 29.9990000  0  7  2 15 27 19 31 26  7
  21021126.854    -9130778.53649  -7103131.20849  21021127.6574   21021133.2944
  24341489.490    -3782869.27749  -2939632.53349  24341487.2584   24341495.0884
  20107904.431    -8250943.98149  -6419649.87649  20107904.8214   20107909.9334
  21365918.326     4015239.16349   3129110.70949  21365919.1634   21365924.8844
  24281494.112    12344613.76049   9617895.39649  24281495.6054   24281503.1334
  24007125.438    -9576900.80749  -7447595.22149  24007126.3564   24007132.7464
  22098708.636   -16765367.65049 -13051262.41549  22098709.4414   22098716.6664
 96  4 20 17 40 59.9990000  0  7  2 15 27 19 31 26  7
  21018113.047    -9146616.76649  -7115472.69149  21018113.4884   21018119.1614
  24329833.967    -3844125.63749  -2987364.72949  24329830.9924   24329837.3144
  20106444.650    -8258616.33449  -6425628.33849  20106444.9134   20106449.7984
  21375449.332     4065327.41849   3168140.49749  21375450.5374   21375456.3674
  24300507.794    12444535.60049   9695756.51149  24300510.0184   24300517.5504
  23991093.214    -9661148.76249  -7513242.95649  23991094.6734   23991101.9094
  22080688.431   -16860065.91349 -13125053.23949  22080689.0374   22080696.3094
 96  4 20 17 41 29.9990000  0  7  2 15 27 19 31 26  7
  21015141.999    -9162228.00249  -7127637.28749  21015142.7364   21015148.3274
  24318237.248    -3905067.94849  -3034852.20949  24318233.4944   24318239.9314
  20105058.934    -8265895.16849  -6431300.16149  20105059.8254   20105064.8454
  21385045.783     4115754.15849   3207434.04249  21385046.5264   21385052.1414
  24319564.408    12544680.75149   9773791.63949  24319567.4124   24319574.7684
  23975121.976    -9745078.19649  -7578642.50149  23975123.4684   23975130.0944
  22062720.176   -16954487.75349 -13198628.67149  22062721.3654   22062727.7054
 96  4 20 17 41 59.9990000  0  7  2 15 27 19 31 26  7
  21012210.605    -9177634.62649  -7139642.45249  21012211.2764   21012216.8204
  24306690.225    -3965712.38349  -3082107.57849  24306693.8554   24306699.7964
  20103744.185    -8272806.48449  -6436685.60549  20103744.5174   20103749.5594
  21394699.011     4166482.17749   3246962.34549  21394699.8454   21394705.7224
  24338663.990    12645035.98649   9851990.47149  24338664.5424   24338670.4724
  23959206.103    -9828717.22449  -7643815.75349  23959208.2864   23959214.2814
  22044804.925   -17048634.43449 -13271989.69549  22044805.7374   22044812.4334
 96  4 20 17 42 29.9990000  0  7  2 15 27 19 31 26  7
  21009318.871    -9192830.56749  -7151483.44449  21009319.6474   21009325.1444
  24295207.169    -4026052.28249  -3129125.63249  24295210.8084   24295217.6664
  20102497.549    -8279357.25149  -6441790.09949  20102497.8154   20102503.0014
  21404409.991     4217512.41949   3286726.15449  21404411.0674   21404416.6294
  24357798.523    12745600.70349   9930352.53849  24357800.2214   24357808.9144
  23943350.507    -9912044.16149  -7708745.82549  23943350.5364   23943357.0594
  22026945.164   -17142487.02449 -13345121.55649  22026946.4744   22026952.5424
 96  4 20 17 42 59.9990000  0  7  2 15 27 19 31 26  7
  21006469.135    -9207808.03149  -7163154.19049  21006469.5874   21006474.8984
  24283781.839    -4086083.18649  -3175902.91549  24283788.2164   24283794.6694
  20101322.886    -8285530.44949  -6446600.38749  20101323.4554   20101328.1154
  21414174.886     4268825.91649   3326710.67049  21414175.6344   21414180.9024
  24376973.842    12846356.34249  10008863.36749  24376974.9714   24376981.0284
  23927551.391    -9995066.05549  -7773438.17749  23927552.4164   23927558.5144
  22009148.014   -17236012.44249 -13417998.47949  22009149.0084   22009155.6764
 96  4 20 17 43 29.9990000  0  7  2 15 27 19 31 26  7
  21003664.332    -9222545.77949  -7174638.15149  21003664.9844   21003670.4454
  24272421.891    -4145787.19949  -3222425.47249  24272426.2634   24272433.1074
  20100225.504    -8291298.88549  -6451095.27349  20100225.4214   20100230.6804
  21423994.680     4320431.13749   3366922.50449  21423995.5764   21424001.0364
  24396184.717    12947319.00149  10087535.51249  24396187.2594   24396194.3074
  23911813.220   -10077764.70349  -7837878.66049  23911815.1004   23911820.6354
  21991417.015   -17329191.79749 -13490605.74549  21991417.5824   21991424.2784
 96  4 20 17 43 59.9990000  0  7  2 15 27 19 31 26  7
  21000899.402    -9237074.24349  -7185959.03449  21000900.0854   21000905.9144
  24261119.502    -4205177.55049  -3268703.62949  24261124.6224   24261131.2524
  20099202.631    -8296672.37749  -6455282.41349  20099202.9614   20099208.0804
  21433867.918     4372312.33449   3407349.38749  21433868.3264   21433873.9784
  24415428.904    13048452.69649  10166340.92749  24415431.7434   24415438.1114
  23896139.546   -10160138.29649  -7902065.86149  23896140.1534   23896145.8384
  21973744.247   -17422057.52749 -13562968.63149  21973745.7394   21973752.2624
 96  4 20 17 44 29.9990000  0  6  2 15 27 19 26  7
  20998174.467    -9251395.10249  -7197118.14849  20998175.2504   20998180.7534
  24249882.367    -4264237.55649  -3314724.36249  24249885.6514   24249893.0664
  20098260.825    -8301620.17849  -6459137.84949  20098261.5074   20098266.7804
  21443798.903     4424499.22949   3448014.47049  21443798.8744   21443805.1344
  23880528.994   -10242168.90449  -7965985.79849  23880530.1874   23880536.3784
  21956135.704   -17514593.66149 -13635074.68949  21956136.5874   21956143.1154
 96  4 20 17 44 59.9990000  0  6  2 15 27 19 26  7
  20995483.236    -9265537.76749  -7208138.40649  20995483.7044   20995489.7484
  24238708.730    -4322971.49449  -3360491.01049  24238708.9814   24238716.6414
  20097400.072    -8306143.95249  -6462662.86849  20097400.5904   20097405.7194
  21453786.487     4476989.09449   3488915.64449  21453787.5654   21453793.4664
  23864979.615   -10323879.35649  -8029656.27249  23864981.0774   23864986.9874
  21938587.703   -17606811.58049 -13706932.78549  21938588.2914   21938594.8524
 96  4 20 17 45 29.9990000  0  6  2 15 27 19 26  7
  20992819.961    -9279532.91049  -7219043.71349  20992820.6004   20992826.6324
  24227589.812    -4381390.48149  -3406012.24249  24227592.1584   24227598.8834
  20096614.455    -8310269.52049  -6465877.59849  20096615.7254   20096620.6654
  21463836.041     4529795.30649   3530063.31449  21463836.5694   21463842.0944
  23849489.096   -10405281.04349  -8093086.14249  23849490.4224   23849497.0944
  21921094.020   -17698743.91849 -13778568.35549  21921093.9434   21921100.3864
 96  4 20 17 45 59.9990000  0  6  2 15 27 19 26  7
  20990187.931    -9293364.35749  -7229821.46749  20990188.6764   20990194.5614
  24216539.353    -4439477.40749  -3451274.70949  24216538.3804   24216545.5284
  20095906.558    -8313992.56449  -6468778.67449  20095907.2944   20095912.2124
  21473948.562     4582940.43749   3571475.07949  21473949.5844   21473955.4444
  23834061.053   -10486356.08649  -8156261.47449  23834062.1204   23834068.5844
  21903657.768   -17790371.88749 -13849966.75149  21903657.5224   21903664.1074
 96  4 20 17 46 29.9990000  0  6  2 15 27 19 26  7
  20987589.213    -9307023.17149  -7240464.69949  20987589.5234   20987595.0854
  24205546.867    -4497239.30849  -3496283.93649  24205546.8354   24205552.8484
  20095271.820    -8317328.77449  -6471378.32449  20095272.3204   20095277.3584
  21484127.170     4636422.55949   3613149.43049  21484126.7464   21484132.9254
  23818692.404   -10567121.86449  -8219195.83249  23818693.2404   23818698.6704
  21886278.470   -17881700.15349 -13921131.61449  21886278.9744   21886285.0474
 96  4 20 17 46 59.9990000  0  6  2 15 27 19 26  7
  20985027.999    -9320481.56549  -7250951.75749  20985028.4774   20985033.6924
  24194622.889    -4554662.90149  -3541029.53849  24194620.2304   24194624.2784
  20094712.584    -8320269.30349  -6473669.64949  20094712.7304   20094717.7634
  21494367.198     4690246.15949   3655089.87049  21494369.1914   21494375.1084
  23803387.568   -10647548.68349  -8281866.06149  23803389.2044   23803395.0804
  21868957.594   -17972718.07049 -13992054.64449  21868958.3744   21868964.7534
 96  4 20 17 47 29.9990000  0  6  2 15 27 19 26  7
  20982508.508    -9333721.14349  -7261268.31049  20982509.0054   20982514.3984
  24183759.721    -4611754.67249  -3585516.57549  24183755.4094   24183760.3514
  20094227.560    -8322816.61449  -6475654.57549  20094228.2784   20094232.9914
  21504674.546     4744400.62649   3697288.12749  21504674.7824   21504680.3254
  23788150.967   -10727617.21949  -8344257.11749  23788152.0634   23788157.5364
  21851695.490   -18063430.01249 -14062739.25349  21851696.4654   21851702.8424
 96  4 20 17 47 59.9990000  0  6  2 15 27 19 26  7
  20980036.040    -9346715.52649  -7271393.80649  20980035.9504   20980041.7634
  24172961.117    -4668499.41449  -3629733.20449  24172956.7014   24172962.2084
  20093821.603    -8324948.97749  -6477316.15649  20093822.4374   20093827.4354
  21515037.577     4798866.07749   3739728.71449  21515039.2264   21515044.6004
  23772986.038   -10807308.74549  -8406354.40349  23772986.7254   23772992.4254
  21834496.897   -18153809.18749 -14133164.56349  21834497.7984   21834503.9764
 96  4 20 17 48 29.9990000  0  6  2 15 27 19 26  7
  20977604.894    -9359491.22549  -7281348.89649  20977605.1134   20977610.9314
  24162227.093    -4724912.03449  -3673691.03149  24162221.6674   24162228.3114
  20093492.768    -8326676.92649  -6478662.61749  20093493.7734   20093498.4294
  21525455.027     4853604.11249   3782381.70249  21525455.6114   21525461.2944
  23757889.239   -10886633.91049  -8468166.19349  23757892.0434   23757898.1504
  21817359.012   -18243872.11249 -14203343.44349  21817359.6854   21817365.4954
 96  4 20 17 48 59.9990000  0  6  2 15 27 19 26  7
  20975219.201    -9372025.92549  -7291116.19349  20975219.4934   20975225.6994
  24151557.441    -4780968.24249  -3717371.14849  24151554.3134   24151561.8734
  20093244.784    -8327978.61749  -6479676.93149  20093245.9944   20093250.7264
  21535922.542     4908620.78949   3825251.80849  21535925.1874   21535930.0084
  23742874.763   -10965556.75849  -8529664.49949  23742873.4824   23742879.1484
  21800284.621   -18333597.25749 -14273259.12349  21800285.6974   21800291.9344
 96  4 20 17 49 29.9990000  0  6  2 15 27 19 26  7
  20972876.174    -9384335.96649  -7300708.43149  20972876.8164   20972883.3394
  24140954.719    -4836672.77549  -3760777.22949  24140954.3104   24140960.0074
  20093075.980    -8328868.96049  -6480370.71349  20093076.3494   20093081.3254
  21546445.284     4963907.41749   3868332.26149  21546445.9114   21546450.8954
  23727926.301   -11044102.38749  -8590868.84849  23727927.7254   23727932.9504
  21783270.838   -18423006.14449 -14342928.36549  21783271.8204   21783277.7164
 96  4 20 17 49 59.9990000  0  6  2 15 27 19 26  7
  20970575.220    -9396429.42149  -7310131.89749  20970575.7984   20970581.7074
  24130422.593    -4892019.93549  -3803904.84949  24130422.4074   24130428.6034
  20092983.758    -8329353.05449  -6480747.93049  20092984.2934   20092989.1604
  21557019.774     5019473.74949   3911630.66949  21557019.3494   21557024.8174
  23713049.715   -11122283.26049  -8651788.98049  23713049.9914   23713055.4084
  21766316.634   -18512099.60149 -14412351.81649  21766317.7354   21766323.5984
 96  4 20 17 50 29.9990000  0  6  2 15 27 19 26  7
  20968313.280    -9408319.90549  -7319397.21549  20968313.1884   20968319.0884
  24119954.444    -4947018.29149  -3846760.67849  24119955.7054   24119962.7374
  20092965.233    -8329448.98449  -6480822.68949  20092966.2384   20092971.3084
  21567648.079     5075336.42249   3955159.99449  21567649.6124   21567655.2534
  23698239.734   -11200111.65749  -8712434.45949  23698240.0624   23698244.9534
  21749421.954   -18600884.30049 -14481534.67849  21749422.5224   21749428.7284
 96  4 20 17 50 59.9990000  0  6  2 15 27 19 26  7
  20966092.346    -9419989.59949  -7328490.48149  20966092.6564   20966098.2244
  24109559.492    -5001653.41749  -3889333.48649  24109559.4234   24109566.4404
  20093022.284    -8329151.37749  -6480590.79949  20093022.7314   20093027.9174
  21578342.577     5131530.69749   3998947.71549  21578343.3464   21578348.7854
  23683496.371   -11277582.73249  -8772801.51049  23683496.9714   23683503.3054
  21732587.499   -18689348.67649 -14550467.93649  21732588.1294   21732594.0474
 96  4 20 17 51 29.9990000  0  6  2 15 27 19 26  7
  20963910.076    -9431453.00349  -7337423.00549  20963910.9174   20963916.7814
  24099231.179    -5055925.41049  -3931623.32949  24099232.3144   24099239.4864
  20093151.188    -8328471.41149  -6480060.96749  20093152.3044   20093157.1144
  21589102.092     5188073.18449   4043006.76149  21589102.6574   21589108.3214
  23668820.167   -11354712.50149  -8832902.60949  23668819.4964   23668826.0644
  21715816.300   -18777480.65249 -14619142.18249  21715817.2174   21715823.1684
 96  4 20 17 51 59.9990000  0  6  2 15 27 19 26  7
  20961766.874    -9442718.42449  -7346201.25749  20961767.5094   20961773.2234
  24088969.922    -5109836.87849  -3973632.24549  24088973.0144   24088980.2354
  20093354.652    -8327402.34749  -6479227.93549  20093355.6184   20093360.5754
  21599928.075     5244963.57749   4087336.90049  21599928.8694   21599934.1324
  23654205.901   -11431499.67949  -8892736.75049  23654207.0164   23654213.6944
  21699113.192   -18865256.47049 -14687538.90649  21699114.1934   21699120.2714
 96  4 20 17 52 29.9990000  0  6  2 15 27 19 26  7
  20959658.878    -9453796.96749  -7354833.88849  20959659.1174   20959665.1164
  24078781.321    -5163392.69049  -4015364.02949  24078781.3474   24078788.5094
  20093633.368    -8325938.53949  -6478087.31649  20093634.1284   20093639.1884
  21610816.536     5302182.61149   4131923.12749  21610816.8134   21610822.7464
  23639658.148   -11507946.23649  -8952305.46649  23639660.4924   23639666.5914
  21682477.226   -18952679.59149 -14755660.80449  21682477.8624   21682483.9334
 96  4 20 17 52 59.9990000  0  6  2 15 27 19 26  7
  20957588.304    -9464679.50049  -7363313.78549  20957588.3654   20957594.2034
  24068662.012    -5216569.53849  -4056800.51649  24068661.7024   24068669.5824
  20093993.013    -8324049.59449  -6476615.42149  20093993.3554   20093998.5824
  21621767.608     5359735.38649   4176769.40849  21621768.8854   21621774.9564
  23625182.672   -11584019.44749  -9011583.27049  23625183.8634   23625191.3704
  21665909.055   -19039742.68949 -14823502.16549  21665910.2414   21665916.3884
 96  4 20 17 53 29.9990000  0  6  2 15 27 19 26  7
  20955546.693    -9475407.27749  -7371673.09249  20955547.0824   20955553.0394
  24058609.627    -5269394.95249  -4097963.14449  24058610.1304   24058617.0744
  20094429.318    -8321754.13949  -6474826.75949  20094430.1314   20094435.4334
  21632774.922     5417577.76949   4221841.36749  21632776.0754   21632782.3584
  23610772.955   -11659742.53549  -9070588.25649  23610773.5724   23610780.7024
  21649405.133   -19126468.58449 -14891080.76349  21649406.9484   21649413.4634
 96  4 20 17 53 59.9990000  0  6  2 15 27 19 26  7
  20953539.296    -9485956.61549  -7379893.36249  20953539.5894   20953545.6624
  24048628.765    -5321840.28149  -4138829.60949  24048629.9994   24048636.2984
  20094952.201    -8319009.45049  -6472688.05349  20094952.7324   20094957.8814
  21643839.876     5475718.25249   4267145.60149  21643839.8884   21643846.0884
  23596437.588   -11735079.19749  -9129292.13549  23596438.8764   23596444.3884
  21632968.878   -19212842.56749 -14958385.15049  21632970.5054   21632977.1184
 96  4 20 17 54 29.9990000  0  6  2 15 27 19 26  7
  20951567.144    -9496322.96549  -7387971.04149  20951566.9074   20951572.7934
  24038721.571    -5373905.53849  -4179399.90549  24038722.1004   24038728.6144
  20095558.389    -8315822.36649  -6470204.61749  20095559.0774   20095564.4794
  21654957.814     5534148.12149   4312675.33449  21654958.8154   21654964.8014
  23582173.770   -11810020.42149  -9187687.86949  23582177.0084   23582183.1684
  21616595.964   -19298886.37349 -15025432.25249  21616597.1014   21616603.7354
 96  4 20 17 54 59.9990000  0  6  2 15 27 19 26  7
  20949629.933    -9506499.16249  -7395900.54949  20949630.3234   20949635.9134
  24028885.234    -5425589.80349  -4219673.33849  24028887.1284   24028893.4434
  20096245.892    -8312205.25549  -6467386.09449  20096247.1934   20096252.2584
  21666132.298     5592873.31549   4358435.19449  21666133.5394   21666139.7904
  23567989.367   -11884578.16249  -9245784.80049  23567990.0174   23567994.9854
  21600285.483   -19384597.35449 -15092220.01249  21600286.6214   21600292.9074
 96  4 20 17 55 29.9990000  0  6  2 15 27 19 26  7
  20947733.642    -9516464.10249  -7403665.44149  20947733.9824   20947739.9164
  24019124.640    -5476883.51449  -4259642.43349  24019125.5474   24019132.3564
  20097017.913    -8308150.08149  -6464226.22949  20097019.0854   20097024.2794
  21677366.530     5651906.86849   4404435.32349  21677367.6074   21677373.2664
  23553873.098   -11958754.14049  -9303584.24449  23553874.9024   23553880.8164
  21584042.145   -19469957.17449 -15158734.15049  21584043.1824   21584049.2484
 96  4 20 17 55 59.9990000  0  6  2 15 27 19 26  7
  20945877.063    -9526219.41849  -7411266.98949  20945877.8244   20945883.5954
  24009435.699    -5527792.34449  -4299311.61049  24009438.6354   24009445.5314
  20097872.591    -8303662.23449  -6460729.21349  20097873.1964   20097878.2924
  21688656.435     5711234.83649   4450664.87349  21688657.4084   21688663.0804
  23539829.077   -12032548.69449  -9361086.46849  23539832.3014   23539837.6814
  21567862.378   -19554980.91549 -15224986.39649  21567863.6824   21567869.9834
 96  4 20 17 56 29.9990000  0  6  2 15 27 19 26  7
  20944060.327    -9535766.35149  -7418706.16149  20944061.0084   20944066.6674
  23999821.804    -5578317.87949  -4338682.11949  23999822.9934   23999830.8694
  20098806.939    -8298752.31449  -6456903.31049  20098807.6204   20098812.8384
  21700003.538     5770858.71549   4497125.00049  21700003.2034   21700009.1234
  23525858.389   -12105967.90149  -9418296.21649  23525860.3974   23525865.1124
  21551748.456   -19639659.88849 -15290970.00349  21551749.7254   21551756.3604
 96  4 20 17 56 59.9990000  0  6  2 15 27 19 26  7
  20942281.421    -9545115.95449  -7425991.57349  20942281.8904   20942287.9414
  23990286.258    -5628450.15249  -4377746.18649  23990283.2984   23990290.7444
  20099824.018    -8293408.00449  -6452738.92849  20099824.7564   20099829.4164
  21711405.810     5830786.34649   4543821.82349  21711407.2084   21711412.9604
  23511957.879   -12179004.69149  -9475207.97949  23511961.5114   23511967.8184
  21535703.753   -19723974.43049 -15356669.63249  21535705.1804   21535711.5854
 96  4 20 17 57 29.9990000  0  6  2 15 27 19 26  7
  20940536.148    -9554289.45849  -7433139.75949  20940536.3344   20940542.3524
  23980815.144    -5678194.69449  -4416508.13149  23980817.6424   23980824.6664
  20100922.792    -8287632.85149  -6448238.81649  20100923.6704   20100928.6264
  21722864.238     5891002.67249   4590743.60449  21722865.9164   21722872.1884
  23498137.035   -12251647.79649  -9531812.98249  23498138.8264   23498144.3844
  21519728.147   -19807927.72149 -15422087.76249  21519729.4454   21519735.6254
 96  4 20 17 57 59.9990000  0  6  2 15 27 19 26  7
  20938823.546    -9563285.64349  -7440149.77849  20938824.0604   20938830.3054
  23971425.476    -5727539.07149  -4454958.26349  23971427.2244   23971434.6174
  20102104.104    -8281425.38649  -6443401.83749  20102104.7474   20102110.0274
  21734380.643     5951513.15949   4637894.59449  21734380.5544   21734387.0324
  23484390.343   -12323888.58449  -9588104.48949  23484392.1564   23484397.5874
  21503824.187   -19891506.16749 -15487213.81349  21503825.1004   21503831.4274
 96  4 20 17 58 29.9990000  0  6  2 15 27 19 26  7
  20937144.487    -9572109.32949  -7447025.38049  20937144.9854   20937151.0724
  23962112.357    -5776492.08349  -4493103.41449  23962111.9014   23962118.4134
  20103362.539    -8274814.35949  -6438250.39749  20103362.5874   20103367.8064
  21745952.692     6012326.49549   4685281.57349  21745953.2274   21745959.4694
  23470716.046   -12395746.64749  -9644097.77049  23470717.8934   23470723.6114
  21487989.392   -19974717.85149 -15552054.06849  21487990.2974   21487996.4224
 96  4 20 17 58 59.9990000  0  6  2 15 27 19 26  7
  20935502.796    -9580739.91049  -7453750.51249  20935502.8634   20935508.7044
  23952873.773    -5825038.84249  -4530932.02549  23952873.7724   23952880.0504
  20104699.173    -8267791.70549  -6432778.21449  20104699.4214   20104703.9954
  21757585.180     6073460.17349   4732918.16849  21757587.0114   21757592.5234
  23457118.865   -12467202.53549  -9699777.67049  23457119.8664   23457125.6854
  21472224.306   -20057560.38149 -15616606.66949  21472225.6394   21472231.6504
 96  4 20 17 59 29.9990000  0  6  2 15 27 19 26  7
  20933900.418    -9589157.92549  -7460310.00449  20933901.0644   20933906.5874
  23943714.809    -5873173.76249  -4568439.73149  23943713.8304   23943720.4864
  20106112.494    -8260362.95849  -6426989.59049  20106112.7954   20106117.8354
  21769282.265     6134920.90849   4780809.61349  21769282.4924   21769288.2134
  23443597.484   -12538254.65249  -9755142.93349  23443598.8354   23443605.9294
  21456531.420   -20140030.22349 -15680868.86249  21456532.1974   21456538.0644
 96  4 20 17 59 59.9990000  0  6  2 15 27 19 26  7
  20932333.086    -9597391.56849  -7466725.83149  20932333.9794   20932339.6114
  23934628.602    -5920914.83249  -4605640.53749  23934629.2194   23934635.4364
  20107599.403    -8252547.75949  -6420899.83849  20107599.9024   20107604.8724
  21781037.341     6196693.43449   4828944.01449  21781037.5654   21781043.3244
  23430149.319   -12608927.20349  -9810212.44649  23430150.3014   23430156.7314
  21440903.756   -20222154.97449 -15744862.15949  21440904.7224   21440910.4924
 96  4 20 18  0 29.9990000  0  6  2 15 27 19 26  7
  20930803.676    -9605427.90249  -7472987.90949  20930804.5284   20930810.4744
  23925618.624    -5968245.98249  -4642521.91749  23925622.5644   23925628.7704
  20109163.105    -8244331.11649  -6414497.27049  20109163.3014   20109168.3704
  21792853.045     6258788.10049   4877329.43549  21792853.2824   21792859.4484
  23416777.591   -12679202.76149  -9864972.60749  23416777.5714   23416782.5794
  21425343.284   -20303924.86849 -15808578.95149  21425344.4524   21425350.1714
 96  4 20 18  0 59.9990000  0  6  2 15 27 19 26  7
  20929310.753    -9613277.57549  -7479104.53949  20929311.3184   20929316.7734
  23916691.999    -6015163.70149  -4679081.16649  23916694.0394   23916700.1124
  20110806.173    -8235695.92049  -6407768.56149  20110806.8994   20110811.8584
  21804726.041     6321181.92149   4925947.96149  21804726.5364   21804732.9734
  23403479.806   -12749081.24349  -9919423.36249  23403479.6944   23403485.6774
  21409852.013   -20385333.38549 -15872014.14149  21409852.8734   21409858.7034
 96  4 20 18  1 29.9990000  0  6  2 15 27 19 26  7
  20927850.360    -9620952.35149  -7485084.88649  20927850.6224   20927856.3884
  23907846.320    -6061665.72649  -4715316.48849  23907845.2654   23907851.2854
  20112530.335    -8226637.37949  -6400709.96949  20112530.6244   20112535.8094
  21816652.538     6383859.17449   4974787.34549  21816653.9084   21816659.6114
  23390256.150   -12818561.83349  -9973564.06249  23390258.2574   23390263.5974
  21394430.924   -20466372.06749 -15935161.14449  21394431.3914   21394437.3504
 96  4 20 18  1 59.9990000  0  6  2 15 27 19 26  7
  20926423.573    -9628448.71949  -7490926.21149  20926424.2724   20926430.1194
  23899075.625    -6107755.16249  -4751230.32149  23899074.6594   23899080.5374
  20114334.457    -8217154.15249  -6393320.45349  20114335.3504   20114340.4474
  21828632.339     6446813.35249   5023842.51549  21828633.3914   21828639.5704
  23377108.417   -12887655.31049 -10027403.11149  23377109.6254   23377115.7564
  21379079.460   -20547045.60149 -15998023.61949  21379079.8524   21379086.1844
 96  4 20 18  2 29.9990000  0  6  2 15 27 19 26  7
  20925035.542    -9635744.32249  -7496611.09449  20925035.7604   20925041.3264
  23890385.887    -6153424.86049  -4786817.08849  23890384.0104   23890391.1314
  20116221.632    -8207234.48149  -6385590.85649  20116222.8384   20116227.9544
  21840666.019     6510047.89649   5073116.15649  21840666.7114   21840672.8544
  23364037.077   -12956348.35249 -10080930.14649  23364038.3544   23364043.9314
  21363800.527   -20627335.51249 -16060587.16449  21363801.2494   21363807.4384
 96  4 20 18  2 59.9990000  0  6  2 15 27 19 26  7
  20923684.619    -9642840.63349  -7502140.69149  20923685.5094   20923691.0984
  23881772.532    -6198668.70749  -4822072.01449  23881773.8854   23881780.6054
  20118195.981    -8196861.49549  -6377508.02049  20118197.0064   20118202.0154
  21852755.701     6573578.21649   5122620.27049  21852755.9934   21852762.8884
  23351044.284   -13024630.10549 -10134136.69849  23351044.7934   23351049.9774
  21348596.858   -20707231.42449 -16122843.69849  21348597.4524   21348603.6954
 96  4 20 18  3 29.9990000  0  6  2 15 27 19 26  7
  20922371.879    -9649742.23349  -7507518.56549  20922372.2674   20922377.8414
  23873242.659    -6243492.56549  -4856999.67249  23873244.2144   23873251.2274
  20120255.172    -8186038.47049  -6369074.51349  20120256.4004   20120261.4944
  21864900.706     6637407.95249   5172357.68649  21864902.2034   21864908.9294
  23338128.290   -13092496.24449 -10187019.39549  23338130.5254   23338135.6224
  21333464.840   -20786747.92849 -16184804.59349  21333466.1274   21333472.1494
 96  4 20 18  3 59.9990000  0  6  2 15 27 19 26  7
  20921097.698    -9656438.95449  -7512736.78749  20921098.0614   20921103.4594
  23864794.124    -6287887.04449  -4891592.75749  23864796.2804   23864803.4954
  20122404.788    -8174743.78649  -6360273.47549  20122405.7024   20122410.7674
  21877108.438     6701557.76149   5222344.51349  21877109.8374   21877115.9124
  23325295.779   -13159933.58749 -10239567.96449  23325297.6364   23325302.8384
  21318407.686   -20865874.19649 -16246461.40749  21318408.8634   21318414.8404
 96  4 20 18  4 29.9990000  0  6  2 15 27 19 26  7
  20919861.206    -9662935.43949  -7517798.98449  20919861.6284   20919867.5904
  23856431.667    -6331834.37749  -4925837.41149  23856432.8564   23856440.8004
  20124648.036    -8162958.44849  -6351090.10149  20124648.2204   20124653.5124
  21889380.133     6766042.25549   5272592.13049  21889380.6684   21889387.1394
  23312550.553   -13226913.54949 -10291760.11449  23312551.7694   23312557.5504
  21303429.417   -20944590.54949 -16307798.80249  21303429.2594   21303435.8404
 96  4 20 18  4 59.9990000  0  6  2 15 27 19 26  7
  20918657.283    -9669258.27249  -7522725.87149  20918658.3954   20918664.1334
  23848151.593    -6375353.78649  -4959748.62149  23848152.6284   23848159.5274
  20126978.088    -8150711.91349  -6341547.35449  20126978.4744   20126983.6674
  21901710.107     6830834.75549   5323079.75349  21901710.6104   21901716.8094
  23299885.950   -13293465.08349 -10343618.44049  23299887.7574   23299892.8814
  21288522.313   -21022925.08649 -16368838.67949  21288522.8344   21288529.1834
 96  4 20 18  5 29.9990000  0  6  2 15 27 19 26  7
  20917488.110    -9675403.80949  -7527514.60449  20917488.9324   20917494.8434
  23839951.492    -6418454.60249  -4993333.65749  23839950.8704   23839957.6544
  20129391.348    -8138026.20649  -6331662.39749  20129392.5844   20129397.9744
  21914095.049     6895910.91749   5373788.40849  21914094.4534   21914100.7484
  23287302.004   -13359595.42549 -10395148.56049  23287303.4914   23287308.6034
  21273686.477   -21100886.56349 -16429587.86549  21273687.1094   21273693.3254
 96  4 20 18  5 59.9990000  0  6  2 15 27 19 26  7
  20916358.106    -9681344.83049  -7532143.97449  20916358.3314   20916364.1154
  23831833.933    -6461105.45449  -5026568.08049  23831834.9624   23831841.2184
  20131893.573    -8124882.49749  -6321420.55649  20131893.8704   20131898.9704
  21926535.709     6961299.64149   5424740.62449  21926537.3084   21926543.7374
  23274801.291   -13425283.19849 -10446333.81249  23274803.4484   23274808.6614
  21258930.934   -21178427.28449 -16490009.18549  21258931.6144   21258937.8594
 96  4 20 18  6 29.9990000  0  6  2 15 27 19 26  7
  20915261.848    -9687104.05449  -7536631.69149  20915262.4414   20915268.0734
  23823800.688    -6503325.16349  -5059466.54549  23823800.5904   23823806.2524
  20134474.549    -8111317.60649  -6310850.52149  20134475.3474   20134480.3164
  21939033.607     7026973.73949   5475915.20549  21939034.3844   21939041.1974
  23262381.719   -13490554.19149 -10497194.31049  23262381.9764   23262387.3974
  21244249.096   -21255579.08449 -16550127.45649  21244250.4304   21244256.6554
 96  4 20 18  6 59.9990000  0  6  2 15 27 19 26  7
  20914201.959    -9692675.04049  -7540972.72149  20914202.2124   20914207.7814
  23815847.626    -6545112.27549  -5092027.91249  23815848.2554   23815854.9474
  20137135.794    -8097330.62149  -6299951.58149  20137137.0764   20137142.0264
  21951584.214     7092926.38849   5527306.84049  21951585.0514   21951591.7164
  23250038.426   -13555408.40249 -10547730.03849  23250040.6604   23250045.4484
  21229640.854   -21332348.53649 -16609947.78749  21229641.6954   21229648.0814
 96  4 20 18  7 29.9990000  0  6  2 15 27 19 26  7
  20913174.965    -9698070.89549  -7545177.29149  20913175.5044   20913181.2084
  23807976.412    -6586471.72749  -5124256.05149  23807977.8814   23807983.4604
  20139875.893    -8082931.42649  -6288731.44349  20139877.0644   20139882.1764
  21964187.074     7159154.41749   5578913.05749  21964187.9724   21964194.4704
  23237777.617   -13619851.05749 -10597945.07649  23237777.7914   23237783.4234
  21215104.774   -21408735.58449 -16669470.14349  21215105.2574   21215111.7114
 96  4 20 18  7 59.9990000  0  6  2 15 27 19 26  7
  20912182.569    -9703286.97049  -7549241.76749  20912182.9224   20912188.7964
  23800193.491    -6627379.93849  -5156132.56549  23800192.4644   23800200.5874
  20142698.870    -8068094.17949  -6277169.96249  20142700.3104   20142705.7344
  21976847.743     7225685.06149   5630755.07949  21976848.0144   21976854.5564
  23225596.417   -13683863.57049 -10647824.94149  23225596.4434   23225602.8524
  21200644.874   -21484724.64649 -16728682.38249  21200645.3594   21200651.3184
 96  4 20 18  8 29.9990000  0  6  2 15 27 19 26  7
  20911219.872    -9708345.56749  -7553183.54049  20911220.4534   20911226.3124
  23792490.234    -6667856.81749  -5187672.99749  23792490.5984   23792497.6624
  20145602.118    -8052843.64449  -6265286.43849  20145602.6614   20145608.1314
  21989559.687     7292494.75949   5682814.54549  21989561.9074   21989568.4564
  23213494.560   -13747458.52949 -10697379.44349  23213494.8314   23213500.1614
  21186252.386   -21560356.60949 -16787616.36149  21186253.0804   21186259.3534
 96  4 20 18  8 59.9990000  0  6  2 15 27 19 26  7
  20910286.848    -9713249.58549  -7557004.85849  20910287.0724   20910293.0524
  23784872.687    -6707897.69149  -5218873.66749  23784871.1854   23784878.2304
  20148580.528    -8037188.85749  -6253087.91649  20148581.6194   20148586.8434
  22002328.860     7359590.17749   5735096.65149  22002329.4524   22002336.1724
  23201473.582   -13810631.71749 -10746605.28949  23201473.2544   23201479.3754
  21171931.494   -21635612.24749 -16846257.09949  21171932.3634   21171938.5824
 96  4 20 18  9 29.9990000  0  6  2 15 27 19 26  7
  20909386.187    -9717979.70549  -7560690.66949  20909386.7574   20909392.8344
  23777336.811    -6747477.45749  -5249715.02449  23777338.3674   23777345.8134
  20151640.700    -8021109.78649  -6240558.78349  20151641.2784   20151646.4824
  22015156.425     7426997.05049   5787621.45149  22015156.6484   22015163.1794
  23189537.063   -13873359.13149 -10795483.78349  23189537.1594   23189541.9304
  21157686.765   -21710466.01049 -16904584.68549  21157688.0424   21157694.4344
 96  4 20 18  9 59.9990000  0  6  2 15 27 19 26  7
  20908517.102    -9722546.60149  -7564249.29249  20908517.4964   20908523.6604
  23769891.303    -6786598.51849  -5280198.95349  23769894.3484   23769901.5564
  20154780.735    -8004606.16949  -6227698.83249  20154782.0884   20154787.1644
  22028041.080     7494703.84549   5840379.95349  22028041.1084   22028047.2714
  23177685.083   -13935638.59449 -10844013.21749  23177685.6504   23177690.8044
  21143515.992   -21784935.05849 -16962612.49649  21143517.2464   21143523.7514
 96  4 20 18 10 29.9990000  0  6  2 15 27 19 26  7
  20907677.123    -9726960.11549  -7567688.39249  20907677.8274   20907684.0874
  23762536.064    -6825266.65249  -5310329.96549  23762535.7004   23762542.9874
  20158001.547    -7987683.95449  -6214512.70349  20158001.9754   20158007.0324
  22040978.940     7562701.91149   5893365.42549  22040980.8354   22040986.5384
  23165916.167   -13997485.47649 -10892205.57949  23165917.1464   23165921.7764
  21129417.070   -21859026.29949 -17020345.91149  21129417.9594   21129424.3364
 96  4 20 18 10 59.9990000  0  6  2 15 27 19 26  7
  20906869.104    -9731208.53849  -7570998.85249  20906869.7864   20906875.6374
  23755267.111    -6863473.78349  -5340101.75849  23755265.4944   23755272.0434
  20161305.610    -7970322.02149  -6200983.93549  20161306.2604   20161310.8714
  22053976.567     7630997.69049   5946582.88649  22053977.2154   22053983.4264
  23154228.564   -14058900.44649 -10940061.38449  23154229.4764   23154235.6404
  21115395.562   -21932713.04749 -17077764.13549  21115396.0684   21115402.4714
 96  4 20 18 11 29.9990000  0  6  2 15 27 19 26  7
  20906093.530    -9735286.85349  -7574176.76349  20906093.6854   20906099.7844
  23748080.773    -6901223.57249  -5369517.16749  23748081.8364   23748088.2624
  20164696.012    -7952498.27549  -6187095.31249  20164697.8834   20164702.6514
  22067027.090     7699581.05849   6000024.44249  22067027.5294   22067034.2034
  23142622.367   -14119886.08749 -10987582.64549  23142624.1854   23142629.8374
  21101446.343   -22006010.25949 -17134878.82449  21101447.8584   21101454.0994
 96  4 20 18 11 59.9990000  0  6  2 15 27 19 26  7
  20905350.856    -9739186.89349  -7577215.75949  20905351.3684   20905357.5364
  23740984.172    -6938518.32849  -5398578.00249  23740985.0404   23740991.9804
  20168177.868    -7934206.84849  -6172842.26449  20168178.5444   20168183.4884
  22080133.508     7768453.03649   6053690.88749  22080133.7894   22080140.3214
  23131098.899   -14180452.51449 -11034777.25449  23131098.5594   23131105.5154
  21087573.878   -22078913.12449 -17191686.22949  21087574.8614   21087581.0334
 96  4 20 18 12 29.9990000  0  6  2 15 27 19 26  7
  20904648.289    -9742879.40049  -7580093.04649  20904648.7914   20904654.8864
  23733973.411    -6975347.98949  -5427276.41649  23733976.8824   23733984.1634
  20171749.570    -7915439.26249  -6158218.18549  20171750.1454   20171754.8144
  22093294.826     7837621.85049   6107588.62349  22093296.1294   22093303.2704
  23119652.139   -14240590.91049 -11081638.32049  23119654.9704   23119660.5584
  21073783.059   -22151388.29949 -17248160.37749  21073783.3394   21073789.5204
 96  4 20 18 12 59.9990000  0  6  2 15 27 19 26  7
  20903987.776    -9746349.47049  -7582796.99349  20903988.4594   20903994.1684
  23727060.165    -7011704.73349  -5455606.32149  23727058.5784   23727065.3664
  20175412.347    -7896187.79349  -6143217.05149  20175413.4524   20175418.2764
  22106514.499     7907088.90249   6161718.76449  22106515.9994   22106521.8104
  23108296.052   -14300276.14649 -11128146.27149  23108296.8854   23108302.9344
  21060074.594   -22223424.56749 -17304292.51749  21060075.3034   21060081.5954
 96  4 20 18 13 29.9990000  0  6  2 15 27 19 26  7
  20903365.051    -9749621.82649  -7585346.88449  20903365.8854   20903371.4514
  23720226.732    -7047601.59849  -5483577.88649  23720227.4424   23720234.9744
  20179162.412    -7876481.45149  -6127861.47149  20179163.2444   20179168.1564
  22119786.891     7976833.91649   6216065.49349  22119787.5574   22119794.1814
  23097024.088   -14359506.62349 -11174299.87549  23097026.0924   23097032.1374
  21046444.871   -22295050.10249 -17360104.60749  21046445.4304   21046451.4964
 96  4 20 18 13 59.9990000  0  6  2 15 27 19 26  7
  20902778.334    -9752703.66249  -7587748.32049  20902779.3984   20902784.8644
  23713483.441    -7083031.86349  -5511185.86349  23713485.8534   23713491.8974
  20182996.545    -7856330.84549  -6112159.71649  20182997.8704   20183002.9654
  22133111.025     8046858.96949   6270630.43649  22133112.9094   22133119.2044
  23085841.873   -14418273.32749 -11220092.10449  23085843.1444   23085848.9714
  21032893.612   -22366257.01149 -17415590.49849  21032894.9714   21032901.2584
 96  4 20 18 14 29.9990000  0  6  2 15 27 19 26  7
  20902224.845    -9755617.37049  -7590018.74449  20902225.1534   20902230.6724
  23706829.857    -7117999.19849  -5538433.12249  23706831.3494   23706838.1984
  20186911.268    -7835760.19249  -6096130.65349  20186912.2534   20186917.5864
  22146488.325     8117156.24049   6325407.49549  22146490.2804   22146496.2974
  23074749.851   -14476567.65749 -11265516.24849  23074750.1714   23074755.5534
  21019421.399   -22437053.33449 -17470756.44449  21019422.7684   21019429.2974
 96  4 20 18 14 59.9990000  0  6  2 15 27 19 26  7
  20901700.061    -9758370.17749  -7592163.78949  20901701.0794   20901706.6204
  23700266.796    -7152485.18349  -5565305.29749  23700268.6634   23700276.2474
  20190908.098    -7814758.94049  -6079766.05349  20190908.8434   20190913.9164
  22159921.400     8187749.03349   6380414.83049  22159923.8354   22159929.9254
  23063750.649   -14534365.75849 -11310553.72049  23063751.4284   23063756.8334
  21006027.595   -22507439.58249 -17525602.85749  21006028.8514   21006035.2684
 96  4 20 18 15 29.9990000  0  6  2 15 27 19 26  7
  20901205.393    -9760971.57449  -7594190.85149  20901205.9184   20901211.4034
  23693797.238    -7186490.24049  -5591802.70949  23693797.2584   23693804.1374
  20194983.928    -7793338.87049  -6063075.10149  20194984.8334   20194990.1524
  22173410.965     8258630.21849   6435646.88449  22173411.4714   22173418.1764
  23052842.569   -14591681.51149 -11355215.32749  23052844.3604   23052849.6844
  20992713.019   -22577409.89449 -17580125.15949  20992713.8794   20992720.7004
 96  4 20 18 15 59.9990000  0  6  2 15 27 19 26  7
  20900737.312    -9763432.34849  -7596108.33949  20900737.6814   20900743.1514
  23687414.827    -7220023.83249  -5617932.75449  23687416.2274   23687422.9714
  20199140.388    -7771495.37849  -6046054.21249  20199141.7414   20199146.7044
  22186950.784     8329782.30349   6491090.02949  22186951.1664   22186957.9154
  23042024.079   -14648540.26749 -11399520.83249  23042024.2484   23042029.4184
  20979477.795   -22646962.66149 -17634322.10449  20979478.8094   20979485.2804
 96  4 20 18 16 29.9990000  0  6  2 15 27 19 26  7
  20900292.895    -9765766.97149  -7597927.52749  20900293.2494   20900298.9984
  23681119.617    -7253099.23149  -5643705.77849  23681121.8704   23681128.8534
  20203376.538    -7749238.28549  -6028711.03349  20203376.8564   20203381.9744
  22200536.990     8401187.22549   6546730.18749  22200539.5694   22200545.8794
  23031286.458   -14704961.02849 -11443485.04449  23031288.8164   23031292.9704
  20966319.336   -22716108.30449 -17688201.81049  20966320.6234   20966327.0204
 96  4 20 18 16 59.9990000  0  6  2 15 27 19 26  7
  20899877.272    -9767951.71049  -7599629.91849  20899877.7954   20899883.4234
  23674917.203    -7285696.80149  -5669106.46349  23674918.5964   23674924.7964
  20207696.780    -7726531.44049  -6011017.40149  20207697.9114   20207703.0544
  22214177.926     8472860.09749   6602579.14349  22214178.6644   22214184.4174
  23020633.449   -14760942.88549 -11487107.24749  23020635.2194   23020640.4554
  20953242.836   -22784825.13749 -17741747.38349  20953244.3954   20953250.4784
 96  4 20 18 17 29.9990000  0  6  2 15 27 19 26  7
  20899496.098    -9769953.21549  -7601189.53249  20899496.7034   20899502.6814
  23668809.411    -7317794.42749  -5694117.58449  23668811.0914   23668817.5644
  20212112.274    -7703330.25549  -5992938.57049  20212113.1244   20212118.2404
  22227869.574     8544813.97749   6658647.06949  22227870.4354   22227877.3194
  23010064.295   -14816481.19949 -11530383.84449  23010066.2974   23010071.6474
  20940252.213   -22853093.20949 -17794943.26949  20940253.3934   20940259.7914
 96  4 20 18 17 59.9990000  0  6  2 15 27 19 26  7
  20899145.884    -9771792.75649  -7602622.94549  20899146.5474   20899152.5914
  23662792.089    -7349409.13449  -5718752.39849  23662794.7864   23662801.1344
  20216618.806    -7679647.68649  -5974484.63449  20216619.7494   20216624.7324
  22241614.584     8617046.58749   6714932.19049  22241616.3864   22241622.8474
  22999578.979   -14871587.02249 -11573323.42949  22999580.3724   22999586.3554
  20927341.874   -22920938.66249 -17847809.84149  20927342.6374   20927349.1944
 96  4 20 18 18 29.9990000  0  6  2 15 27 19 26  7
  20898826.466    -9773472.19449  -7603931.59549  20898827.1194   20898833.4714
  23656873.704    -7380539.76249  -5743010.02049  23656871.0764   23656877.9114
  20221214.994    -7655494.47549  -5955663.96349  20221215.8444   20221221.0884
  22255417.265     8689571.75549   6771445.27349  22255416.7704   22255423.9884
  22989175.782   -14926254.12749 -11615921.15949  22989177.8144   22989183.4664
  20914509.404   -22988370.31549 -17900353.97249  20914510.9194   20914517.2384
 96  4 20 18 18 59.9990000  0  6  2 15 27 19 26  7
  20898541.348    -9774971.30149  -7605099.73149  20898541.8794   20898547.7414
  23651041.403    -7411173.26749  -5766880.28849  23651041.7334   23651048.1984
  20225902.309    -7630861.27949  -5936469.28049  20225903.2044   20225908.6454
  22269275.561     8762405.89449   6828199.11749  22269277.2524   22269283.6384
  22978859.998   -14980468.25049 -11658165.92149  22978861.1564   22978866.5934
  20901758.735   -23055377.56349 -17952567.39649  20901759.8704   20901766.2064
 96  4 20 18 19 29.9990000  0  6  2 15 27 19 26  7
  20898289.409    -9776294.14349  -7606130.51949  20898290.2294   20898296.0274
  23645302.942    -7441317.47349  -5790369.27949  23645305.8624   23645312.3074
  20230676.657    -7605773.84049  -5916920.64149  20230677.4134   20230682.6234
  22283192.138     8835536.84249   6885184.23649  22283193.1684   22283200.2244
  22968631.182   -15034217.50349 -11700048.43949  22968632.7404   22968638.6804
  20889088.300   -23121962.20149 -18004451.51749  20889089.1734   20889095.4194
 96  4 20 18 19 59.9990000  0  6  2 15 27 19 26  7
  20898072.391    -9777437.88049  -7607021.74749  20898072.5624   20898078.1724
  23639664.166    -7470968.94949  -5813474.31749  23639663.1604   23639670.0904
  20235532.273    -7580255.66049  -5897036.35949  20235533.6024   20235538.3404
  22297167.067     8908971.22849   6942405.80849  22297167.4784   22297173.9524
  22958492.462   -15087494.22349 -11741562.75649  22958494.2524   22958499.5444
  20876500.354   -23188112.38849 -18055997.10449  20876501.0624   20876507.4704
 96  4 20 18 20 29.9990000  0  6  2 15 27 19 26  7
  20897891.515    -9778388.10449  -7607762.18549  20897891.7444   20897897.3914
  23634114.140    -7500122.08149  -5836191.05149  23634115.0914   23634121.1434
  20240469.598    -7554307.92049  -5876817.35949  20240471.1704   20240476.3154
  22311196.094     8982696.01949   6999853.65749  22311197.0104   22311203.7214
  22948443.901   -15140296.95249 -11782707.72749  22948446.2434   22948451.9164
  20863996.645   -23253823.07349 -18107200.22149  20863996.9424   20864002.9344
 96  4 20 18 20 59.9990000  0  6  2 15 27 19 26  7
  20897747.402    -9779141.82849  -7608349.50649  20897748.5094   20897753.9794
  23628660.873    -7528779.55749  -5858521.54849  23628662.0674   23628668.7674
  20245489.124    -7527935.96349  -5856267.79749  20245489.8574   20245494.9404
  22325277.918     9056695.66849   7057515.69249  22325278.5464   22325284.9614
  22938485.505   -15192629.77049 -11823486.53649  22938487.9004   22938493.9174
  20851575.416   -23319090.95749 -18158058.30249  20851576.7114   20851582.8274
 96  4 20 18 21 29.9990000  0  6  2 15 27 19 26  7
  20897640.142    -9779709.04849  -7608791.50449  20897640.5914   20897645.8694
  23623303.720    -7556942.81349  -5880466.94549  23623302.8344   23623308.6844
  20250588.979    -7501136.77549  -5835385.32949  20250589.4674   20250594.3744
  22339410.100     9130960.43849   7115384.29849  22339410.8044   22339417.4384
  22928618.920   -15244490.47749 -11863897.45949  22928619.0564   22928625.2714
  20839238.672   -23383922.79549 -18208576.60449  20839239.6484   20839245.8894
 96  4 20 18 21 59.9990000  0  6  2 15 27 19 26  7
  20897565.106    -9780101.70749  -7609097.47949  20897565.9214   20897571.2604
  23618038.691    -7584607.16749  -5902023.57449  23618038.5054   23618045.2744
  20255772.426    -7473892.40949  -5814155.96649  20255773.4014   20255778.8864
  22353593.554     9205490.14449   7173459.35749  22353593.2674   22353599.7324
  22918837.053   -15295885.58449 -11903945.58949  22918839.2264   22918845.3244
  20826982.093   -23448328.63849 -18258762.96649  20826983.4674   20826989.8204
 96  4 20 18 22 29.9990000  0  6  2 15 27 19 26  7
  20897524.970    -9780311.57549  -7609261.01449  20897525.7004   20897531.6704
  23612872.910    -7611757.50649  -5923179.66449  23612871.3224   23612877.6034
  20261047.063    -7446174.95849  -5792557.96349  20261048.0364   20261053.6934
  22367825.940     9280286.23849   7231741.99249  22367826.8774   22367833.2324
  22909152.359   -15346785.83849 -11943608.11449  22909153.0524   22909159.0054
  20814809.341   -23512295.65249 -18308607.37649  20814810.8664   20814817.4314
 96  4 20 18 22 59.9990000  0  6  2 15 27 19 26  7
  20897517.713    -9780346.32949  -7609288.09449  20897518.6734   20897525.1924
  23607800.505    -7638398.60649  -5943938.96449  23607802.1464   23607807.7064
  20266412.194    -7417979.40549  -5770587.41649  20266413.3484   20266419.1834
  22382110.000     9355347.85849   7290231.52149  22382110.3774   22382117.0584
  22899560.173   -15397186.55349 -11982881.39149  22899561.6644   22899568.0654
  20802721.323   -23575823.67149 -18358109.71449  20802722.2064   20802728.5464
 96  4 20 18 23 29.9990000  0  6  2 15 27 19 26  7
  20897541.137    -9780225.88449  -7609194.24449  20897541.8214   20897548.0394
  23602830.744    -7664533.64949  -5964303.93249  23602829.4164   23602834.0864
  20271868.859    -7389303.94449  -5748242.91549  20271870.1474   20271875.8764
  22396444.459     9430676.66849   7348929.25349  22396445.0484   22396451.6944
  22890066.140   -15447084.05949 -12021762.55549  22890066.4954   22890072.4874
  20790714.018   -23638917.85049 -18407273.99749  20790715.6204   20790722.1864
 96  4 20 18 23 59.9990000  0  6  2 15 27 19 26  7
  20897591.997    -9779958.18849  -7608985.65349  20897593.1524   20897598.7524
  23597948.915    -7690169.06349  -5984279.57749  23597950.9544   23597955.9164
  20277415.198    -7360160.39949  -5725533.67249  20277416.0424   20277421.5134
  22410829.304     9506271.54049   7407834.29849  22410830.2454   22410837.0674
  22880663.376   -15496485.20949 -12060256.95649  22880665.4524   22880671.7454
  20778790.005   -23701582.79149 -18456103.80949  20778790.9554   20778797.2394
 96  4 20 18 24 29.9990000  0  6  2 15 27 19 26  7
  20897673.924    -9779531.09449  -7608652.85649  20897674.2764   20897679.8604
  23593166.371    -7715295.67949  -6003858.77149  23593169.0014   23593174.8994
  20283049.015    -7330556.42049  -5702465.65149  20283049.4834   20283054.9654
  22425267.605     9582141.42349   7466953.64249  22425267.6204   22425274.5664
  22871359.639   -15545380.73749 -12098357.36249  22871361.1064   22871367.6524
  20766950.119   -23763800.26349 -18504584.94849  20766951.3434   20766957.6674
 96  4 20 18 24 59.9990000  0  6  2 15 27 19 26  7
  20897783.923    -9778951.45449  -7608201.19049  20897784.5694   20897790.1044
  23588483.613    -7739915.12549  -6023042.74949  23588483.5614   23588490.1794
  20288768.887    -7300498.71849  -5679044.07349  20288769.4794   20288774.8674
  22439757.103     9658291.68949   7526291.46549  22439759.1354   22439765.4054
  22862147.967   -15593791.53949 -12136080.04949  22862148.8134   22862154.4254
  20755195.042   -23825573.08949 -18552719.60549  20755196.1254   20755202.8834
 96  4 20 18 25 29.9990000  0  6  2 15 27 19 26  7
  20897923.941    -9778215.12749  -7607627.42649  20897924.5724   20897930.0944
  23583895.690    -7764018.49049  -6041824.59449  23583897.6264   23583903.4204
  20294574.836    -7269986.54149  -5655268.36649  20294575.8194   20294581.0484
  22454300.999     9734722.47849   7585847.87749  22454303.1774   22454309.4254
  22853027.238   -15641721.51449 -12173428.06949  22853028.1864   22853033.8554
  20743526.608   -23886889.91749 -18600498.93849  20743527.9884   20743534.5164
 96  4 20 18 25 59.9990000  0  6  2 15 27 19 26  7
  20898095.293    -9777315.13449  -7606926.13949  20898095.8004   20898101.4614
  23579403.187    -7787619.77749  -6060215.21049  23579406.3174   23579413.1654
  20300464.587    -7239040.15349  -5631154.31549  20300464.8394   20300470.0324
  22468893.449     9811404.85149   7645600.32649  22468894.9724   22468902.5024
  22843993.732   -15689194.60449 -12210420.08349  22843994.4494   22844000.5074
  20731942.703   -23947765.08949 -18647934.12249  20731943.8794   20731950.4944
 96  4 20 18 26 29.9990000  0  6  2 15 27 19 26  7
  20898302.347    -9776225.71549  -7606077.24049  20898303.2834   20898308.8414
  23575014.561    -7810701.05149  -6078200.60849  23575013.9534   23575021.4814
  20306439.045    -7207641.13549  -5606687.56049  20306439.6234   20306445.0934
  22483536.536     9888347.38349   7705555.49549  22483536.9904   22483543.4874
  22835048.025   -15736203.03349 -12247050.02249  22835049.3584   22835054.8524
  20720445.037   -24008185.72349 -18695015.12349  20720446.2434   20720452.6414
 96  4 20 18 26 59.9990000  0  6  2 15 27 19 26  7
  20898543.690    -9774959.20849  -7605090.35349  20898544.3994   20898550.1814
  23570716.885    -7833279.24849  -6095794.01149  23570717.7104   23570723.8524
  20312499.040    -7175794.85149  -5581872.28949  20312499.8654   20312505.3004
  22498224.608     9965535.40149   7765701.95249  22498226.0114   22498232.3654
  22826187.569   -15782764.96449 -12283332.03349  22826188.6304   22826193.7414
  20709029.373   -24068176.09549 -18741760.85449  20709030.4694   20709036.8354
 96  4 20 18 27 29.9990000  0  6  2 15 27 19 26  7
  20898821.801    -9773495.64249  -7603949.91649  20898822.9024   20898828.3924
  23566522.190    -7855326.41949  -6112973.63049  23566522.7684   23566528.6444
  20318647.844    -7143481.61649  -5556693.16349  20318648.7354   20318654.1604
  22512966.122    10042998.17349   7826062.49549  22512966.3454   22512972.7984
  22817419.721   -15828837.13749 -12319232.41249  22817421.5124   22817426.5734
  20697700.262   -24127713.16549 -18788153.36149  20697701.0734   20697707.4014
 96  4 20 18 27 59.9990000  0  6  2 15 27 19 26  7
  20899135.060    -9771852.79249  -7602669.77849  20899135.4904   20899140.9464
  23562428.395    -7876846.12049  -6129742.23849  23562426.9964   23562433.6304
  20324885.097    -7110706.49449  -5531154.12449  20324885.9294   20324891.1424
  22527760.638    10120742.26349   7886642.25449  22527760.5754   22527766.6724
  22808746.459   -15874418.44149 -12354750.30149  22808747.9524   22808752.9124
  20686452.078   -24186820.00749 -18834210.62249  20686453.4194   20686459.6334
 96  4 20 18 28 29.9990000  0  6  2 15 27 19 26  7
  20899474.220    -9770068.51749  -7601279.43649  20899474.8964   20899480.4684
  23558431.044    -7897846.69349  -6146106.32549  23558431.2154   23558437.3744
  20331207.593    -7077480.56849  -5505263.80549  20331208.6244   20331213.9424
  22542608.429    10198767.84249   7947441.34949  22542608.3314   22542614.5304
  22800165.026   -15919510.19949 -12389886.72849  22800166.2454   22800172.4274
  20675284.371   -24245504.98649 -18879939.16349  20675286.0044   20675292.0964
 96  4 20 18 28 59.9990000  0  6  2 15 27 19 26  7
  20899835.130    -9768169.03649  -7599799.32249  20899836.4334   20899841.8294
  23554534.390    -7918327.48349  -6162065.38949  23554533.6534   23554539.7774
  20337614.901    -7043810.56049  -5479027.45249  20337615.4014   20337620.7124
  22557511.467    10277081.56249   8008464.98049  22557511.5334   22557517.9064
  22791679.548   -15964099.46949 -12424631.60949  22791681.7524   22791687.2344
  20664200.898   -24303756.10549 -18925329.63049  20664201.0634   20664207.3604
 96  4 20 18 29 29.9990000  0  6  2 15 27 19 26  7
  20900220.685    -9766146.24049  -7598223.12149  20900221.4154   20900226.9484
  23550736.018    -7938274.80649  -6177608.76949  23550737.8024   23550744.5394
  20344108.885    -7009683.11649  -5452434.65449  20344109.9584   20344115.0524
  22572466.736    10355680.29449   8069710.69649  22572468.5344   22572474.4924
  22783296.666   -16008161.95549 -12458966.00549  22783296.9024   22783302.6614
  20653200.051   -24361559.71949 -18970371.39449  20653201.7594   20653207.5174
 96  4 20 18 29 59.9990000  0  6  2 15 27 19 26  7
  20900630.774    -9763989.93449  -7596542.88949  20900631.9274   20900637.2464
  23547040.617    -7957694.70549  -6192741.16049  23547041.5544   23547048.2764
  20350690.402    -6975096.92449  -5425484.38849  20350691.3094   20350696.7124
  22587474.101    10434539.51349   8131159.37249  22587474.4964   22587481.0524
  22775007.865   -16051712.51949 -12492901.49949  22775008.5574   22775014.4764
  20642286.093   -24418912.28649 -19015061.69649  20642287.6784   20642293.7084
 96  4 20 18 30 29.9990000  0  6  2 15 27 19 26  7
  20901068.438    -9761690.09049  -7594750.80649  20901069.1054   20901075.0184
  23543446.018    -7976589.48649  -6207464.36649  23543446.4214   23543453.1514
  20357360.204    -6940047.52649  -5398173.19049  20357361.2854   20357366.6594
  22602526.539    10513646.34249   8192801.01449  22602527.4154   22602534.9054
  22766818.466   -16094750.27049 -12526437.39449  22766819.6464   22766825.5124
  20631461.824   -24475795.09049 -19059385.94449  20631462.9714   20631469.0424
 96  4 20 18 30 59.9990000  0  6  2 15 27 19 26  7
  20901537.976    -9759222.53949  -7592828.04649  20901538.6484   20901544.5704
  23539952.119    -7994952.80349  -6221773.45449  23539951.4084   23539958.2464
  20364121.098    -6904518.99249  -5370488.63649  20364122.1054   20364127.5114
  22617626.021    10592991.30649   8254628.20249  22617626.9294   22617634.0394
  22758727.543   -16137275.06749 -12559573.59249  22758727.6424   22758733.4844
  20620727.625   -24532207.32649 -19103343.51649  20620728.2904   20620734.3824
 96  4 20 18 31 29.9990000  0  6  2 15 27 19 26  7
  20902042.328    -9756570.91149  -7590761.84949  20902043.5964   20902049.5014
  23536558.745    -8012786.62849  -6235669.93249  23536557.8854   23536564.1394
  20370973.855    -6868508.93049  -5342428.86349  20370974.7964   20370980.0424
  22632768.077    10672560.31549   8316629.96349  22632768.3284   22632775.5314
  22750728.303   -16179310.91349 -12592328.79449  22750728.4454   22750733.9094
  20610080.670   -24588158.33749 -19146941.69649  20610081.1134   20610087.1004
 96  4 20 18 31 59.9990000  0  6  2 15 27 19 26  7
  20902580.854    -9753742.47049  -7588557.87149  20902581.6124   20902587.8194
  23533264.038    -8030096.76349  -6249158.35349  23533263.9604   23533270.9634
  20377914.742    -6832035.19649  -5314007.78949  20377915.2074   20377920.4464
  22647954.800    10752365.13149   8378815.47949  22647954.7964   22647961.1914
  22742819.755   -16220862.36649 -12624706.54149  22742822.0334   22742826.7314
  20599520.827   -24643648.17049 -19190180.51349  20599521.8174   20599527.4734
 96  4 20 18 32 29.9990000  0  6  2 15 27 19 26  7
  20903152.680    -9750737.11349  -7586216.03749  20903153.6584   20903159.7814
  23530073.320    -8046868.54349  -6262227.27649  23530072.6154   23530079.7214
  20384943.057    -6795095.71849  -5285223.79649  20384944.5204   20384950.0024
  22663191.455    10832439.09849   8441210.71749  22663191.6944   22663198.2934
  22735010.789   -16261908.53549 -12656690.55449  22735011.0114   22735016.0714
  20589049.133   -24698677.08049 -19233060.17249  20589049.8884   20589055.8814
 96  4 20 18 32 59.9990000  0  6  2 15 27 19 26  7
  20903755.755    -9747570.24349  -7583748.35149  20903756.2274   20903762.0884
  23526980.749    -8063111.20749  -6274883.89549  23526982.1584   23526988.7514
  20392056.304    -6757717.17449  -5256097.67849  20392057.4604   20392062.9394
  22678479.584    10912773.16149   8503808.64549  22678479.4354   22678485.8844
  22727293.054   -16302457.48149 -12688287.12549  22727294.3944   22727300.5604
  20578661.536   -24753262.82149 -19275594.50349  20578662.8264   20578668.5954
 96  4 20 18 33 29.9990000  0  6  2 15 27 19 26  7
  20904388.912    -9744241.38749  -7581154.44549  20904389.7304   20904395.3354
  23523991.797    -8078820.99349  -6287125.28749  23523992.3884   23523999.5164
  20399250.668    -6719910.38249  -5226637.85949  20399251.9434   20399257.2314
  22693819.528    10993389.55949   8566626.56149  22693820.6014   22693827.2124
  22719671.879   -16342494.86649 -12719485.08649  22719674.8484   22719681.6984
  20568361.107   -24807389.43949 -19317771.07949  20568362.9794   20568368.5344
 96  4 20 18 33 59.9990000  0  6  2 15 27 19 26  7
  20905052.512    -9740755.03949  -7578437.80949  20905053.1404   20905059.2384
  23521104.671    -8093995.01049  -6298949.18149  23521105.2234   23521111.3094
  20406525.380    -6681680.93849  -5196848.69849  20406526.6834   20406532.2824
  22709214.983    11074291.84649   8629667.25449  22709215.0534   22709221.5654
  22712153.730   -16382006.71749 -12750273.53349  22712155.9944   22712162.6034
  20558150.204   -24861055.68049 -19359588.91349  20558150.5294   20558156.3884
 96  4 20 18 34 29.9990000  0  6  2 15 27 19 26  7
  20905747.602    -9737103.26249  -7575592.28049  20905748.1684   20905753.6244
  23518317.905    -8108627.70949  -6310351.28349  23518320.4734   23518327.9204
  20413883.206    -6643014.75949  -5166719.22649  20413884.6284   20413889.9204
  22724660.497    11155460.41149   8692915.42849  22724661.3584   22724668.0434
  22704734.552   -16421003.29749 -12780660.46749  22704735.9024   22704741.9414
  20548024.728   -24914261.58749 -19401048.04949  20548025.8144   20548031.4534
 96  4 20 18 34 59.9990000  0  6  2 15 27 19 26  7
  20906475.395    -9733275.70449  -7572609.77649  20906476.2134   20906481.9914
  23515638.505    -8122718.67949  -6321331.25349  23515639.2564   23515646.4654
  20421328.276    -6603897.04249  -5136237.90749  20421328.5654   20421334.0574
  22740154.362    11236878.38849   8756357.95449  22740155.2104   22740161.9294
  22697408.424   -16459499.52349 -12810657.51249  22697409.7364   22697415.9934
  20537990.754   -24966992.34149 -19442136.93349  20537991.7564   20537997.0874
 96  4 20 18 35 29.9990000  0  6  2 15 27 19 26  7
  20907234.327    -9729289.46149  -7569503.62349  20907234.9054   20907240.9964
  23513056.953    -8136278.58649  -6331897.41949  23513059.5524   23513065.1874
  20428857.480    -6564326.73249  -5105403.91949  20428858.7614   20428864.1954
  22755690.075    11318531.38349   8819983.60349  22755692.3754   22755699.5634
  22690173.257   -16497525.04749 -12840287.79149  22690173.7544   22690179.8614
  20528043.595   -25019262.43149 -19482866.86249  20528044.7184   20528050.5644
 96  4 20 18 35 59.9990000  0  6  2 15 27 19 26  7
  20908021.065    -9725153.27949  -7566280.62849  20908022.0224   20908027.9974
  23510579.515    -8149305.74049  -6342048.43949  23510580.4324   23510587.6704
  20436475.458    -6524294.76049  -5074210.19649  20436476.4484   20436482.1164
  22771270.950    11400405.46249   8883781.52549  22771272.8764   22771279.5954
  22683027.667   -16535074.59049 -12869547.16349  22683028.7234   22683034.7024
  20518182.500   -25071085.84749 -19523248.73249  20518183.0424   20518188.9454
 96  4 20 18 36 29.9990000  0  6  2 15 27 19 26  7
  20908840.129    -9720854.59649  -7562931.01249  20908840.4314   20908845.6614
  23508202.575    -8161787.41149  -6351774.41349  23508205.1914   23508212.1094
  20444185.763    -6483779.59349  -5042639.95549  20444186.4194   20444191.7914
  22786898.192    11482519.09149   8947766.12049  22786899.2774   22786905.4254
  22675975.562   -16572128.57149 -12898420.38449  22675977.0804   22675983.0204
  20508409.666   -25122442.42549 -19563266.82949  20508410.0834   20508416.1264
 96  4 20 18 36 59.9990000  0  6  2 15 27 19 26  7
  20909688.335    -9716394.38849  -7559455.53049  20909688.8974   20909694.0744
  23505934.928    -8173713.90249  -6361067.77249  23505935.5664   23505942.6954
  20451986.955    -6442780.20049  -5010692.39349  20451988.2584   20451994.0614
  22802572.848    11564890.70149   9011951.73549  22802573.8074   22802580.3674
  22669024.192   -16608660.27749 -12926886.64649  22669025.7134   22669031.7634
  20498728.760   -25173314.71049 -19602907.55449  20498729.4194   20498735.4254
 96  4 20 18 37 29.9990000  0  6  2 15 27 19 26  7
  20910560.456    -9711808.34849  -7555881.99749  20910561.3524   20910567.0604
  23503766.129    -8185112.41849  -6369949.72549  23503766.3124   23503773.9694
  20459873.150    -6401336.57249  -4978398.67449  20459874.7514   20459880.7104
  22818290.599    11647488.08449   9076313.27249  22818291.1524   22818297.8494
  22662170.909   -16644678.03249 -12954952.43349  22662172.0854   22662178.5204
  20489132.417   -25223737.41049 -19642197.95849  20489134.0744   20489140.3204
 96  4 20 18 37 59.9990000  0  6  2 15 27 19 26  7
  20911462.492    -9707070.62349  -7552190.27449  20911463.0744   20911468.7564
  23501698.402    -8195968.29449  -6378408.84349  23501700.8564   23501708.3254
  20467845.780    -6359442.56649  -4945754.01449  20467847.1164   20467852.6424
  22834054.120    11730320.36849   9140857.84949  22834053.4114   22834060.5434
  22655420.482   -16680145.48549 -12982589.41049  22655422.4064   22655428.1124
  20479626.824   -25273694.25049 -19681125.35649  20479627.8284   20479633.9744
 96  4 20 18 38 29.9990000  0  6  2 15 27 19 26  7
  20912393.032    -9702176.60749  -7548376.76049  20912394.0114   20912400.2774
  23499739.459    -8206282.17149  -6386445.62649  23499737.9794   23499745.3374
  20475902.476    -6317101.64849  -4912761.10949  20475904.0294   20475909.9884
  22849860.193    11813390.76049   9205587.96249  22849861.5334   22849868.0934
  22648772.676   -16715083.88649 -13009814.13649  22648774.3914   22648780.5404
  20470210.249   -25323177.43349 -19719683.66749  20470211.4064   20470217.3804
 96  4 20 18 38 59.9990000  0  6  2 15 27 19 26  7
  20913355.198    -9697121.05649  -7544437.37349  20913356.0514   20913362.2304
  23497877.931    -8216047.84249  -6394055.24149  23497879.4784   23497886.1194
  20484045.561    -6274310.58349  -4879417.44349  20484046.7254   20484052.6814
  22865714.031    11896698.06849   9270502.69349  22865714.7354   22865721.0434
  22642224.965   -16749496.73049 -13036629.33449  22642226.4304   22642231.3114
  20460882.722   -25372194.77149 -19757878.98249  20460883.8144   20460889.7824
 96  4 20 18 39 29.9990000  0  6  2 15 27 19 26  7
  20914349.463    -9691900.14749  -7540369.13849  20914349.9144   20914355.7854
  23496125.819    -8225262.00549  -6401235.10149  23496126.2644   23496132.0024
  20492275.728    -6231059.59049  -4845715.39549  20492277.3614   20492282.7564
  22881615.136    11980254.42649   9335611.48149  22881615.1374   22881621.1054
  22635774.519   -16783391.18849 -13063040.59249  22635775.7184   22635781.6084
  20451641.629   -25420757.27149 -19795719.87949  20451642.8624   20451648.5924
 96  4 20 18 39 59.9990000  0  6  2 15 27 19 26  7
  20915373.408    -9686517.61849  -7536174.96849  20915374.4034   20915380.1694
  23494475.949    -8233929.03049  -6407988.62549  23494477.1554   23494482.6604
  20500597.017    -6187337.00249  -4811645.86549  20500597.3884   20500602.8004
  22897563.717    12064065.77649   9400918.97149  22897564.0504   22897570.1514
  22629420.540   -16816784.69849 -13089061.51049  22629421.3274   22629427.1884
  20442486.810   -25468868.89049 -19833209.44049  20442487.3734   20442493.4054
 96  4 20 18 40 29.9990000  0  6  2 15 27 19 26  7
  20916426.246    -9680987.60449  -7531865.87649  20916426.6724   20916432.4124
  23492928.280    -8242054.16449  -6414319.91149  23492930.7724   23492936.4864
  20509004.970    -6143148.70149  -4777213.44249  20509006.3634   20509011.2314
  22913560.262    12148131.82249   9466424.92749  22913561.3364   22913568.1934
  22623157.345   -16849694.91949 -13114705.84049  22623158.5104   22623164.3944
  20433416.621   -25516532.16449 -19870349.64149  20433417.3104   20433423.1164
 96  4 20 18 40 59.9990000  0  6  2 15 27 19 26  7
  20917509.778    -9675294.05149  -7527429.34849  20917509.9704   20917515.8234
  23491490.012    -8249619.67749  -6420215.11049  23491489.9504   23491496.9614
  20517504.532    -6098486.48349  -4742411.73649  20517505.1214   20517510.2964
  22929607.099    12232455.53249   9532131.64749  22929607.2044   22929614.5814
  22616993.384   -16882088.06949 -13139947.26049  22616993.9014   22616999.9574
  20424433.363   -25563735.34449 -19907131.32949  20424434.8274   20424440.6104
 96  4 20 18 41 29.9990000  0  6  2 15 27 19 26  7
  20918622.276    -9669446.28749  -7522872.66349  20918622.8964   20918628.1584
  23490152.487    -8256633.33949  -6425680.30249  23490156.3194   23490162.6724
  20526090.955    -6053367.80149  -4707254.34949  20526091.1414   20526096.2964
  22945698.050    12317021.30749   9598026.99049  22945699.6214   22945706.4324
  22610925.553   -16913971.00949 -13164791.10649  22610926.9784   22610932.9534
  20415539.454   -25610472.71649 -19943550.04549  20415540.8364   20415546.9264
 96  4 20 18 41 59.9990000  0  6  2 15 27 19 26  7
  20919762.214    -9663455.78249  -7518204.74249  20919762.8084   20919768.0934
  23488926.681    -8263101.07449  -6430720.10549  23488925.2184   23488932.5934
  20534757.420    -6007818.29149  -4671761.24749  20534758.8924   20534764.1264
  22961830.958    12401805.70549   9664092.68749  22961833.2024   22961840.3304
  22604956.415   -16945340.68149 -13189235.00749  22604957.4984   22604963.5874
  20406735.077   -25656740.92549 -19979603.18049  20406736.4744   20406742.4154
 96  4 20 18 42 29.9990000  0  6  2 15 27 19 26  7
  20920930.493    -9657318.50549  -7513422.45749  20920930.6794   20920935.9134
  23487796.261    -8269014.45949  -6435327.94749  23487800.4604   23487806.6374
  20543506.539    -5961844.58549  -4635937.60449  20543507.4894   20543512.9224
  22978008.157    12486814.56049   9730333.28749  22978010.1384   22978017.1424
  22599088.390   -16976178.70749 -13213264.63849  22599089.4334   22599095.0724
  20398021.531   -25702529.80949 -20015282.81749  20398022.9714   20398029.1444
 96  4 20 18 42 59.9990000  0  6  2 15 27 19 26  7
  20922124.879    -9651037.54249  -7508528.20049  20922125.9724   20922131.3364
  23486780.388    -8274381.40549  -6439509.99549  23486779.2794   23486785.0504
  20552335.486    -5915450.42349  -4599786.33249  20552335.8474   20552341.4034
  22994226.185    12572032.84649   9796737.08249  22994226.6764   22994233.8834
  22593318.618   -17006497.93949 -13236890.02349  22593319.5864   22593325.9184
  20389398.873   -25747847.75049 -20050595.48849  20389399.4904   20389405.3434
 96  4 20 18 43 29.9990000  0  6  2 15 27 19 26  7
  20923351.546    -9644593.41049  -7503506.80449  20923352.2444   20923357.7594
  23485863.893    -8279178.96449  -6443248.37149  23485866.0934   23485872.0274
  20561250.752    -5868599.83749  -4563279.41249  20561251.2294   20561256.9514
  23010491.511    12657499.85249   9863334.68149  23010490.7974   23010498.2554
  22587651.634   -17036280.24349 -13260097.01449  22587652.5414   22587658.5764
  20380869.623   -25792663.31949 -20085516.70149  20380871.3624   20380877.2464
 96  4 20 18 43 59.9990000  0  6  2 15 27 19 26  7
  20924609.465    -9637983.31949  -7498356.08849  20924610.1624   20924615.8824
  23485060.360    -8283416.81949  -6446550.60749  23485059.8714   23485065.8584
  20570252.210    -5821296.18849  -4526419.44649  20570252.8024   20570258.6334
  23026803.176    12743220.78149   9930130.14349  23026803.2524   23026810.5804
  22582084.003   -17065534.16349 -13282892.27449  22582085.6304   22582091.6134
  20372434.245   -25836994.03449 -20120060.10649  20372435.5224   20372441.2034
 96  4 20 18 44 29.9990000  0  6  2 15 27 19 26  7
  20925899.664    -9631201.02649  -7493071.18949  20925900.9094   20925906.7404
  23484355.887    -8287108.54749  -6449427.29749  23484356.9114   23484363.5294
  20579339.406    -5773542.36149  -4489208.69849  20579340.3744   20579346.0734
  23043158.596    12829186.47449   9997116.32549  23043161.5284   23043169.0824
  22576612.368   -17094288.26049 -13305298.05749  22576614.1344   22576619.5634
  20364087.659   -25880856.05649 -20154238.29649  20364088.7894   20364095.0124
 96  4 20 18 44 59.9990000  0  6  2 15 27 19 26  7
  20927224.915    -9624239.26449  -7487646.44549  20927225.5004   20927231.2794
  23483763.005    -8290234.05549  -6451862.77749  23483762.9244   23483768.4144
  20588517.251    -5725314.22649  -4451628.35949  20588517.9014   20588523.6014
  23059564.864    12915401.82049  10064297.05649  23059568.0534   23059575.6044
  22571240.782   -17122516.78849 -13327294.29949  22571242.6434   22571247.6794
  20355833.383   -25924229.80749 -20188036.01249  20355835.0624   20355841.2414
 96  4 20 18 45 29.9990000  0  6  2 15 27 19 26  7
  20928579.826    -9617118.07249  -7482097.46449  20928580.4024   20928586.5834
  23483273.097    -8292801.25149  -6453863.21149  23483273.9224   23483280.5354
  20597781.570    -5676624.19849  -4413688.09849  20597783.2484   20597788.9174
  23076018.855    13001859.76249  10131666.80449  23076020.2904   23076027.6034
  22565971.249   -17150208.01949 -13348871.87249  22565972.6524   22565978.5964
  20347670.308   -25967128.23649 -20221463.34549  20347671.7724   20347677.7904
 96  4 20 18 45 59.9990000  0  6  2 15 27 19 26  7
  20929963.529    -9609846.63049  -7476431.41249  20929964.1134   20929969.8644
  23482889.988    -8294816.50349  -6455433.55349  23482890.8934   23482896.2174
  20607133.184    -5627488.04349  -4375400.20649  20607133.4674   20607139.3034
  23092514.703    13088540.90349  10199210.48949  23092515.3894   23092522.5924
  22560801.328   -17177375.18549 -13370041.09149  22560802.8444   22560808.6334
  20339596.397   -26009560.62649 -20254527.53249  20339596.7724   20339603.0804
 96  4 20 18 46 29.9990000  0  6  2 15 27 19 26  7
  20931370.005    -9602453.13549  -7470670.25149  20931370.9814   20931376.6294
  23482610.112    -8296275.34549  -6456570.33449  23482611.8734   23482618.2684
  20616568.240    -5577899.44749  -4336759.76349  20616569.7944   20616575.4404
  23109051.193    13175434.67149  10266919.84149  23109051.3474   23109058.5244
  22555731.673   -17204014.44249 -13390798.95349  22555733.3424   22555739.4074
  20331611.110   -26051523.88549 -20287226.16649  20331611.8474   20331617.7124
 96  4 20 18 46 59.9990000  0  6  2 15 27 19 26  7
  20932799.980    -9594941.55749  -7464817.08149  20932800.7384   20932806.2704
  23482442.689    -8297168.08449  -6457265.98449  23482442.1594   23482448.3924
  20626093.244    -5527848.73249  -4297759.22749  20626094.3384   20626099.9834
  23125629.524    13262555.82549  10334806.39149  23125630.3714   23125637.4724
  22550765.614   -17230117.39049 -13411138.91149  22550766.6604   22550771.9694
  20323716.945   -26093008.32649 -20319551.69449  20323717.5094   20323723.2904
 96  4 20 18 47 29.9990000  0  6  2 15 27 19 26  7
  20934256.783    -9587287.47549  -7458852.87249  20934257.3684   20934262.8284
  23482379.328    -8297496.82749  -6457522.15849  23482379.6254   23482386.1344
  20635703.505    -5477346.29649  -4258406.70249  20635704.4404   20635710.0744
  23142254.160    13349919.30549  10402881.75049  23142253.9124   23142261.8744
  22545896.125   -17255703.74949 -13431076.33249  22545897.5544   22545902.5574
  20315913.624   -26134012.07349 -20351502.65749  20315914.8944   20315920.7364
 96  4 20 18 47 59.9990000  0  6  2 15 27 19 26  7
  20935742.613    -9579478.84349  -7452768.23149  20935743.2774   20935748.6754
  23482423.114    -8297262.24249  -6457339.38249  23482425.0964   23482431.6134
  20645398.313    -5426402.08149  -4218709.93849  20645398.9864   20645404.9804
  23158922.069    13437516.96549  10471139.59949  23158924.4794   23158931.5284
  22541121.169   -17280796.02549 -13450628.74949  22541122.5594   22541127.1104
  20308203.164   -26174533.00449 -20383077.40049  20308203.9284   20308209.9574
 96  4 20 18 48 29.9990000  0  6  2 15 27 19 26  7
  20937260.961    -9571501.63049  -7446552.22549  20937261.4364   20937266.8324
  23482574.492    -8296464.66749  -6456717.90349  23482576.4784   23482583.6484
  20655175.466    -5375021.07549  -4178672.81549  20655176.4434   20655182.3344
  23175634.487    13525345.70449  10539577.49949  23175636.7114   23175644.6214
  22536442.049   -17305385.34249 -13469789.26049  22536443.6134   22536448.8964
  20300583.776   -26214574.69949 -20414278.71049  20300584.6154   20300590.1044
 96  4 20 18 48 59.9990000  0  6  2 15 27 19 26  7
  20938815.541    -9563332.81249  -7440186.91849  20938816.1134   20938821.6804
  23482832.086    -8295113.33249  -6455664.93249  23482833.9104   23482840.2034
  20665033.578    -5323216.74349  -4138305.82449  20665034.2664   20665040.2474
  23192389.643    13613386.97749  10608181.01949  23192391.2134   23192398.0904
  22531859.845   -17329462.04349 -13488550.32349  22531861.6854   22531867.0734
  20293054.161   -26254141.78949 -20445110.19849  20293054.9564   20293060.4754
 96  4 20 18 49 29.9990000  0  6  2 15 27 19 26  7
  20940409.038    -9554955.39349  -7433659.06549  20940409.8024   20940415.6764
  23483198.890    -8293190.61849  -6454166.71949  23483199.9434   23483205.6094
  20674973.834    -5270980.19549  -4097602.04549  20674974.6724   20674980.4994
  23209185.057    13701643.13149  10676951.96649  23209185.4904   23209193.5634
  22527382.460   -17352995.29949 -13506887.91949  22527383.8394   22527389.5444
  20285615.917   -26293226.51749 -20475565.82149  20285617.4734   20285623.0644
 96  4 20 18 49 59.9990000  0  6  2 15 27 19 26  7
  20942038.917    -9546393.73249  -7426987.64649  20942039.3324   20942045.0214
  23483673.185    -8290702.08249  -6452227.60749  23483673.5304   23483679.5084
  20684995.499    -5218315.04049  -4056564.28949  20684996.6334   20685002.4404
  23226016.219    13790096.84349  10745876.85849  23226017.2894   23226025.2914
  22523010.027   -17375975.21649 -13524794.34349  22523011.2764   22523016.5554
  20278267.015   -26331848.43049 -20505660.80749  20278267.9824   20278273.7444
 96  4 20 18 50 29.9990000  0  6  2 15 27 19 26  7
  20943699.979    -9537661.73249  -7420183.50149  20943700.8674   20943706.4964
  23484251.591    -8287650.51049  -6449849.77249  23484253.3424   23484259.2854
  20695101.744    -5165208.18849  -4015182.35649  20695102.4434   20695108.1214
  23242886.274    13878747.60949  10814955.29849  23242887.8744   23242894.5634
  22518743.567   -17398392.10449 -13542262.04249  22518745.3904   22518751.0094
  20271004.698   -26370009.94649 -20535397.05149  20271005.8814   20271011.5684
 96  4 20 18 50 59.9990000  0  6  2 15 27 19 26  7
  20945393.592    -9528763.90449  -7413250.14149  20945394.2474   20945399.9204
  23484943.272    -8284017.49149  -6447018.86049  23484944.7874   23484950.4814
  20705296.390    -5111634.42749  -3973436.59349  20705297.4384   20705303.1554
  23259797.020    13967614.65649  10884202.26849  23259798.7334   23259806.0684
  22514586.288   -17420237.88349 -13559284.72549  22514587.8694   22514593.7884
  20263834.720   -26407684.07949 -20564753.50749  20263836.6744   20263842.5214
 96  4 20 18 51 29.9990000  0  6  2 15 27 19 26  7
  20947111.333    -9519737.13349  -7406216.30449  20947111.6964   20947117.4064
  23485743.714    -8279822.69249  -6443750.19249  23485744.0004   23485749.2724
  20715576.199    -5057615.24849  -3931343.75149  20715576.8914   20715582.1944
  23276747.326    14056685.68249  10953608.18449  23276748.1684   23276754.5814
  22510531.538   -17441551.49349 -13575892.73149  22510531.9174   22510537.7384
  20256756.573   -26444880.49649 -20593737.71649  20256758.3444   20256764.4134
 96  4 20 18 51 59.9990000  0  6  2 15 27 19 26  7
  20948853.072    -9510583.62449  -7399083.71349  20948853.7334   20948859.4714
  23486646.635    -8275068.96249  -6440046.01249  23486647.9294   23486653.3954
  20725942.524    -5003132.56949  -3888889.73849  20725944.4024   20725950.0054
  23293735.963    14145959.09349  11023171.80749  23293736.2474   23293743.6594
  22506574.293   -17462342.65849 -13592093.63549  22506575.4034   22506581.0754
  20249772.238   -26481583.67749 -20622337.58949  20249774.0284   20249780.1284
 96  4 20 18 52 29.9990000  0  6  2 15 27 19 26  7
  20950619.347    -9501299.32849  -7391849.20749  20950620.1884   20950625.8764
  23487658.328    -8269754.10649  -6435904.58249  23487660.2334   23487665.7394
  20736402.336    -4948177.21849  -3846067.41349  20736402.0274   20736407.3354
  23310764.155    14235433.38849  11092891.95549  23310762.7274   23310769.7094
  22502715.726   -17482617.67649 -13607892.35449  22502717.4584   22502722.8344
  20242885.200   -26517779.25349 -20650541.92749  20242886.2904   20242892.1104
 96  4 20 18 52 59.9990000  0  6  2 15 27 19 26  7
  20952410.744    -9491886.98449  -7384514.92149  20952411.3694   20952416.8744
  23488774.926    -8263883.30449  -6431329.93649  23488777.1214   23488782.6774
  20746944.156    -4892770.10349  -3802893.05849  20746945.6354   20746951.1774
  23327826.161    14325106.24549  11162766.83349  23327827.7504   23327834.2654
  22498954.124   -17502384.31749 -13623294.93849  22498956.1344   22498961.4484
  20236091.043   -26553481.47749 -20678361.83449  20236092.2484   20236098.3374
 96  4 20 18 53 29.9990000  0  6  2 15 27 19 26  7
  20954230.402    -9482325.72349  -7377064.59449  20954231.0214   20954236.2324
  23490002.279    -8257445.17249  -6426313.21949  23490001.9474   23490008.1774
  20757577.237    -4836897.49149  -3759355.98549  20757577.8064   20757583.4774
  23344930.477    14414987.31349  11232803.94349  23344931.4094   23344938.4794
  22495290.889   -17521636.08249 -13638296.31249  22495292.6774   22495297.9794
  20229388.529   -26588704.53749 -20705808.36849  20229389.6764   20229395.3644
 96  4 20 18 53 59.9990000  0  6  2 15 27 19 26  7
  20956077.676    -9472616.08749  -7369498.65149  20956078.5344   20956084.0834
  23491331.357    -8250440.90649  -6420855.35849  23491334.9314   23491341.9554
  20768298.033    -4780560.53249  -3715457.08649  20768298.4094   20768304.3384
  23362073.849    14505078.86849  11303005.06549  23362074.9934   23362081.6214
  22491726.460   -17540369.50249 -13652893.78849  22491727.2544   22491732.9724
  20222773.607   -26623466.76049 -20732895.80649  20222774.3254   20222780.4964
 96  4 20 18 54 29.9990000  0  6  2 15 27 19 26  7
  20957955.274    -9462750.08849  -7361810.86149  20957956.1354   20957961.7974
  23492776.499    -8242864.43549  -6414951.62849  23492776.8174   23492782.5944
  20779102.962    -4723775.72549  -3671209.21049  20779104.0744   20779110.5514
  23379259.942    14595389.08549  11373376.57549  23379260.9634   23379266.9944
  22488261.099   -17558581.81549 -13667085.20649  22488261.7784   22488267.0634
  20216244.132   -26657778.74749 -20759632.40849  20216245.0064   20216251.2314
 96  4 20 18 54 59.9990000  0  6  2 15 27 19 26  7
  20959860.822    -9452738.53049  -7354009.65149  20959861.2984   20959866.8504
  23494324.318    -8234729.93649  -6408613.05849  23494324.0104   23494330.8824
  20789988.069    -4666571.96149  -3626634.87649  20789989.6064   20789995.7744
  23396482.694    14685904.54149  11443908.01849  23396484.2814   23396491.2284
  22484890.380   -17576290.47849 -13680884.16449  22484891.9204   22484897.6024
  20209797.602   -26691659.79549 -20786033.21649  20209797.9124   20209803.7394
 96  4 20 18 55 29.9990000  0  6  2 15 27 19 26  7
  20961795.865    -9442567.73749  -7346084.37049  20961796.4914   20961802.0774
  23495979.970    -8226023.19749  -6401828.60549  23495980.9984   23495988.2464
  20800959.409    -4608925.78849  -3581715.81149  20800959.3804   20800965.3104
  23413749.713    14776640.60549  11514611.36649  23413751.0064   23413758.4034
  22481620.723   -17593473.86049 -13694273.81549  22481622.1034   22481627.3634
  20203438.466   -26725073.47449 -20812069.83949  20203439.2454   20203445.1734
 96  4 20 18 55 59.9990000  0  6  2 15 27 19 26  7
  20963760.476    -9432242.57749  -7338038.80049  20963761.3004   20963767.1014
  23497745.067    -8216752.27149  -6394604.52749  23497745.8904   23497751.5914
  20812008.223    -4550855.43249  -3536466.20949  20812009.6314   20812015.5584
  23431057.582    14867594.12449  11585484.14849  23431059.3944   23431066.8094
  22478450.961   -17610127.41749 -13707250.61649  22478452.7144   22478458.1144
  20197172.245   -26758002.73849 -20837728.99949  20197173.2934   20197179.1164
 96  4 20 18 56 29.9990000  0  6  2 15 27 19 26  7
  20965756.346    -9421752.58649  -7329864.79349  20965757.6714   20965763.3204
  23499617.592    -8206910.31649  -6386935.48949  23499617.8614   23499624.6734
  20823141.731    -4492355.29149  -3490881.71249  20823141.8524   20823147.9234
  23448408.866    14958773.41249  11656532.84749  23448410.2084   23448417.8104
  22475383.622   -17626251.87149 -13719815.13549  22475384.1654   22475389.2614
  20190999.349   -26790442.12349 -20863006.43349  20191000.2474   20191006.1384
 96  4 20 18 56 59.9990000  0  6  2 15 27 19 26  7
  20967784.506    -9411098.38649  -7321562.82749  20967784.9094   20967790.5244
  23501601.420    -8196499.50749  -6378823.19149  23501599.4284   23501605.6104
  20834355.760    -4433417.59949  -3444956.26949  20834357.4274   20834363.8984
  23465802.707    15050177.47849  11727756.70449  23465803.7964   23465810.8594
  22472417.983   -17641838.09449 -13731960.24149  22472418.8664   22472423.9194
  20184920.507   -26822383.08049 -20887895.48449  20184921.9304   20184927.9424
 96  4 20 18 57 29.9990000  0  6  2 15 27 19 26  7
  20969839.561    -9400295.99349  -7313145.38649  20969840.5754   20969846.5434
  23503685.115    -8185532.92049  -6370277.81749  23503685.8424   23503693.0864
  20845654.692    -4374051.95749  -3398697.36549  20845654.7714   20845660.9254
  23483235.054    15141792.46549  11799144.90249  23483237.6034   23483245.7304
  22469553.783   -17656889.65349 -13743688.73149  22469554.3694   22469560.0234
  20178934.239   -26853842.15249 -20912409.03849  20178935.5364   20178941.5244
 96  4 20 18 57 59.9990000  0  6  2 15 27 19 26  7
  20971928.563    -9389320.20049  -7304592.82749  20971929.1974   20971934.9254
  23505881.366    -8173991.00249  -6361284.13749  23505882.8854   23505889.0954
  20857033.928    -4314248.06649  -3352096.96549  20857034.8524   20857040.9144
  23500710.293    15233623.04349  11870701.09949  23500711.8754   23500719.9624
  22466793.537   -17671389.40649 -13754987.24749  22466795.1924   22466800.6354
  20173039.897   -26884818.85849 -20936546.72549  20173040.7394   20173046.7214
 96  4 20 18 58 29.9990000  0  6  2 15 27 19 26  7
  20974048.166    -9378181.49149  -7295913.32549  20974049.1634   20974054.7224
  23508185.024    -8161885.84349  -6351851.56449  23508186.4454   23508192.3834
  20868494.550    -4254019.27649  -3305165.47949  20868495.8864   20868502.0344
  23518223.750    15325641.31149  11942403.54249  23518223.0994   23518230.4224
  22464136.380   -17685352.63049 -13765867.69549  22464138.1984   22464143.6454
  20167234.139   -26915325.36349 -20960318.02349  20167235.9224   20167241.7754
 96  4 20 18 58 59.9990000  0  6  2 15 27 19 26  7
  20976196.632    -9366892.92149  -7287117.04049  20976197.2134   20976202.9664
  23510596.648    -8149216.18549  -6341979.11249  23510597.0114   23510604.0584
  20880037.729    -4193360.67349  -3257899.06649  20880039.0144   20880045.0964
  23535767.054    15417836.30449  12014243.69449  23535767.4184   23535775.1724
  22461584.049   -17698768.09649 -13776321.31449  22461585.4934   22461590.7364
  20161523.279   -26945342.79449 -20983708.22349  20161523.7954   20161529.4574
 96  4 20 18 59 29.9990000  0  6  2 15 27 19 26  7
  20978375.185    -9355446.17049  -7278197.49249  20978375.3614   20978381.1264
  23513116.635    -8135971.61549  -6331658.66849  23513117.2274   23513124.1034
  20891665.427    -4132261.16049  -3210289.08849  20891666.1024   20891671.9954
  23553343.082    15510206.71249  12086220.53549  23553345.0614   23553352.8064
  22459135.877   -17711634.49949 -13786347.09449  22459137.0924   22459142.9884
  20155906.945   -26974858.29949 -21006707.31349  20155907.0114   20155913.1154
 96  4 20 18 59 59.9990000  0  6  2 15 27 19 26  7
  20980582.027    -9343847.56149  -7269159.62249  20980582.4374   20980588.2354
  23515744.668    -8122164.86649  -6320900.17749  23515744.4014   23515750.8364
  20903373.973    -4070731.24249  -3162343.73849  20903374.7144   20903380.8914
  23570951.686    15602739.84849  12158324.16249  23570953.9684   23570961.2114
  22456787.402   -17723980.58449 -13795967.42449  22456787.7444   22456793.8364
  20150383.034   -27003877.61049 -21029319.75849  20150384.7244   20150390.9234
 96  4 20 19  0 29.9990000  0  6  2 15 27 19 26  7
  20982818.033    -9332097.71749  -7260003.90049  20982818.4074   20982824.0884
  23518482.249    -8107788.27849  -6309697.65149  23518480.7124   23518487.3054
  20915165.367    -4008764.50149  -3114058.00649  20915166.7784   20915172.6964
  23588596.379    15695455.71049  12230570.17349  23588596.9404   23588605.0204
  22454536.672   -17735803.23149 -13805179.87749  22454538.1944   22454543.6394
  20144958.429   -27032387.20849 -21051535.02749  20144959.2414   20144965.4334
 96  4 20 19  0 59.9990000  0  6  2 15 27 19 26  7
  20985081.286    -9320200.36949  -7250733.24749  20985082.4024   20985088.0414
  23521324.238    -8092842.24749  -6298051.41149  23521325.2664   23521331.3724
  20927039.918    -3946367.15949  -3065436.73449  20927040.4824   20927046.3664
  23606275.168    15788360.33749  12302963.29349  23606276.1474   23606284.1354
  22452386.784   -17747098.16849 -13813981.12749  22452388.5694   22452394.2964
  20139627.611   -27060404.37049 -21073366.57749  20139628.1374   20139634.1414
 96  4 20 19  1 29.9990000  0  6  2 15 27 19 26  7
  20987376.851    -9308142.60849  -7241337.60449  20987376.9244   20987382.4444
  23524276.187    -8077333.55949  -6285966.74449  23524276.0524   23524283.0844
  20938990.239    -3883564.88749  -3016499.93849  20938991.6204   20938997.4924
  23623988.891    15881446.61849  12375497.94249  23623990.7074   23623997.0314
  22450335.457   -17757878.58449 -13822381.46149  22450336.9274   22450342.8444
  20134385.717   -27087947.92749 -21094829.08749  20134386.8224   20134392.9074
 96  4 20 19  1 59.9990000  0  6  2 15 27 19 26  7
  20989702.522    -9295917.67349  -7231811.68449  20989703.3244   20989708.6694
  23527333.984    -8061254.02949  -6273437.26249  23527336.7354   23527342.5594
  20951019.276    -3820351.94549  -2967243.13049  20951020.6694   20951026.6844
  23641741.872    15974735.35949  12448190.36449  23641742.7214   23641749.7114
  22448385.399   -17768123.37549 -13830364.42249  22448387.2704   22448392.9464
  20129235.737   -27115013.54249 -21115919.17049  20129236.0874   20129242.1124
 96  4 20 19  2 29.9990000  0  6  2 15 27 19 26  7
  20992054.559    -9283558.34549  -7222181.04949  20992055.2004   20992060.9204
  23530499.431    -8044623.95949  -6260478.78849  23530500.5224   23530508.4274
  20963124.228    -3756742.11349  -2917677.05949  20963125.3494   20963131.3054
  23659525.651    16068199.09149  12521019.14549  23659528.2204   23659535.0284
  22446537.549   -17777835.84049 -13837932.59149  22446538.9254   22446544.2004
  20124172.595   -27141622.72649 -21136653.59449  20124172.8374   20124178.5304
 96  4 20 19  2 59.9990000  0  6  2 15 27 19 26  7
  20994432.815    -9271059.65049  -7212441.81849  20994433.4434   20994439.0004
  23533770.216    -8027437.71349  -6247086.92349  23533770.2864   23533778.6094
  20975309.223    -3692715.40049  -2867786.15049  20975309.0014   20975315.3504
  23677345.627    16161829.63949  12593977.91049  23677345.6044   23677353.3994
  22444791.358   -17787014.73749 -13845084.98149  22444792.6154   22444797.5974
  20119196.764   -27167770.13349 -21157028.19349  20119197.0734   20119202.7094
 96  4 20 19  3 29.9990000  0  6  2 15 27 19 26  7
  20996841.286    -9258402.00449  -7202578.72449  20996842.2994   20996847.8194
  23537148.829    -8009676.53249  -6233247.06449  23537150.4554   23537157.7804
  20987578.644    -3628233.09849  -2817540.23149  20987579.5714   20987585.8334
  23695198.810    16255650.38649  12667084.87749  23695199.1714   23695206.6014
  22443148.415   -17795648.43349 -13851812.54249  22443149.4594   22443155.2284
  20114313.528   -27193427.95349 -21177021.29749  20114314.4964   20114320.1784
 96  4 20 19  3 59.9990000  0  6  2 15 27 19 26  7
  20999276.054    -9245608.76449  -7192609.97749  20999276.7054   20999282.5554
  23540636.265    -7991349.58649  -6218966.33949  23540638.9154   23540645.9464
  20999938.331    -3563282.38649  -2766929.31649  20999939.6014   20999945.7234
  23713088.003    16349654.95449  12740335.07849  23713087.3544   23713095.9384
  22441606.966   -17803751.75349 -13858126.83249  22441607.7654   22441613.4914
  20109521.090   -27218614.86149 -21196647.45449  20109521.4824   20109526.9964
 96  4 20 19  4 29.9990000  0  7  2  4 15 27 19 26  7
  21001736.407    -9232682.48049  -7182537.55549  21001736.8014   21001742.6994
  24424348.031    -4795745.04859  -3236708.07859  24424348.7094   24424356.4124
  23544232.401    -7972461.13049  -6204248.07449  23544232.3564   23544240.2774
  21012385.596    -3497874.85349  -2715962.43349  21012386.2644   21012392.5584
  23731005.316    16443822.04049  12813711.92049  23731007.5314   23731015.0464
  22440161.486   -17811343.71649 -13864042.65149  22440162.6684   22440168.7974
  20104813.968   -27243346.41849 -21215918.79349  20104815.2364   20104821.0524
 96  4 20 19  4 59.9990000  0  7  2  4 15 27 19 26  7
  21004224.688    -9219603.56049  -7172346.20049  21004225.4634   21004231.3064
  24404383.376    -4900649.14949  -3318451.48549  24404386.4144   24404393.9744
  23547935.526    -7953006.38549  -6189088.54549  23547935.3364   23547942.2494
  21024917.020    -3432019.35149  -2664646.49449  21024917.9354   21024924.4894
  23748956.024    16538158.61749  12887220.84049  23748958.8594   23748966.3854
  22438813.218   -17818428.60549 -13869563.35349  22438814.9224   22438821.0294
  20100192.650   -27267623.24349 -21234835.79549  20100195.2764   20100201.0894
 96  4 20 19  5 29.9990000  0  7  2  4 15 27 19 26  7
  21006745.600    -9206353.53649  -7162021.51549  21006746.6774   21006752.6934
  24384405.427    -5005644.88449  -3400266.29149  24384406.5724   24384413.8754
  23551743.599    -7932988.13049  -6173489.92349  23551744.4954   23551751.7504
  21037529.851    -3365735.79949  -2612997.00449  21037531.1074   21037538.0924
  23766944.760    16632676.74549  12960871.22849  23766944.6464   23766954.0664
  22437562.178   -17825003.80149 -13874686.89349  22437563.7874   22437569.6294
  20095661.519   -27291448.13449 -21253400.63449  20095661.8154   20095667.6534
 96  4 20 19  5 59.9990000  0  7  2  4 15 27 19 26  7
  21009298.612    -9192939.01449  -7151568.65249  21009299.6044   21009305.3864
  24364408.237    -5110724.81049  -3482146.70449  24364410.1204   24364417.7894
  23555660.523    -7912410.78249  -6157455.64449  23555659.8764   23555666.5424
  21050221.779    -3299047.72049  -2561032.29949  21050221.5604   21050228.0934
  23784963.036    16727366.06549  13034655.00649  23784963.2044   23784971.8844
  22436406.385   -17831077.83849 -13879419.92249  22436407.6214   22436413.7944
  20091213.797   -27314813.01249 -21271607.02749  20091215.6374   20091221.5894
 96  4 20 19  6 29.9990000  0  7  2  4 15 27 19 26  7
  21011884.298    -9179351.36049  -7140980.87949  21011885.5384   21011891.0804
  24344398.617    -5215875.31849  -3564082.10349  24344399.5664   24344408.7214
  23559679.619    -7891274.52749  -6140985.83449  23559682.7534   23559688.6654
  21062984.719    -3231967.92549  -2508762.36149  21062986.3884   21062992.7864
  23803011.026    16822231.66649  13108576.14849  23803016.0544   23803023.9194
  22435347.098   -17836643.47149 -13883756.79449  22435348.4484   22435354.6454
  20086860.057   -27337699.44849 -21289440.60849  20086860.3684   20086866.1364
 96  4 20 19  6 59.9990000  0  8  2  4 15 27 19  9 26  7
  21014501.701    -9165600.58849  -7130266.00749  21014502.3104   21014507.9954
  24324374.734    -5321092.82049  -3646069.70449  24324377.7504   24324385.8864
  23563809.100    -7869585.15949  -6124085.03149  23563809.6454   23563815.8724
  21075824.237    -3164497.46649  -2456188.01249  21075825.8704   21075831.6864
  23821102.548    16917281.21449  13182640.62449  23821104.2984   23821110.4494
  24476904.336    -5216018.20559  -4052981.39659  24476903.4824   24476910.7834
  22434384.544   -17841701.92649 -13887698.46049  22434385.9514   22434392.1994
  20082596.247   -27360100.19049 -21306895.73149  20082597.8494   20082603.4624
 96  4 20 19  7 29.9990000  0  8  2  4 15 27 19  9 26  7
  21017147.244    -9151695.56749  -7119430.93049  21017148.1334   21017153.7694
  24304342.518    -5426376.05549  -3728108.51949  24304342.7284   24304351.0494
  23568042.292    -7847336.17349  -6106748.16049  23568043.0454   23568048.9864
  21088740.757    -3096627.57849  -2403302.41649  21088740.7794   21088747.2734
  23839227.824    17012522.60949  13256854.58949  23839227.5994   23839234.6874
  24457329.878    -5318872.75849  -4133127.78049  24457332.0384   24457338.8334
  22433519.088   -17846246.79449 -13891239.92349  22433521.0824   22433526.6884
  20078427.412   -27382009.57149 -21323967.97049  20078428.6084   20078434.2734
 96  4 20 19  7 59.9990000  0  8  2  4 15 27 19  9 26  7
  21019817.131    -9137663.95949  -7108497.21749  21019818.0274   21019823.7754
  24284295.848    -5531715.37749  -3810191.03849  24284297.7444   24284305.5144
  23572383.084    -7824525.45849  -6088973.58749  23572383.8214   23572390.1914
  21101730.415    -3028357.32549  -2350104.84649  21101732.2964   21101738.4574
  23857383.829    17107940.68349  13331206.20949  23857385.1934   23857392.4614
  24437759.622    -5421712.08249  -4213262.29249  24437762.1674   24437768.3484
  22432756.002   -17850261.57349 -13894368.32149  22432757.1014   22432762.6794
  20074351.349   -27403430.63349 -21340659.70449  20074352.1424   20074357.8524
 96  4 20 19  8 29.9990000  0  8  2  4 15 27 19  9 26  7
  21022513.128    -9123495.71249  -7097457.03749  21022514.2044   21022520.0954
  24264239.583    -5637115.79049  -3892321.16149  24264241.0324   24264249.4964
  23576831.319    -7801154.39449  -6070762.36749  23576831.1894   23576838.0414
  21114800.206    -2959680.10849  -2296590.16349  21114801.1014   21114807.2974
  23875573.018    17203528.82449  13405690.35449  23875574.6304   23875582.8094
  24418197.812    -5524523.61849  -4293375.15149  24418197.3944   24418204.6594
  22432095.209   -17853732.66649 -13897073.07549  22432096.6934   22432102.3204
  20070363.523   -27424383.92049 -21356986.93849  20070364.9394   20070370.9064
 96  4 20 19  8 59.9990000  0  8  2  4 15 27 19  9 26  7
  21025234.120    -9109195.32249  -7086313.88449  21025235.2414   21025241.4054
  24244167.908    -5742592.39649  -3974510.66949  24244169.3224   24244176.8264
  23581383.894    -7777230.01149  -6052120.00149  23581384.0904   23581391.2524
  21127945.146    -2890602.90749  -2242763.81149  21127946.1034   21127952.7564
  23893794.721    17299273.06249  13480296.13449  23893795.0664   23893800.7114
  24398638.723    -5627299.76549  -4373460.41849  24398641.0504   24398645.5824
  22431536.242   -17856668.43649 -13899360.69749  22431537.8484   22431543.5814
  20066463.900   -27444880.00949 -21372957.91849  20066464.5454   20066470.2384
 96  4 20 19  9 29.9990000  0  8  2  4 15 27 19  9 26  7
  21027987.905    -9094731.16249  -7075043.12149  21027987.8214   21027993.7624
  24224085.376    -5848128.77049  -4056746.74049  24224086.4274   24224094.0964
  23586044.000    -7752737.68149  -6033035.07949  23586044.7714   23586051.9334
  21141168.806    -2821109.33649  -2188613.01049  21141170.2194   21141176.9634
  23912044.066    17395182.01749  13555030.27649  23912046.2694   23912053.7834
  24379092.146    -5730021.86849  -4453503.57749  24379092.5824   24379099.0274
  22431083.630   -17859050.18149 -13901216.61249  22431084.7624   22431090.5694
  20062652.438   -27464907.92449 -21388564.08449  20062653.2804   20062659.2994
 96  4 20 19  9 59.9990000  0  8  2  4 15 27 19  9 26  7
  21030771.443    -9080096.10249  -7063639.18449  21030772.7154   21030778.6864
  24203990.634    -5953726.84049  -4139030.88649  24203991.8814   24203999.3354
  23590810.904    -7727684.28049  -6013512.95249  23590812.4104   23590819.1394
  21154472.875    -2751194.11549  -2134133.65449  21154474.5564   21154481.3964
  23930323.069    17491236.18949  13629877.55349  23930324.0284   23930332.6754
  24359550.577    -5832709.46849  -4533519.85349  24359552.4614   24359558.3324
  22430733.301   -17860887.06549 -13902647.96649  22430734.7424   22430741.2564
  20058930.532   -27484464.62449 -21403803.06749  20058931.9334   20058937.6574
 96  4 20 19 10 29.9990000  0  8  2  4 15 27 19  9 26  7
  21033590.603    -9065284.72749  -7052097.86649  21033591.3964   21033597.0184
  24183882.975    -6059396.35249  -4221370.70749  24183884.3134   24183890.8104
  23595682.121    -7702086.95849  -5993567.00249  23595683.2024   23595690.4144
  21167855.820    -2680868.83249  -2079334.77649  21167857.1874   21167863.7734
  23948628.299    17587422.49449  13704827.80049  23948627.6904   23948636.3524
  24340014.501    -5935372.46549  -4613516.96449  24340015.9424   24340021.3664
  22430480.812   -17862218.62749 -13903685.55049  22430481.9664   22430487.7834
  20055296.782   -27503555.82549 -21418679.32649  20055298.8624   20055304.7294
 96  4 20 19 10 59.9990000  0  8  2  4 15 27 19  9 26  7
  21036444.960    -9050288.21249  -7040412.28049  21036445.2904   21036451.0194
  24163767.333    -6165097.95249  -4303735.52249  24163769.3754   24163776.9534
  23600661.554    -7675922.30949  -5973178.96949  23600662.4004   23600669.1514
  21181320.071    -2610117.23149  -2024203.69549  21181320.7144   21181327.4974
  23966958.124    17683761.07949  13779896.70449  23966960.0744   23966968.8254
  24320485.723    -6037994.78949  -4693482.38349  24320487.3944   24320494.2864
  22430326.093   -17863026.08649 -13904314.75049  22430327.9984   22430334.1184
  20051759.850   -27522152.63049 -21433170.34149  20051760.2444   20051765.9674
 96  4 20 19 11 29.9990000  0  8  2  4 15 27 19  9 26  7
  21039329.465    -9035126.12949  -7028597.67349  21039330.5874   21039336.3944
  24143647.286    -6270832.13849  -4386125.73249  24143649.3774   24143656.9474
  23605746.143    -7649204.78649  -5952360.12849  23605747.4154   23605753.5994
  21194863.731    -2538946.43249  -1968745.95649  21194864.3204   21194870.5614
  23985316.472    17780230.33249  13855067.41149  23985317.7894   23985326.4114
  24300961.003    -6140606.87249  -4773439.82549  24300960.7374   24300966.4754
  22430271.519   -17863315.30449 -13904540.12749  22430272.9654   22430279.1194
  20048311.063   -27540277.74249 -21447293.80249  20048311.2414   20048316.7184
 96  4 20 19 11 59.9990000  0  8  2  4 15 27 19  9 26  7
  21042243.621    -9019813.84549  -7016666.03349  21042244.3764   21042250.1064
  24123518.809    -6376599.75049  -4468541.98649  24123521.6624   24123529.4114
  23610935.642    -7621934.96449  -5931110.92349  23610935.4704   23610943.0724
  21208485.365    -2467363.99849  -1912967.46849  21208486.2014   21208492.4444
  24003699.486    17876834.41849  13930343.19149  24003701.6234   24003709.6894
  24281436.065    -6243214.35349  -4853393.66149  24281435.7104   24281442.7824
  22430314.215   -17863089.78749 -13904364.40749  22430315.8424   22430321.5744
  20044950.618   -27557926.22949 -21461045.86549  20044952.5574   20044958.1004
 96  4 20 19 12 29.9990000  0  8  2  4 15 27 19  9 26  7
  21045186.706    -9004346.90649  -7004613.88049  21045187.4904   21045193.5594
  24103389.741    -6482388.88249  -4550975.00749  24103391.1854   24103398.5454
  23616230.272    -7594105.07349  -5909425.31549  23616232.2724   23616238.7244
  21222182.539    -2395383.29049  -1856878.64449  21222183.5704   21222189.8174
  24022114.077    17973601.66649  14005746.10849  24022115.0364   24022125.7494
  24261915.160    -6345791.84249  -4933324.13849  24261915.2864   24261922.7784
  22430458.319   -17862335.62449 -13903776.76449  22430459.4894   22430465.2924
  20041683.231   -27575100.30049 -21474428.25349  20041684.3104   20041689.8824
 96  4 20 19 12 59.9990000  0  8  2  4 15 27 19  9 26  7
  21048157.443    -8988738.81749  -6992451.74449  21048157.7384   21048163.5794
  24083248.660    -6588217.66749  -4633438.92949  24083252.6764   24083259.5244
  23621633.290    -7565720.41649  -5887307.42349  23621632.6714   23621639.7564
  21235955.356    -2323012.40949  -1800485.78249  21235955.4324   21235961.7474
  24040560.119    18070535.44649  14081278.78549  24040560.9194   24040570.2074
  24242402.944    -6448332.97849  -5013226.28949  24242402.5954   24242409.7534
  22430702.796   -17861048.88149 -13902774.10949  22430704.2524   22430710.1384
  20038504.026   -27591809.64749 -21487448.51949  20038504.6714   20038510.2284
 96  4 20 19 13 29.9990000  0  8  2  4 15 27 19  9 26  7
  21051157.026    -8972973.52649  -6980167.10949  21051157.6804   21051163.5074
  24063102.760    -6694090.70749  -4715937.32549  24063104.2644   24063111.6444
  23627142.016    -7536778.83149  -5864755.55449  23627140.3514   23627147.2154
  21249801.925    -2250242.80549  -1743782.23849  21249803.1614   21249809.2854
  24059042.632    18167659.87449  14156960.02349  24059043.8444   24059052.4634
  24222899.239    -6550820.39849  -5093086.56549  24222900.0094   24222907.1774
  22431048.387   -17859234.62149 -13901360.41349  22431049.6194   22431055.8014
  20035412.769   -27608050.57149 -21500103.77749  20035414.4924   20035420.0814
 96  4 20 19 13 59.9990000  0  8  2  4 15 27 19  9 26  7
  21054187.557    -8957049.55149  -6967758.82649  21054188.1274   21054193.4524
  24042946.717    -6800011.80649  -4798473.17549  24042949.5304   24042955.3084
  23632754.487    -7507282.08849  -5841771.09349  23632753.4434   23632760.2254
  21263722.016    -2177089.19749  -1686779.46349  21263723.7394   21263729.7434
  24077562.351    18264986.31149  14232798.66649  24077565.5484   24077573.7384
  24203413.559    -6653222.97949  -5172880.74949  24203413.3214   24203419.6684
  22431492.561   -17856898.47049 -13899540.04349  22431494.1214   22431499.9914
  20032412.643   -27623816.78249 -21512389.13649  20032414.3684   20032419.8664
 96  4 20 19 14 29.9990000  0  8  2  4 15 27 19  9 26  7
  21057248.443    -8940966.12749  -6955226.29849  21057248.7224   21057254.2304
  24022778.815    -6905991.52949  -4881054.70049  24022782.0674   24022789.1544
  23638470.609    -7477237.74949  -5818359.93549  23638470.8414   23638477.2274
  21277714.197    -2103558.93149  -1629483.18449  21277716.3094   21277722.2114
  24096118.949    18362493.64049  14308778.27049  24096120.2794   24096127.2974
  24183942.167    -6755540.80649  -5252608.88049  24183943.6384   24183950.2724
  22432036.735   -17854040.12849 -13897312.77349  22432038.2754   22432044.0454
  20029500.609   -27639123.61849 -21524316.53649  20029501.4914   20029507.3694
 96  4 20 19 14 59.9990000  0  8  2  4 15 27 19  9 26  7
  21060337.548    -8924733.09849  -6942577.19749  21060337.8004   21060343.5074
  24002599.851    -7012038.80549  -4963688.86849  24002600.3664   24002608.8084
  23644290.996    -7446656.23749  -5794530.19849  23644289.8394   23644296.3534
  21291782.963    -2029631.12749  -1571877.13749  21291784.3964   21291790.5954
  24114704.555    18460153.29049  14384876.57049  24114704.1064   24114710.6554
  24164482.807    -6857797.83949  -5332289.64749  24164484.0224   24164491.1554
  22432677.118   -17850669.35649 -13894686.20849  22432679.8534   22432685.7114
  20026675.287   -27653972.02649 -21535886.71949  20026675.6914   20026681.9444
 96  4 20 19 15 29.9990000  0  8  2  4 15 27 19  9 26  7
  21063460.022    -8908320.15449  -6929787.89949  21063461.0704   21063466.5284
  23982415.442    -7118108.16649  -5046340.23449  23982416.7014   23982424.8354
  23650216.662    -7415511.00249  -5770261.20149  23650216.2204   23650223.7164
  21305932.660    -1955275.64749  -1513937.84049  21305933.6514   21305939.7114
  24133315.383    18557973.30949  14461099.82749  24133319.2174   24133326.5724
  24145038.396    -6959981.72349  -5411913.41849  24145039.9854   24145046.4184
  22433421.666   -17846756.60049 -13891637.31949  22433423.9954   22433430.1774
  20023941.410   -27668334.53749 -21547078.28649  20023942.7604   20023948.5614
 96  4 20 19 15 59.9990000  0  8  2  4 15 27 19  9 26  7
  21066616.762    -8891730.77149  -6916861.11249  21066618.0544   21066623.5534
  23962227.248    -7224193.98449  -5129004.40749  23962228.7864   23962237.7854
  23656248.976    -7383804.24749  -5745554.64549  23656250.4564   23656257.5024
  21320161.419    -1880503.35249  -1455673.75249  21320162.5614   21320168.3204
  24151956.801    18655926.64549  14537426.95249  24151959.0594   24151966.8664
  24125606.812    -7062103.73649  -5491488.96549  24125606.6494   24125612.7154
  22434270.631   -17842302.87249 -13888166.88849  22434272.0844   22434277.4964
  20021302.253   -27682204.05649 -21557885.70349  20021303.4914   20021309.2874
 96  4 20 19 16 29.9990000  0  8  2  4 15 27 19  9 26  7
  21069804.891    -8874980.25549  -6903808.77249  21069805.6914   21069811.6314
  23942035.912    -7330301.21549  -5211685.28049  23942037.8374   23942045.7604
  23662386.404    -7351554.20449  -5720424.75149  23662388.0164   23662394.2974
  21334466.952    -1805328.90849  -1397096.30849  21334467.5194   21334473.6354
  24170616.442    18753975.48149  14613828.50549  24170616.7084   24170625.5924
  24106172.768    -7164214.28549  -5571055.58649  24106174.5074   24106182.3434
  22435214.552   -17837338.64849 -13884298.67449  22435216.5204   22435221.8464
  20018752.998   -27695603.08449 -21568326.50549  20018753.4434   20018759.4534
 96  4 20 19 16 59.9990000  0  8  2  4 15 27 19  9 26  7
  21073021.351    -8858077.63549  -6890637.91449  21073021.9814   21073028.0124
  23921844.619    -7436411.45649  -5294368.48649  23921844.9734   23921853.2844
  23668625.359    -7318761.41649  -5694871.93149  23668626.9274   23668634.4034
  21348846.706    -1729759.84749  -1338211.35649  21348847.8234   21348854.0694
  24189293.533    18852124.35449  14690308.00049  24189295.1444   24189302.4624
  24086743.869    -7266322.82649  -5650620.63549  24086744.2194   24086751.5984
  22436251.959   -17831890.40149 -13880053.29349  22436253.1714   22436258.7974
  20016291.947   -27708531.76449 -21578400.80149  20016293.3244   20016299.0724
 96  4 20 19 17 29.9990000  0  8  2  4 15 27 19  9 26  7
  21076267.669    -8841017.91649  -6877344.63549  21076268.2624   21076274.0364
  23901652.331    -7542512.09349  -5377044.21549  23901655.0544   23901663.3034
  23674971.980    -7285420.33449  -5668891.87349  23674972.0884   23674978.1994
  21363296.668    -1653825.68549  -1279041.91749  21363297.7474   21363303.9304
  24207993.449    18950390.05249  14766878.53449  24207993.5674   24208002.2124
  24067316.716    -7368413.09349  -5730171.44049  24067316.9144   24067324.1224
  22437381.317   -17825958.65749 -13875431.16349  22437381.9904   22437387.8844
  20013921.836   -27720991.11149 -21588109.38149  20013922.5554   20013928.0444
 96  4 20 19 17 59.9990000  0  8  2  4 15 27 19  9 26  7
  21079543.580    -8823801.78949  -6863929.48049  21079544.4374   21079550.3824
  23881466.245    -7648599.65449  -5459709.75249  23881466.9644   23881475.0494
  23681421.330    -7251527.65749  -5642481.99949  23681422.1494   23681428.5254
  21377815.833    -1577519.69149  -1219582.74249  21377818.4984   21377824.8434
  24226716.313    19048780.13949  14843545.98549  24226716.6244   24226724.7364
  24047893.351    -7470478.99049  -5809703.26549  24047895.0264   24047901.2444
  22438599.679   -17819554.06049 -13870440.57649  22438600.7114   22438606.8814
  20011640.118   -27732977.82849 -21597449.68149  20011641.6494   20011647.1854
 96  4 20 19 18 29.9990000  0  8  2  4 15 27 19  9 26  7
  21082845.486    -8806451.78049  -6850410.00549  21082846.0244   21082852.1934
  23861276.870    -7754690.60549  -5542377.93349  23861279.3514   23861286.8924
  23687971.606    -7217100.42349  -5615655.59949  23687973.5404   23687979.8324
  21392407.095    -1500847.33249  -1159838.08849  21392408.4434   21392414.9674
  24245460.807    19147286.69449  14920304.19349  24245462.0044   24245470.5974
  24028474.143    -7572527.36849  -5889221.43649  24028475.8654   24028482.2354
  22439906.268   -17812687.52749 -13865090.04649  22439907.6174   22439913.4444
  20009443.559   -27744520.33549 -21606443.84449  20009444.9034   20009450.7374
 96  4 20 19 18 59.9990000  0  8  2  4 15 27 19  9 26  7
  21086170.636    -8788974.33649  -6836791.22749  21086171.7684   21086177.6164
  23841086.491    -7860794.20649  -5625055.98749  23841087.2704   23841095.1304
  23694625.844    -7182139.45649  -5588413.29349  23694626.1414   23694632.6114
  21407067.934    -1423800.66049  -1099801.76549  21407069.7824   21407076.1644
  24264232.090    19245922.02649  14997162.75149  24264232.9664   24264240.2894
  24009065.376    -7674519.45749  -5968695.75549  24009067.6824   24009073.6294
  22441304.949   -17805340.09349 -13859364.79649  22441305.5334   22441311.8004
  20007331.961   -27755620.87049 -21615093.60849  20007332.6204   20007338.4214
 96  4 20 19 19 29.9990000  0  8  2  4 15 27 19  9 26  7
  21089522.780    -8771359.19049  -6823065.14849  21089523.8954   21089529.5364
  23820894.900    -7966898.28949  -5707734.41849  23820896.4654   23820904.1624
  23701382.479    -7146634.55449  -5560747.15249  23701382.3204   23701389.3304
  21421805.245    -1346360.64549  -1039458.93649  21421806.5204   21421812.5154
  24283027.251    19344692.76649  15074126.81449  24283026.8654   24283036.4104
  23989673.881    -7776427.76949  -6048104.79249  23989675.3054   23989680.9044
  22442800.364   -17797477.78049 -13853238.34149  22442801.4674   22442808.0484
  20005306.095   -27766265.91849 -21623388.44649  20005306.8524   20005312.4974
 96  4 20 19 19 59.9990000  0  8  2  4 15 27 19  9 26  7
  21092903.595    -8753598.06049  -6809225.31749  21092903.6474   21092909.3994
  23800705.517    -8072996.45349  -5790408.23049  23800706.3154   23800713.4764
  23708243.718    -7110578.75649  -5532651.73649  23708243.8084   23708250.8224
  21436620.067    -1268507.14849   -978793.91449  21436621.6364   21436627.1084
  24301845.995    19443600.28549  15151197.44549  24301848.3484   24301856.8064
  23970301.448    -7878233.92849  -6127434.23249  23970302.3964   23970308.6994
  22444396.639   -17789088.69049 -13846701.40449  22444397.9474   22444403.6484
  20003367.533   -27776448.24449 -21631322.72349  20003369.1644   20003375.1054
 96  4 20 19 20 29.9990000  0  8  2  4 15 27 19  9 26  7
  21096311.953    -8735681.40649  -6795264.30149  21096312.9054   21096318.6754
  23780516.552    -8179087.27949  -5873076.31949  23780518.1304   23780526.7444
  23715211.635    -7073970.31349  -5504125.68549  23715210.0314   23715216.9394
  21451513.102    -1190246.61649   -917811.72049  21451514.1164   21451519.6804
  24320697.265    19542657.08349  15228384.41649  24320698.2104   24320707.1764
  23950952.632    -7979912.37049  -6206664.14249  23950953.4204   23950958.7404
  22446096.492   -17780154.38249 -13839739.62149  22446098.4764   22446103.8174
  20001517.477   -27786172.38249 -21638899.97649  20001518.7454   20001524.5034
 96  4 20 19 20 59.9990000  0  7  2  4 15 27  9 26  7
  21099751.576    -8717607.70849  -6781180.91049  21099752.4964   21099757.9914
  23760331.851    -8285161.42249  -5955731.41049  23760333.6314   23760340.1494
  23722278.516    -7036818.46749  -5475176.21049  23722279.7684   23722287.1494
  21466480.294    -1111592.53749   -856522.87149  21466481.5284   21466487.3704
  23931626.856    -8081471.59849  -6285801.16749  23931626.2174   23931634.7004
  22447897.582   -17770688.24449 -13832363.43249  22447899.5914   22447905.3794
  19999754.466   -27795435.38549 -21646117.90149  19999756.2104   19999762.2084
 96  4 20 19 21 29.9990000  0  7  2  4 15 27  9 26  7
  21103224.584    -8699358.67449  -6766960.89449  21103225.0294   21103230.9154
  23740151.678    -8391206.82949  -6038364.11149  23740153.3434   23740160.9184
  23729451.150    -6999127.87649  -5445806.93849  23729451.6024   23729459.3934
  21481522.031    -1032551.74849   -794932.69349  21481522.6134   21481528.0894
  23912317.386    -8182941.56749  -6364868.63749  23912318.0724   23912323.8884
  22449797.497   -17760704.65249 -13824584.03849  22449799.2034   22449804.4934
  19998081.452   -27804234.10649 -21652974.04649  19998081.7854   19998087.7744
 96  4 20 19 21 59.9990000  0  7  2  4 15 27  9 26  7
  21106733.321    -8680917.29549  -6752591.00049  21106734.1954   21106740.2054
  23719977.316    -8497224.63449  -6120975.30849  23719979.5414   23719986.9534
  23736725.258    -6960896.67849  -5416016.41349  23736727.4934   23736734.7804
  21496636.683     -953123.96649   -733040.96049  21496636.8554   21496642.8854
  23893025.370    -8284321.09849  -6443865.63849  23893025.4194   23893032.0544
  22451795.376   -17750209.60949 -13816406.09849  22451796.6994   22451801.9074
  19996493.382   -27812571.79549 -21659470.94449  19996494.9394   19996501.2764
 96  4 20 19 22 29.9990000  0  7  2  4 15 27  9 26  7
  21110280.595    -8662275.76449  -6738065.14549  21110281.4504   21110287.4914
  23699808.207    -8603208.41649  -6203559.99749  23699809.1944   23699818.2024
  23744103.074    -6922123.75349  -5385803.76549  23744105.2274   23744113.2014
  21511821.863     -873319.52149   -670855.73349  21511823.7604   21511829.2414
  23873749.180    -8385627.54449  -6522805.69249  23873747.1974   23873754.4144
  22453889.074   -17739208.11449 -13807833.51349  22453889.9774   22453895.3014
  19994996.464   -27820444.79949 -21665605.75349  19994996.8944   19995002.4814
 96  4 20 19 22 59.9990000  0  7  2  4 15 27  9 26  7
  21113864.475    -8643445.69549  -6723392.37249  21113864.9324   21113870.7704
  23679647.096    -8709156.53649  -6286116.90149  23679648.5324   23679656.5294
  23751584.265    -6882816.69849  -5355174.90249  23751585.3184   23751592.9204
  21527078.135     -793148.61149   -608384.94149  21527079.5394   21527085.1624
  23854475.672    -8486891.47849  -6601712.60549  23854477.4534   23854485.2064
  22456077.239   -17727705.82549 -13798870.71049  22456078.6234   22456084.6384
  19993586.334   -27827856.21449 -21671380.88249  19993586.6384   19993592.5134
 96  4 20 19 23 29.9990000  0  7  2  4 15 27  9 26  7
  21117481.618    -8624436.48149  -6708580.01249  21117482.2604   21117487.9834
  23659489.881    -8815086.56149  -6368659.72949  23659490.5454   23659498.0884
  23759166.019    -6842978.33549  -5324132.04449  23759166.1924   23759174.1074
  21542402.696     -712619.07949   -545634.71149  21542403.8844   21542409.7084
  23835214.365    -8588114.64849  -6680587.77949  23835215.8854   23835220.8754
  22458360.122   -17715707.84949 -13789521.65749  22458362.2584   22458367.2454
  19992259.896   -27834822.59149 -21676809.22949  19992261.1974   19992266.8324
 96  4 20 19 23 59.9990000  0  7  2  4 15 27  9 26  7
  21121124.945    -8605288.70149  -6693659.67949  21121126.0254   21121131.6474
  23639332.168    -8921017.28549  -6451203.08149  23639333.8344   23639340.8444
  23766846.258    -6802622.51349  -5292685.97449  23766845.9294   23766852.3834
  21557790.364     -631754.58149   -482623.46049  21557791.8944   21557797.7954
  23815961.527    -8689291.67749  -6759426.99849  23815962.2974   23815968.3204
  22460735.489   -17703226.71749 -13779796.11049  22460737.1404   22460742.8674
  19991016.672   -27841359.37549 -21681902.83049  19991017.3224   19991023.0464
 96  4 20 19 24 29.9990000  0  7  2  4 15 27  9 26  7
  21124798.698    -8585988.35849  -6678620.46349  21124798.8784   21124804.7484
  23619181.756    -9026912.32349  -6533718.63549  23619182.3734   23619188.9644
  23774627.642    -6761729.07149  -5260820.98749  23774627.3644   23774634.1584
  21573245.742     -550534.37649   -419335.03649  21573247.2674   21573253.9504
  23796719.586    -8790404.63649  -6838216.28449  23796720.9594   23796728.5534
  22463208.547   -17690230.02149 -13769668.84149  22463210.3624   22463216.1724
  19989858.062   -27847440.30549 -21686641.22049  19989860.2454   19989866.2244
 96  4 20 19 24 59.9990000  0  7  2  4 15 27  9 26  7
  21128497.301    -8566546.98749  -6663471.35549  21128498.3104   21128504.3614
  23599036.742    -9132773.92649  -6616208.13249  23599037.0974   23599043.7634
  23782511.793    -6720302.22749  -5228540.34649  23782511.6504   23782517.7014
  21588773.599     -468939.70149   -355754.81949  21588774.4514   21588780.4824
  23777496.077    -8891430.37549  -6916937.61449  23777496.9714   23777503.2064
  22465780.532   -17676716.82749 -13759139.09649  22465782.2944   22465787.8194
  19988787.712   -27853072.05849 -21691029.60449  19988788.3284   19988794.4524
 96  4 20 19 25 29.9990000  0  7  2  4 15 27  9 26  7
  21132221.665    -8546975.54649  -6648220.89749  21132222.6404   21132228.3784
  23578895.673    -9238614.22749  -6698681.02749  23578896.2034   23578903.9054
  23790494.058    -6678352.11949  -5195851.97149  23790493.9394   23790499.9254
  21604369.424     -386978.55849   -291889.04549  21604371.2144   21604377.2684
  23758290.431    -8992355.77149  -6995580.75449  23758291.1894   23758297.2334
  22468446.905   -17662706.38149 -13748221.87849  22468448.4884   22468453.8054
  19987799.383   -27858258.49049 -21695070.97549  19987801.1374   19987807.6524
 96  4 20 19 25 59.9990000  0  7  2  4 15 27  9 26  7
  21135973.962    -8527258.88249  -6632857.27549  21135974.5884   21135980.3694
  23558761.610    -9344416.47949  -6781124.26649  23558763.5044   23558770.3004
  23798576.810    -6635870.41949  -5162749.37649  23798578.3634   23798584.6784
  21620038.129     -304641.03549   -227729.98349  21620039.6574   21620045.7214
  23739105.130    -9093169.09749  -7074136.55949  23739106.1824   23739113.2934
  22471211.047   -17648181.51949 -13736903.82049  22471212.8004   22471217.8734
  19986901.506   -27862981.24749 -21698751.04949  19986902.6324   19986908.6034
 96  4 20 19 26 29.9990000  0  7  2  4 15 27  9 26  7
  21139755.061    -8507386.50449  -6617372.32049  21139756.1944   21139762.1264
  23538635.373    -9450179.57449  -6863536.99349  23538637.3574   23538644.1604
  23806764.108    -6592856.51349  -5129232.06149  23806763.3354   23806769.9294
  21635780.091     -221919.37049   -163271.58649  21635781.0824   21635787.3864
  23719942.340    -9193881.63749  -7152613.83049  23719941.7414   23719948.2754
  22474071.372   -17633151.73449 -13725192.31749  22474072.6254   22474078.1574
  19986089.678   -27867242.84149 -21702071.76849  19986091.4004   19986097.5324
 96  4 20 19 26 59.9990000  0  7  2  4 15 27  9 26  7
  21143566.557    -8487357.26149  -6601765.13349  21143567.6234   21143573.2394
  23518513.267    -9555925.77249  -6945936.55349  23518514.0114   23518521.3224
  23815048.171    -6549318.26249  -5095306.17449  23815048.4064   23815055.5854
  21651593.619     -138826.26749    -98523.76949  21651593.0434   21651599.3594
  23700793.503    -9294494.00349  -7231013.03949  23700795.0724   23700802.6864
  22477021.069   -17617646.88149 -13713110.63649  22477023.1184   22477029.0874
  19985366.179   -27871053.77349 -21705041.33249  19985366.2974   19985372.4254
 96  4 20 19 27 29.9990000  0  7  2  4 15 27  9 26  7
  21147410.369    -8467163.89549  -6586030.06249  21147410.6184   21147415.7584
  23498394.146    -9661650.10649  -7028319.07649  23498395.6624   23498402.0804
  23823431.979    -6505262.63749  -5060977.13449  23823431.9814   23823438.8644
  21667472.442      -55380.89049    -33501.44249  21667472.1414   21667478.1524
  23681663.272    -9395026.02949  -7309349.64949  23681664.1364   23681671.2524
  22480059.811   -17601678.14149 -13700667.48149  22480061.7914   22480067.5184
  19984726.112   -27874413.87549 -21707659.59649  19984727.1614   19984732.8384
 96  4 20 19 27 59.9990000  0  7  2  4 15 27  9 26  7
  21151286.336    -8446793.63849  -6570157.14749  21151286.9554   21151292.1524
  23478282.977    -9767337.50649  -7110672.81849  23478283.3654   23478290.6884
  23831913.276    -6460692.03449  -5026246.80949  23831913.4574   23831920.4544
  21683418.997       28420.30949     31798.13949  21683419.2354   21683425.3174
  23662547.884    -9495480.43849  -7387625.76949  23662549.1324   23662556.9054
  22483186.797   -17585246.96849 -13687863.99349  22483188.5014   22483194.1814
  19984172.086   -27877330.68149 -21709932.44049  19984172.0104   19984177.6184
 96  4 20 19 28 29.9990000  0  7  2  4 15 27  9 26  7
  21155201.267    -8426222.54049  -6554127.73249  21155201.5134   21155207.2484
  23458182.218    -9872965.27249  -7192980.09649  23458183.6114   23458190.7154
  23840493.164    -6415591.54349  -4991103.58249  23840495.9074   23840503.1324
  21699437.956      112603.04149     97395.02749  21699438.9914   21699445.1914
  23643452.399    -9595830.41649  -7465820.52949  23643453.6944   23643459.8024
  22486402.393   -17568346.06049 -13674694.47449  22486404.4244   22486410.2324
  19983702.048   -27879795.21749 -21711852.85849  19983703.1214   19983708.9414
 96  4 20 19 28 59.9990000  0  7  2  4 15 27  9 26  7
  21159152.059    -8405460.59949  -6537949.60949  21159152.3774   21159157.7714
  23438092.625    -9978534.42549  -7275241.70049  23438093.8124   23438100.4804
  23849175.331    -6369976.39949  -4955559.34749  23849175.8184   23849183.3764
  21715527.373      197153.93449    163278.78849  21715528.2704   21715534.5664
  23624377.075    -9696073.14249  -7543931.70949  23624377.0204   23624384.2664
  22489707.881   -17550980.97349 -13661163.25849  22489708.9384   22489714.6754
  19983316.564   -27881820.23049 -21713430.78949  19983318.0954   19983323.6374
 96  4 20 19 29 29.9990000  0  7  2  4 15 27  9 26  7
  21163137.329    -8384513.18049  -6521626.96149  21163138.6974   21163144.2774
  23418018.664   -10084022.83749  -7357440.38449  23418020.1184   23418028.4784
  23857953.865    -6323845.19749  -4919612.97649  23857954.3434   23857962.6444
  21731688.028      282080.10649    229454.97849  21731689.5354   21731695.7444
  23605321.983    -9796208.10049  -7621958.90749  23605322.4434   23605328.1914
  22493102.684   -17533139.18249 -13647260.58649  22493104.1854   22493109.7724
  19983016.242   -27883402.02449 -21714663.36049  19983017.0924   19983022.5084
 96  4 20 19 29 59.9990000  0  7  2  4 15 27  9 26  7
  21167161.049    -8363375.17149  -6505155.79849  21167161.1724   21167166.4864
  23397962.604   -10189416.98149  -7439565.61149  23397965.1754   23397972.0414
  23866834.394    -6277180.68349  -4883251.04349  23866834.9724   23866842.0254
  21747923.468      367395.90749    295934.76849  21747924.5324   21747930.8744
  23586292.010    -9896211.63249  -7699883.69449  23586292.0324   23586299.3134
  22496592.021   -17514801.99549 -13632971.88449  22496593.6094   22496599.0624
  19982800.760   -27884529.78049 -21715542.13349  19982802.1034   19982807.7584
 96  4 20 19 30 29.9990000  0  7  2  4 15 27  9 26  7
  21171211.352    -8342087.18649  -6488567.77449  21171211.9254   21171217.5194
  23377918.328   -10294750.97949  -7521643.98549  23377920.0224   23377926.7494
  23875811.664    -6230007.22549  -4846492.54249  23875811.0754   23875818.1794
  21764226.513      453065.87449    362690.53349  21764226.5534   21764233.6134
  23567282.657    -9996106.89849  -7777724.13149  23567282.4204   23567289.7334
  22500171.413   -17495994.46649 -13618316.67949  22500172.5614   22500178.3314
  19982668.781   -27885227.31149 -21716085.66649  19982669.5974   19982675.2594
 96  4 20 19 30 59.9990000  0  7  2  4 15 27  9 26  7
  21175288.136    -8320661.26449  -6471872.26449  21175289.2154   21175294.5724
  23357885.077   -10400024.80249  -7603675.45849  23357887.4024   23357894.5314
  23884883.726    -6182330.25549  -4809341.69149  23884884.2314   23884891.3234
  21780590.474      539060.33449    429699.14849  21780591.1054   21780597.1104
  23548294.190   -10095896.36449  -7855482.12649  23548294.3424   23548300.2944
  22503838.575   -17476719.53049 -13603297.27049  22503840.2254   22503846.0714
  19982617.494   -27885492.21249 -21716292.08949  19982619.0374   19982624.7194
 96  4 20 19 31 29.9990000  0  7  2  4 15 27  9 26  7
  21179395.891    -8299075.95949  -6455052.56149  21179396.8264   21179402.2164
  23337867.212   -10505219.77549  -7685645.50649  23337868.0974   23337875.9724
  23894054.774    -6134127.29749  -4771780.97449  23894057.4394   23894063.7344
  21797019.435      625398.19649    496975.35149  21797020.4814   21797026.9614
  23529327.852   -10195556.70049  -7933139.48749  23529329.8194   23529334.9044
  22507603.470   -17456941.24249 -13587885.63349  22507603.9004   22507609.8514
  19982653.700   -27885298.50349 -21716141.15449  19982656.0414   19982661.8064
 96  4 20 19 31 59.9990000  0  7  2  4 15 27  9 26  7
  21183530.094    -8277349.85549  -6438123.14649  21183531.1814   21183536.4294
  23317859.122   -10610361.50849  -7767574.04949  23317861.0294   23317867.2964
  23903322.562    -6085419.99049  -4733827.26549  23903325.7844   23903332.8044
  21813508.430      712049.60549    564495.87749  21813509.9134   21813516.2974
  23510386.113   -10295097.58249  -8010703.78949  23510387.1064   23510393.4534
  22511459.573   -17436676.20049 -13572094.71849  22511460.2714   22511466.1634
  19982775.285   -27884667.45849 -21715649.44249  19982776.0074   19982781.9974
 96  4 20 19 32 29.9990000  0  7  2  4 15 27  9 26  7
  21187695.210    -8255466.43849  -6421071.15049  21187695.4774   21187700.7854
  23297863.651   -10715440.69549  -7849453.88049  23297865.1154   23297872.3594
  23912688.352    -6036210.66849  -4695482.37449  23912690.0144   23912696.6894
  21830057.578      799012.43149    632259.06449  21830058.3564   21830064.9694
  23491468.150   -10394516.57349  -8088173.09249  23491468.3394   23491474.7734
  22515408.982   -17415916.04449 -13555917.99749  22515410.7994   22515416.4594
  19982979.379   -27883596.49349 -21714814.93349  19982979.7434   19982985.7594
 96  4 20 19 32 59.9990000  0  7  2  4 15 27  9 26  7
  21191892.263    -8233406.53749  -6403881.62849  21191893.3334   21191898.8254
  23277883.848   -10820438.06249  -7931269.94349  23277884.8124   23277892.1994
  23922150.006    -5986491.69649  -4656740.35049  23922151.3004   23922157.6454
  21846668.870      886303.58349    700278.08949  21846669.4384   21846675.7554
  23472572.006   -10493814.18049  -8165547.81749  23472572.4354   23472577.9434
  22519458.819   -17394634.38049 -13539334.90049  22519460.8794   22519466.2114
  19983268.238   -27882074.60349 -21713629.05249  19983269.6464   19983275.1134
 96  4 20 19 33 29.9990000  0  7  2  4 15 27  9 26  7
  21196123.226    -8211171.50049  -6386555.63949  21196124.5204   21196130.3004
  23257921.225   -10925341.31049  -8013012.67649  23257922.1454   23257929.8624
  23931707.510    -5936265.53749  -4617603.11349  23931708.8624   23931716.0914
  21863343.602      973930.79049    768558.97749  21863343.8224   21863351.2124
  23453698.407   -10593000.34949  -8242835.72649  23453699.0334   23453703.1904
  22523608.710   -17372829.09449 -13522343.78949  22523610.2444   22523615.9134
  19983641.988   -27880112.43449 -21712100.09849  19983642.7084   19983648.5054
 96  4 20 19 33 59.9990000  0  7  2  4 15 27  9 26  7
  21200391.399    -8188744.23649  -6369079.86249  21200392.3054   21200398.0534
  23237980.991   -11030125.55649  -8094662.68049  23237983.0984   23237989.9824
  23941362.809    -5885527.60249  -4578067.10549  23941363.9704   23941370.4694
  21880081.126     1061891.37049    837099.62749  21880082.8124   21880089.5294
  23434845.259   -10692070.31249  -8320033.07549  23434845.9354   23434851.6134
  22527856.934   -17350508.33249 -13504951.01849  22527857.6504   22527863.3094
  19984099.501   -27877708.59149 -21710226.98649  19984100.2264   19984105.8914
 96  4 20 19 34 29.9990000  0  7  2  4 15 27  9 26  7
  21204694.571    -8166131.29649  -6351459.40249  21204695.1874   21204701.0674
  23218064.508   -11134787.00249  -8176216.99649  23218066.5554   23218072.4854
  23951112.767    -5834285.87349  -4538138.50549  23951114.0234   23951121.4124
  21896883.972     1150187.83149    905902.00849  21896885.0244   21896891.7004
  23416012.751   -10791034.03449  -8397147.63749  23416012.8854   23416018.5604
  22532198.913   -17327690.07649 -13487170.57849  22532199.9504   22532205.8424
  19984638.659   -27874869.48549 -21708014.70049  19984640.3834   19984646.0944
 96  4 20 19 34 59.9990000  0  7  2  4 15 27  9 26  7
  21209028.933    -8143350.60349  -6333708.22749  21209030.1444   21209035.9404
  23198169.494   -11239334.87349  -8257682.81649  23198170.8424   23198178.6224
  23960960.196    -5782547.72849  -4497823.10349  23960960.4574   23960967.3544
  21913748.310     1238811.45249    974959.31649  21913749.4734   21913756.4054
  23397199.222   -10889895.10049  -8474182.20749  23397200.8424   23397206.5264
  22536630.258   -17304399.73649 -13469022.28949  22536632.1204   22536637.3474
  19985260.257   -27871603.80149 -21705470.02149  19985261.9014   19985267.5564
 96  4 20 19 35 29.9990000  0  7  2  4 15 27  9 26  7
  21213398.737    -8120387.84449  -6315815.18249  21213399.5834   21213405.4854
  23178295.552   -11343772.55549  -8339062.77149  23178297.2114   23178304.8864
  23970899.218    -5730312.41349  -4457120.28849  23970900.1404   23970907.6574
  21930675.466     1327765.15249   1044273.82849  21930676.9064   21930683.9624
  23378411.073   -10988631.09649  -8551119.32249  23378411.4954   23378417.7644
  22541146.615   -17280666.68149 -13450529.02449  22541148.2604   22541153.7124
  19985962.640   -27867915.53149 -21702596.05149  19985964.0714   19985969.7584
 96  4 20 19 35 59.9990000  0  7  2  4 15 27  9 26  7
  21217802.675    -8097244.41049  -6297781.35749  21217803.8854   21217809.5764
  23158438.824   -11448116.28449  -8420369.51349  23158440.9084   23158448.8604
  23980935.045    -5677578.14949  -4416028.69149  23980935.5504   23980942.0334
  21947667.520     1417060.75149   1113854.74049  21947669.2514   21947676.1704
  23359647.764   -11087227.65349  -8627947.77649  23359649.0434   23359655.8924
  22545743.613   -17256504.27449 -13431701.20149  22545746.0774   22545751.3574
  19986745.958   -27863797.21149 -21699386.98149  19986747.4324   19986753.4204
 96  4 20 19 36 29.9990000  0  7  2  4 15 27  9 26  7
  21222236.795    -8073944.00249  -6279625.21149  21222237.7574   21222243.3654
  23138596.396   -11552391.28049  -8501622.72149  23138598.8504   23138605.4134
  23991062.677    -5624356.02549  -4374556.94549  23991063.0894   23991070.3544
  21964723.717     1506689.35549   1183695.15049  21964725.0814   21964731.9564
  23340912.936   -11185685.86549  -8704668.43249  23340913.3804   23340919.8414
  22550420.800   -17231929.40749 -13412551.98149  22550422.7574   22550427.9264
  19987608.453   -27859266.08249 -21695856.23649  19987610.0554   19987615.9904
 96  4 20 19 36 59.9990000  0  7  2  4 15 27  9 26  7
  21226703.191    -8050474.52849  -6261337.32149  21226703.9374   21226709.8654
  23118768.722   -11656591.88449  -8582817.95449  23118769.6514   23118776.3414
  24001285.215    -5570637.95849  -4332698.75149  24001284.7654   24001293.5364
  21981842.081     1596650.67349   1253794.80649  21981844.2464   21981850.6364
  23322204.075   -11283997.91249  -8781275.18249  23322204.2474   23322211.9554
  22555178.529   -17206928.17949 -13393070.53049  22555180.3304   22555185.9564
  19988552.002   -27854309.78949 -21691994.20149  19988553.1324   19988558.6694
 96  4 20 19 37 29.9990000  0  7  2  4 15 27  9 26  7
  21231197.856    -8026854.86749  -6242932.40549  21231198.8124   21231204.6024
  23098953.049   -11760720.87249  -8663957.38249  23098954.6494   23098960.9564
  24011597.978    -5516433.73649  -4290461.74549  24011600.1064   24011608.1634
  21999023.907     1686938.19149   1324148.65449  21999025.2324   21999032.2834
  23303523.602   -11382166.03549  -8857769.79649  23303524.2494   23303530.8304
  22560017.137   -17181501.12449 -13373257.25849  22560018.6704   22560024.6874
  19989574.409   -27848938.11449 -21687808.48549  19989575.2794   19989580.6934
 96  4 20 19 37 59.9990000  0  7  2  4 15 27  9 26  7
  21235717.287    -8003105.08549  -6224426.09949  21235718.1094   21235723.8844
  23079156.011   -11864757.58349  -8745024.91349  23079157.0434   23079163.5764
  24022006.195    -5461743.42249  -4247845.95249  24022006.9824   24022015.2444
  22016265.924     1777544.11949   1394750.60649  22016267.3524   22016273.3604
  23284869.273   -11480195.88249  -8934156.65549  23284869.7144   23284876.0154
  22564939.696   -17155635.65749 -13353102.37749  22564940.9034   22564946.5894
  19990677.254   -27843135.99649 -21683287.36049  19990679.1044   19990684.9154
 96  4 20 19 38 29.9990000  0  7  2  4 15 27  9 26  7
  21240265.886    -7979203.15049  -6205801.23649  21240266.7654   21240272.3544
  23059381.226   -11968669.58949  -8825995.26749  23059382.4714   23059390.3324
  24032508.837    -5406561.10449  -4204846.77249  24032507.9324   24032515.7294
  22033570.026     1868474.51149   1465605.39149  22033570.7994   22033577.8984
  23266242.543   -11578074.15249  -9010425.40849  23266243.9424   23266250.2534
  22569948.231   -17129314.28849 -13332592.25049  22569949.7784   22569955.4774
  19991866.924   -27836891.93349 -21678421.86749  19991867.3854   19991873.4704
 96  4 20 19 38 59.9990000  0  7  2  4 15 27  9 26  7
  21244846.389    -7955133.45249  -6187045.64649  21244847.2064   21244852.7044
  23039630.522   -12072456.25249  -8906867.96949  23039633.4244   23039640.2224
  24043100.799    -5350888.72449  -4161465.72849  24043102.4714   24043110.6484
  22050936.800     1959739.25349   1536720.70849  22050937.5324   22050944.5704
  23247648.784   -11675796.21249  -9086572.44649  23247648.3624   23247655.1904
  22575043.856   -17102536.38949 -13311726.38649  22575045.6224   22575051.5304
  19993140.991   -27830195.33849 -21673203.74249  19993141.8184   19993147.8364
 96  4 20 19 39 29.9990000  0  7  2  4 15 27  9 26  7
  21249459.880    -7930889.69949  -6168154.42349  21249460.5084   21249466.0614
  23019905.583   -12176113.21249  -8987639.58349  23019906.9384   23019915.6574
  24053790.714    -5294731.70649  -4117707.04549  24053789.3354   24053796.4204
  22068366.603     2051331.59549   1608091.28549  22068367.3854   22068374.0334
  23229082.722   -11773355.04449  -9162592.28949  23229083.6844   23229089.6964
  22580225.694   -17075309.34349 -13290510.54149  22580226.6694   22580232.7524
  19994498.206   -27823058.79849 -21667642.80649  19994499.8354   19994505.8404
 96  4 20 19 39 59.9990000  0  7  2  4 15 27  9 26  7
  21254109.601    -7906452.42549  -6149112.40849  21254110.7554   21254116.6594
  23000204.786   -12279641.72049  -9068311.11549  23000206.3404   23000214.8644
  24064563.917    -5238101.63949  -4073579.76549  24064564.9964   24064572.1244
  22085855.355     2143235.17749   1679704.39849  22085855.5904   22085863.0164
  23210547.106   -11870760.27849  -9238492.44749  23210548.0654   23210554.3404
  22585490.078   -17047636.26249 -13268947.13449  22585492.6764   22585499.1604
  19995937.216   -27815495.18449 -21661749.08649  19995938.8044   19995944.6194
 96  4 20 19 40 29.9990000  0  7  2  4 15 27  9 26  7
  21258800.799    -7881798.57349  -6129901.62849  21258801.5634   21258807.5914
  22980525.888   -12383053.70049  -9148891.84549  22980527.3714   22980535.8614
  24075433.886    -5180991.82649  -4029078.65049  24075433.1764   24075439.5654
  22103403.533     2235455.70349   1751564.48149  22103404.5674   22103412.1714
  23192042.690   -11968000.04849  -9314263.66949  23192043.2474   23192050.3284
  22590847.181   -17019493.66749 -13247017.87649  22590848.0194   22590854.0454
  19997456.491   -27807520.13849 -21655534.77249  19997457.0414   19997462.4844
 96  4 20 19 40 59.9990000  0  7  2  4 15 27  9 26  7
  21263530.093    -7856947.04649  -6110536.81549  21263530.9394   21263536.8134
  22960870.300   -12486346.39449  -9229379.63649  22960871.7774   22960879.6244
  24086391.392    -5123406.62649  -3984207.09949  24086391.6914   24086397.7224
  22121010.012     2327979.31649   1823660.72949  22121012.1214   22121018.6624
  23173567.373   -12065095.74249  -9389922.63949  23173567.5084   23173573.1824
  22596292.836   -16990874.69049 -13224717.40949  22596293.7854   22596299.9754
  19999050.768   -27799133.93149 -21649000.07249  19999052.5944   19999058.2214
 96  4 20 19 41 29.9990000  0  7  2  4 15 27  9 26  7
  21268297.268    -7831897.80549  -6091017.94049  21268297.8924   21268303.7864
  22941242.988   -12589484.79749  -9309747.18749  22941245.2604   22941253.0064
  24097442.478    -5065335.07349  -3938956.57949  24097442.5644   24097448.9254
  22138676.691     2420814.82449   1896000.01549  22138678.0854   22138684.9984
  23155117.139   -12162046.95549  -9465469.00549  23155118.1864   23155124.8214
  22601834.589   -16961750.47649 -13202023.24649  22601836.2374   22601841.9564
  20000725.692   -27790332.20749 -21642141.59549  20000727.3384   20000733.2064
 96  4 20 19 41 59.9990000  0  7  2  4 15 27  9 26  7
  21273098.921    -7806662.12049  -6071353.78549  21273100.1424   21273105.8394
  22921648.282   -12692465.72749  -9389992.04549  22921649.2144   22921656.4764
  24108585.813    -5006779.53749  -3893328.94349  24108585.3564   24108592.3394
  22156404.621     2513969.48849   1968587.99949  22156404.4054   22156412.1304
  23136694.269   -12258856.63249  -9540905.09549  23136695.3464   23136702.2044
  22607471.382   -16932125.92149 -13178939.21749  22607473.4064   22607479.5024
  20002480.365   -27781115.26249 -21634959.56649  20002481.4194   20002487.1194
 96  4 20 19 42 29.9990000  0  7  2  4 15 27  9 26  7
  21277932.456    -7781261.72049  -6051561.28449  21277933.2014   21277939.2834
  22902080.298   -12795290.48249  -9470115.19749  22902082.1294   22902089.0534
  24119817.487    -4947746.91549  -3847329.53149  24119818.8944   24119824.9584
  22174191.801     2607446.94049   2041427.49949  22174193.8274   22174200.0144
  23118296.734   -12355534.71849  -9616238.64049  23118298.3374   23118305.3184
  22613198.563   -16902029.15449 -13155487.22049  22613200.7384   22613206.6214
  20004314.019   -27771481.13049 -21627452.46249  20004314.9514   20004320.9354
 96  4 20 19 42 59.9990000  0  7  2  4 15 27  9 26  7
  21282796.316    -7755703.59249  -6031645.87349  21282797.1904   21282803.2134
  22882547.174   -12897938.97949  -9550101.01149  22882549.2314   22882555.9464
  24131141.062    -4888245.69749  -3800965.00849  24131140.0444   24131147.3064
  22192041.202     2701243.75149   2114515.85749  22192041.8854   22192048.9734
  23099925.160   -12452081.41149  -9691469.80049  23099926.0924   23099932.6194
  22619009.189   -16871497.57949 -13131696.41349  22619010.4434   22619016.9634
  20006226.468   -27761434.85749 -21619624.20949  20006226.7194   20006232.3274
 96  4 20 19 43 29.9990000  0  7  2  4 15 27  9 26  7
  21287695.580    -7729959.48149  -6011585.54349  21287696.3824   21287702.2564
  22863044.923   -13000423.96649  -9629959.42749  22863046.1864   22863053.6284
  24142550.312    -4828267.63449  -3754228.90249  24142553.5284   24142560.7214
  22209951.224     2795368.36749   2187859.64349  22209953.5254   22209961.0484
  23081584.292   -12548465.55749  -9766574.30249  23081584.9164   23081591.7864
  22624898.127   -16840548.26449 -13107580.09249  22624899.9274   22624906.4434
  20008213.314   -27750988.42149 -21611484.14149  20008214.5074   20008220.0574
 96  4 20 19 43 59.9990000  0  7  2  4 15 27  9 26  7
  21292628.216    -7704042.13549  -5991390.22649  21292628.3944   21292634.2574
  22843569.831   -13102764.69649  -9709705.42449  22843571.3414   22843578.9284
  24154053.195    -4767824.63549  -3707130.51649  24154055.9684   24154062.7114
  22227922.162     2889799.43049   2261442.20949  22227922.8114   22227929.8514
  23063274.921   -12644682.91249  -9841548.84149  23063275.5044   23063281.8774
  22630860.209   -16809221.50349 -13083169.66149  22630861.9354   22630867.8654
  20010274.116   -27740150.50449 -21603039.02749  20010276.4784   20010282.1764
 96  4 20 19 44 29.9990000  0  7  2  4 15 27  9 26  7
  21297593.243    -7677950.19449  -5971058.86149  21297593.3744   21297599.4784
  22824122.818   -13204964.24149  -9789341.40649  22824123.6104   22824130.7824
  24165645.930    -4706915.45449  -3659668.86249  24165646.6344   24165654.1004
  22245948.576     2984528.08049   2335256.67749  22245949.4654   22245956.1644
  23044998.097   -12740721.09949  -9916383.75449  23044999.7164   23045006.8584
  22636895.461   -16777503.40749 -13058454.30249  22636897.4774   22636903.6264
  20012412.701   -27728923.96049 -21594291.08349  20012413.1614   20012418.7014
 96  4 20 19 44 59.9990000  0  7  2  4 15 27  9 26  7
  21302591.171    -7651678.21149  -5950587.20249  21302592.5954   21302598.8474
  22804699.130   -13307031.27049  -9868874.12549  22804701.9054   22804709.0284
  24177326.972    -4645538.16449  -3611842.45349  24177326.3634   24177332.5734
  22264031.320     3079548.51349   2409298.50649  22264031.2324   22264038.2384
  23026760.026   -12836561.81749  -9991064.81649  23026761.6874   23026768.8424
  22643010.472   -16745368.86449 -13033414.44049  22643011.9594   22643018.4254
  20014621.447   -27717310.24549 -21585241.44249  20014623.2414   20014629.0314
 96  4 20 19 45 29.9990000  0  7  2  4 15 27  9 26  7
  21307624.362    -7625229.05649  -5929977.48649  21307625.8904   21307632.3024
  22785300.291   -13408973.83649  -9948309.86949  22785302.4924   22785308.2614
  24189093.824    -4583696.75549  -3563654.39649  24189093.5194   24189100.6894
  22282164.547     3174845.91349   2483556.13849  22282166.1464   22282173.1254
  23008559.629   -12932204.14549 -10065591.28349  23008561.3944   23008568.3294
  22649207.596   -16712801.06249 -13008036.96649  22649209.6454   22649215.6714
  20016907.964   -27705297.75349 -21575881.06749  20016909.0244   20016914.9114
 96  4 20 19 45 59.9990000  0  7  2  4 15 27  9 26  7
  21312688.288    -7598619.90649  -5909243.10449  21312689.1504   21312695.4124
  22765928.455   -13510774.51749 -10027635.06249  22765930.4564   22765936.2784
  24200948.288    -4521398.22149  -3515110.11549  24200950.0204   24200956.3214
  22300350.170     3270413.81849   2558024.55049  22300352.0184   22300359.3224
  22990398.231   -13027646.63949 -10139962.02349  22990399.5964   22990406.1104
  22655492.141   -16679781.26649 -12982307.28549  22655493.3854   22655499.2934
  20019269.099   -27692891.43849 -21566213.81749  20019269.7734   20019275.8724
 96  4 20 19 46 29.9990000  0  6  2  4 27  9 26  7
  21317787.644    -7571821.84949  -5888361.52549  21317788.9014   21317795.2434
  22746586.931   -13612415.43149 -10106835.72349  22746589.5174   22746594.6284
  22318593.801     3366282.96749   2632727.72849  22318595.2184   22318602.6074
  22972275.511   -13122879.53249 -10214169.45849  22972277.2514   22972283.1884
  22661867.671   -16646277.18149 -12956200.24049  22661868.8694   22661874.7604
  20021706.743   -27680077.46149 -21556228.90549  20021708.1464   20021714.4494
 96  4 20 19 46 59.9990000  0  6  2  4 27  9 26  7
  21322920.816    -7544848.86849  -5867343.63849  21322921.9494   21322927.8844
  22727275.518   -13713900.38649 -10185914.88349  22727275.7664   22727283.2034
  22336892.203     3462445.78849   2707659.71749  22336894.5964   22336902.3444
  22954188.780   -13217930.91849 -10288235.45249  22954189.5914   22954196.0254
  22668328.707   -16612318.57149 -12929739.02649  22668331.0244   22668337.1494
  20024223.292   -27666856.30749 -21545926.71849  20024224.0364   20024230.1434
 96  4 20 19 47 29.9990000  0  6  2  4 27  9 26  7
  21328090.166    -7517684.63149  -5846176.72349  21328091.2154   21328097.1274
  22707998.543   -13815198.82049 -10264848.69149  22708000.8164   22708006.3174
  22355251.018     3558916.27949   2782831.45349  22355252.2894   22355259.1244
  22936136.762   -13312797.07949 -10362157.10549  22936137.3674   22936143.9764
  22674878.072   -16577908.10749 -12902925.71149  22674879.1294   22674884.9594
  20026819.202   -27653214.77149 -21535296.95749  20026820.3224   20026826.1644
 96  4 20 19 47 59.9990000  0  6  2  4 27  9 26  7
  21333292.118    -7490348.02649  -5824875.49349  21333292.9064   21333299.2214
  22688754.503   -13916330.86549 -10343652.86249  22688754.9434   22688761.8384
  22373667.314     3655694.63149   2858243.08149  22373668.6834   22373675.9214
  22918115.010   -13407497.31549 -10435949.47249  22918116.3904   22918122.9664
  22681505.729   -16543078.23849 -12875785.59449  22681507.1684   22681513.0474
  20029491.970   -27639169.80449 -21524352.83749  20029493.0584   20029498.5754
 96  4 20 19 48 29.9990000  0  6  2  4 27  9 26  7
  21338527.166    -7462836.82949  -5803438.21849  21338528.2504   21338534.5974
  22669542.081   -14017285.91749 -10422319.09949  22669543.5684   22669550.2684
  22392142.717     3752778.97049   2933893.13649  22392143.2454   22392150.2614
  22900126.102   -13502032.10549 -10509612.90949  22900127.3844   22900133.2154
  22688211.214   -16507842.16049 -12848328.95049  22688212.7414   22688218.1334
  20032246.218   -27624694.98149 -21513073.76249  20032247.4124   20032252.8814
 96  4 20 19 48 59.9990000  0  6  2  4 27  9 26  7
  21343793.602    -7435158.82749  -5781870.96549  21343795.1404   21343801.3274
  22650367.464   -14118054.98549 -10500840.41849  22650368.4964   22650375.6274
  22410669.967     3850139.70649   3009758.56649  22410670.6384   22410677.3984
  22882169.945   -13596392.61449 -10583140.54749  22882170.6634   22882177.2574
  22694991.246   -16472214.22149 -12820566.95649  22694992.6074   22694998.2384
  20035081.717   -27609794.73849 -21501463.19649  20035082.9574   20035088.2864
 96  4 20 19 49 29.9990000  0  6  2  4 27  9 26  7
  21349094.152    -7407309.37349  -5760170.11349  21349094.8684   21349100.9254
  22631226.781   -14218627.45149 -10579208.53049  22631229.7464   22631238.4334
  22429247.546     3947764.14449   3085829.47049  22429248.0154   22429254.2404
  22864251.120   -13690555.31649 -10656514.05549  22864251.5094   22864258.3534
  22701845.771   -16436194.91349 -12792500.00049  22701846.9084   22701852.6144
  20037994.591   -27594489.95549 -21489537.40549  20037994.9054   20038000.3484
 96  4 20 19 49 59.9990000  0  6  2  4 27  9 26  7
  21354422.647    -7379302.18449  -5738346.34849  21354424.2824   21354430.3434
  22612124.963   -14319012.66749 -10657430.73149  22612126.6344   22612134.1124
  22447870.837     4045634.13449   3162091.72349  22447872.2204   22447878.5344
  22846371.215   -13784516.24349 -10729730.32849  22846372.2024   22846378.5324
  22708773.069   -16399793.64149 -12764135.41049  22708773.6594   22708779.6654
  20040980.593   -27578797.24249 -21477309.32549  20040981.5644   20040986.9264
 96  4 20 19 50 29.9990000  0  6  2  4 27  9 26  7
  21359784.997    -7351126.14749  -5716391.01449  21359785.9734   21359791.9524
  22593060.758   -14419196.60349 -10735496.10149  22593062.8644   22593069.7484
  22466539.398     4143740.30849   3238538.00749  22466540.9754   22466547.3454
  22828529.490   -13878270.93849 -10802785.91849  22828530.5464   22828536.6434
  22715774.384   -16362999.46449 -12735464.66649  22715775.8184   22715781.5994
  20044040.415   -27562723.24649 -21464784.14549  20044040.3024   20044045.7584
 96  4 20 19 50 59.9990000  0  6  2  4 27  9 26  7
  21365179.401    -7322778.24149  -5694301.76149  21365180.4774   21365186.5504
  22574032.765   -14519196.37349 -10813417.96049  22574033.9764   22574040.7234
  22485252.725     4242073.41949   3315161.13249  22485253.2494   22485260.1474
  22810724.686   -13971835.48149 -10875693.32149  22810725.8424   22810732.6384
  22722847.516   -16325826.63249 -12706498.86649  22722849.0844   22722854.6494
  20047163.140   -27546303.11449 -21451989.24549  20047164.7094   20047170.5804
 96  4 20 19 51 29.9990000  0  6  2  4 27  9 26  7
  21370608.480    -7294243.96549  -5672067.28249  21370610.4454   21370616.0754
  22555039.880   -14618999.02949 -10891186.22049  22555041.6924   22555049.2244
  22504013.129     4340661.78649   3391983.15749  22504013.5964   22504020.4684
  22792958.431   -14065196.33249 -10948442.00849  22792959.8654   22792966.1334
  22729997.274   -16288254.93349 -12677222.25049  22729998.7454   22730005.2814
  20050356.584   -27529522.70149 -21438913.61249  20050357.9584   20050364.0074
 96  4 20 19 51 59.9990000  0  6  2  4 27  9 26  7
  21376075.278    -7265523.68649  -5649687.86649  21376075.5564   21376081.6944
  22536081.978   -14718617.81049 -10968811.20349  22536084.5234   22536091.7724
  22522823.419     4439512.74649   3469009.79849  22522824.9064   22522832.1014
  22775228.305   -14158371.29549 -11021045.84949  22775229.7164   22775235.5824
  22737222.786   -16250286.35749 -12647636.38249  22737224.1904   22737229.9414
  20053619.806   -27512375.72049 -21425552.34149  20053620.9144   20053626.8844
 96  4 20 19 52 29.9990000  0  6  2  4 27  9 26  7
  21381580.559    -7236593.99449  -5627145.27249  21381580.9424   21381586.6334
  22517166.529   -14818028.76849 -11046274.25149  22517167.9484   22517174.2314
  22541690.634     4538656.52549   3546264.60849  22541691.1754   22541698.8454
  22757536.314   -14251347.55749 -11093494.86549  22757536.6854   22757542.4744
  22744527.204   -16211900.61749 -12617725.44549  22744528.1244   22744534.3184
  20056955.747   -27494840.63649 -21411888.65049  20056957.6974   20056963.5364
 96  4 20 19 52 59.9990000  0  6  2  4 27  9 26  7
  21387124.132    -7207457.96949  -5604441.89749  21387125.2774   21387130.8434
  22498290.354   -14917219.93849 -11123566.02549  22498292.3214   22498299.2554
  22560615.571     4638107.19449   3623758.56449  22560616.3864   22560623.7194
  22739882.672   -14344111.97149 -11165778.79749  22739883.5084   22739889.1504
  22751912.054   -16173093.96449 -12587486.53349  22751913.1094   22751918.7394
  20060370.068   -27476904.06949 -21397912.11549  20060370.9614   20060376.8444
 96  4 20 19 53 29.9990000  0  6  2  4 27  9 26  7
  21392703.443    -7178138.64549  -5581595.69249  21392704.7464   21392710.1264
  22479452.768   -15016211.22549 -11200702.06149  22479454.7444   22479461.1744
  22579596.218     4737854.84749   3701483.91849  22579596.9294   22579605.0834
  22722269.223   -14436674.75749 -11237905.62549  22722269.9574   22722275.7624
  22759372.888   -16133880.99749 -12556931.01549  22759375.1324   22759381.0934
  20063859.712   -27458572.67449 -21383627.92049  20063859.3124   20063865.4974
 96  4 20 19 53 59.9990000  0  6  2  4 27  9 26  7
  21398318.147    -7148636.42949  -5558606.97449  21398318.9144   21398324.4694
  22460655.050   -15114999.46749 -11277679.86949  22460656.1024   22460662.8604
  22598632.503     4837888.08649   3779431.81649  22598633.2404   22598640.9194
  22704692.925   -14529034.38049 -11309874.13449  22704694.8044   22704700.2124
  22766912.663   -16094263.45849 -12526060.24749  22766914.0274   22766920.0114
  20067421.366   -27439846.17949 -21369035.85449  20067422.8334   20067429.1074
 96  4 20 19 54 29.9990000  0  6  2  4 27  9 26  7
  21403968.272    -7118942.11349  -5535468.56749  21403969.3564   21403975.1594
  22441898.201   -15213559.91649 -11354480.18649  22441900.8004   22441907.4464
  22617722.135     4938205.25549   3857600.95649  22617723.3874   22617730.6154
  22687160.334   -14621174.75649 -11381671.81549  22687161.1134   22687167.0294
  22774530.468   -16054233.62049 -12494868.21449  22774531.4194   22774538.0104
  20071061.832   -27420716.54149 -21354129.65249  20071063.0764   20071069.1904
 96  4 20 19 54 59.9990000  0  6  2  4 27  9 26  7
  21409656.114    -7089053.98149  -5512179.13449  21409656.9464   21409662.8014
  22423187.136   -15311893.00949 -11431103.33949  22423187.9894   22423195.4414
  22636859.034     5038771.82949   3935964.44249  22636860.2954   22636868.1074
  22669666.033   -14713097.24449 -11453299.69249  22669668.4024   22669675.1394
  22782224.432   -16013800.52749 -12463361.94749  22782225.6364   22782232.1744
  20074776.583   -27401201.08749 -21338922.81549  20074776.7314   20074782.3934
 96  4 20 19 55 29.9990000  0  6  2  4 27  9 26  7
  21415382.260    -7058961.23449  -5488730.25949  21415383.4044   21415389.4324
  22404517.820   -15409995.80149 -11507547.03449  22404519.7274   22404526.4284
  22656040.170     5139565.88049   4014505.17449  22656040.1174   22656048.9594
  22652216.561   -14804800.13349 -11524756.45849  22652217.7804   22652224.0684
  22789992.383   -15972981.49249 -12431554.95049  22789993.2434   22789999.2964
  20078557.331   -27381327.69149 -21323437.06349  20078558.7544   20078564.2894
 96  4 20 19 55 59.9990000  0  6  2  4 27  9 26  7
  21421149.690    -7028651.27649  -5465112.12649  21421151.1554   21421156.8514
  22385897.663   -15507847.60449 -11583795.15849  22385899.5174   22385906.2464
  22675261.123     5240576.80549   4093214.90249  22675262.6024   22675269.7304
  22634811.323   -14896267.75049 -11596029.90649  22634812.3414   22634818.6554
  22797834.052   -15931772.30749 -12399443.93149  22797835.2694   22797841.3754
  20082407.420   -27361098.04149 -21307673.70749  20082408.1414   20082413.8694
 96  4 20 19 56 29.9990000  0  6  2  4 27  9 26  7
  21426957.504    -6998130.08649  -5441329.39749  21426959.0904   21426964.8134
  22367321.505   -15605468.46549 -11659863.32649  22367322.6704   22367329.5564
  22694521.892     5341796.17049   4172087.04449  22694523.6524   22694530.5824
  22617448.496   -14987511.04049 -11667128.55049  22617449.3454   22617455.5354
  22805745.977   -15890188.93649 -12367041.34649  22805748.6484   22805754.0684
  20086320.445   -27340529.49849 -21291646.27749  20086322.2414   20086327.9464
 96  4 20 19 56 59.9990000  0  6  2  4 27  9 26  7
  21432802.780    -6967418.94949  -5417398.66749  21432803.1004   21432808.7404
  22348781.921   -15702887.05949 -11735773.89349  22348784.0914   22348790.8364
  22713820.855     5443213.66049   4251113.57749  22713822.3354   22713830.2554
  22600126.972   -15078532.80749 -11738054.58649  22600128.4334   22600134.5434
  22813727.505   -15848249.65749 -12334361.42149  22813728.8694   22813734.9214
  20090298.184   -27319632.49849 -21275362.91549  20090299.0984   20090304.4934
 96  4 20 19 57 29.9990000  0  6  2  4 27  9 26  7
  21438681.818    -6936519.91649  -5393321.51549  21438683.0364   21438688.8994
  22330284.112   -15800097.10849 -11811521.94149  22330285.6374   22330292.8684
  22733165.767     5544866.88549   4330323.77549  22733166.7914   22733174.6214
  22582852.479   -15169309.74549 -11808789.84549  22582853.7674   22582860.0634
  22821779.167   -15805936.66449 -12301390.28549  22821780.5564   22821787.2414
  20094343.045   -27298379.48449 -21258802.13749  20094343.3574   20094348.7014
 96  4 20 19 57 59.9990000  0  6  2  4 27  9 26  7
  21444589.497    -6905473.33849  -5369129.39949  21444591.1944   21444597.0064
  22311820.154   -15897126.02549 -11887128.86849  22311821.6304   22311827.2844
  22752552.526     5646746.90849   4409710.74249  22752554.1244   22752560.7874
  22565622.687   -15259859.70649 -11879348.22849  22565623.4184   22565629.5774
  22829902.013   -15763251.24249 -12268128.96649  22829904.2924   22829909.8854
  20098455.340   -27276764.59249 -21241959.37449  20098456.5824   20098462.0414
 96  4 20 19 58 29.9990000  0  6  2  4 27  9 26  7
  21450527.388    -6874273.72449  -5344818.03249  21450528.2324   21450534.3204
  22293395.740   -15993937.65949 -11962566.47749  22293398.9364   22293406.1974
  22771989.579     5748892.82149   4489304.86749  22771991.9574   22771999.2844
  22548438.751   -15350157.99449 -11949710.51049  22548439.4464   22548446.6294
  22838100.029   -15720173.88349 -12234562.24549  22838101.2244   22838107.1534
  20102642.695   -27254757.01049 -21224810.62449  20102644.2984   20102649.7654
 96  4 20 19 58 59.9990000  0  6  2  4 27  9 26  7
  21456492.447    -6842926.07449  -5320391.31749  21456493.6314   21456499.6854
  22275021.706   -16090506.31249 -12037814.75549  22275022.5644   22275029.1614
  22791478.321     5851305.68749   4569107.01349  22791480.1914   22791487.7804
  22531302.838   -15440211.73549 -12019882.23549  22531302.6444   22531309.8294
  22846368.304   -15676721.15249 -12200703.01849  22846370.6484   22846375.8444
  20106905.147   -27232364.65149 -21207362.04849  20106905.5274   20106910.8704
 96  4 20 19 59 29.9990000  0  6  2  4 27  9 26  7
  21462491.223    -6811407.50849  -5295831.42349  21462491.2704   21462497.4004
  22256696.295   -16186804.28649 -12112852.10249  22256698.1584   22256704.6914
  22811019.026     5953991.71849   4649122.01449  22811020.8924   22811028.4804
  22514210.445   -15530031.08849 -12089871.32549  22514210.7784   22514217.7164
  22854708.932   -15632889.10049 -12166548.21049  22854710.9904   22854716.4764
  20111239.328   -27209585.40149 -21189611.99449  20111240.2044   20111245.7254
 96  4 20 19 59 59.9990000  0  6  2  4 27  9 26  7
  21468524.441    -6779703.48049  -5271127.00749  21468524.3734   21468530.2934
  22238422.473   -16282832.74949 -12187679.44149  22238424.4294   22238430.8704
  22830607.904     6056930.28049   4729333.78749  22830609.7474   22830617.1714
  22497159.873   -15619630.39249 -12159688.94149  22497160.7924   22497167.4864
  22863120.233   -15588692.70649 -12132109.51849  22863121.4284   22863127.5334
  20115648.196   -27186415.60749 -21171557.62449  20115648.8354   20115654.8194
 96  4 20 20  0 29.9990000  0  6  2  4 27  9 26  7
  21474599.766    -6747773.02749  -5246246.15349  21474600.1614   21474606.4084
  22220204.453   -16378570.66049 -12262280.36949  22220206.3534   22220212.5354
  22850244.436     6160123.19249   4809743.75149  22850245.4584   22850254.8954
  22480151.290   -15709008.66249 -12229334.32349  22480152.6824   22480159.5844
  22871598.857   -15544133.60649 -12097388.19549  22871600.3614   22871607.0734
  20120130.463   -27162859.88849 -21153202.53049  20120131.4284   20120137.5944
 96  4 20 20  0 59.9990000  0  6  2  4 27  9 26  7
  21480723.317    -6715592.59849  -5221170.52049  21480724.0224   21480730.5164
  22202037.646   -16474035.16049 -12336668.26649  22202039.9304   22202046.3734
  22869927.304     6263551.89449   4890337.44949  22869929.2174   22869936.2904
  22463186.356   -15798160.07149 -12298802.92849  22463187.8714   22463194.3634
  22880148.383   -15499208.02049 -12062381.29449  22880150.0494   22880155.6084
  20124685.138   -27138925.85349 -21134552.64849  20124686.2784   20124692.4364
 96  4 20 20  1 29.9990000  0  6  2  4 27  9 26  7
  21486891.521    -6683173.78349  -5195909.13049  21486893.3344   21486899.9694
  22183918.999   -16569246.75549 -12410859.08049  22183921.8964   22183928.2104
  22889649.758     6367190.75849   4971094.91149  22889650.6534   22889658.0654
  22446267.809   -15887067.45149 -12368081.38649  22446269.2114   22446276.1704
  22888768.501   -15453909.26749 -12027083.61149  22888769.8904   22888775.9224
  20129310.926   -27114617.11749 -21115610.79049  20129311.8954   20129317.9784
 96  4 20 20  1 59.9990000  0  6  2  4 27  9 26  7
  21493102.994    -6650537.72149  -5170478.45649  21493103.8814   21493110.4764
  22165850.318   -16664205.35449 -12484852.76049  22165851.4654   22165857.6124
  22909409.965     6471033.15749   5052010.97549  22909411.3364   22909418.7874
  22429401.978   -15975703.65349 -12437148.54149  22429402.0544   22429408.8774
  22897460.626   -15408230.67349 -11991489.95249  22897462.3174   22897468.8214
  20134004.248   -27089952.29749 -21096391.46649  20134005.7324   20134011.4424
 96  4 20 20  2 29.9990000  0  6  2  4 27  9 26  7
  21499352.465    -6617699.93249  -5144890.60049  21499352.9184   21499359.2294
  22147828.914   -16758907.66349 -12558646.72749  22147830.0164   22147836.7324
  22929211.893     6575088.15249   5133092.68449  22929212.6844   22929219.6474
  22412587.831   -16064055.17549 -12505993.85849  22412589.3114   22412596.3694
  22906224.129   -15362178.13949 -11955604.91149  22906226.2404   22906232.1834
  20138758.473   -27064967.55449 -21076922.84849  20138759.9434   20138766.0334
 96  4 20 20  2 59.9990000  0  6  2  4 27  9 26  7
  21505636.273    -6584675.17449  -5119157.03849  21505637.1574   21505643.6294
  22129858.014   -16853343.31549 -12632232.91249  22129859.2474   22129865.4924
  22949056.335     6679374.42849   5214354.62349  22949057.8714   22949064.5984
  22395835.728   -16152091.30849 -12574593.43349  22395836.4584   22395843.2904
  22915059.922   -15315746.54849 -11919424.49949  22915061.3954   22915067.8454
  20143576.901   -27039649.45549 -21057194.47049  20143577.9574   20143584.0124
